[[{"header":{"parameterUnit":"m.s-1","parameterCategory":1,"la1":31.0,"la2":29.5877,"lo1":-88.7671,"lo2":-86.6584,"dx":0.0162,"dy":0.0185,"nx":115,"ny":88,"refTime":"2023-01-31T06:00:00:Z","depth":0,"parameterNumber":2,"parameterNumberName":"U-component_of_WINDS"},"data":[0.0,0.0,0.0,0.0,0.0,0.0,0.0,0.0,0.0,0.0,0.0,0.0,0.0,0.0,0.0,0.0,0.0,0.0,0.0,0.0,0.0,0.0,0.0,0.0,0.0,0.0,0.0,0.0,0.0,0.0,0.0,0.0,0.0,0.0,0.0,0.0,0.0,0.0,0.0,0.0,0.0,0.0,0.0,0.0,0.0,0.0,0.0,0.0,0.0,0.0,0.0,0.0,0.0,0.0,0.0,0.0,0.0,0.0,0.0,0.0,0.0,0.0,0.0,0.0,0.0,0.0,0.0,0.0,0.0,0.0,0.0,0.0,0.0,0.0,0.0,0.0,0.0,0.0,0.0,0.0,0.0,0.0,0.0,0.0,0.0,0.0,0.0,0.0,0.0,0.0,0.0,0.0,0.0,0.0,0.0,0.0,0.0,0.0,0.0,0.0,0.0,0.0,0.0,0.0,0.0,0.0,0.0,0.0,0.0,0.0,0.0,0.0,0.0,0.0,0.0,0.0,0.0,0.0,0.0,0.0,0.0,0.0,0.0,0.0,0.0,0.0,0.0,0.0,0.0,0.0,0.0,0.0,0.0,0.0,0.0,0.0,0.0,0.0,0.0,0.0,0.0,0.0,0.0,0.0,0.0,0.0,0.0,0.0,0.0,0.0,0.0,0.0,0.0,0.0,0.0,0.0,0.0,0.0,0.0,0.0,0.0,0.0,0.0,0.0,0.0,0.0,0.0,0.0,0.0,0.0,0.0,0.0,0.0,0.0,0.0,0.0,0.0,0.0,0.0,0.0,0.0,0.0,0.0,0.0,0.0,0.0,0.0,0.0,0.0,0.0,0.0,0.0,0.0,0.0,0.0,0.0,0.0,0.0,0.0,0.0,0.0,0.0,0.0,0.0,0.0,0.0,0.0,0.0,0.0,0.0,0.0,0.0,0.0,0.0,0.0,0.0,0.0,0.0,0.0,0.0,0.0,0.0,0.0,0.0,0.0,0.0,0.0,0.0,0.0,0.0,0.0,0.0,0.0,0.0,0.0,0.0,0.0,0.0,0.0,0.0,0.0,0.0,0.0,0.0,0.0,0.0,0.0,0.0,0.0,0.0,0.0,0.0,0.0,0.0,0.0,0.0,0.0,0.0,0.0,0.0,0.0,0.0,0.0,0.0,0.0,0.0,0.0,0.0,0.0,0.0,0.0,0.0,0.0,0.0,0.0,0.0,0.0,0.0,0.0,0.0,0.0,0.0,0.0,0.0,0.0,0.0,0.0,0.0,0.0,0.0,0.0,0.0,0.0,0.0,0.0,0.0,0.0,0.0,0.0,0.0,0.0,0.0,0.0,0.0,0.0,0.0,0.0,0.0,0.0,0.0,0.0,0.0,0.0,0.0,0.0,0.0,0.0,0.0,0.0,0.0,0.0,0.0,0.0,0.0,0.0,0.0,0.0,0.0,0.0,0.0,0.0,0.0,0.0,0.0,0.0,0.0,0.0,0.0,0.0,0.0,0.0,0.0,0.0,0.0,0.0,0.0,0.0,0.0,0.0,0.0,0.0,0.0,0.0,0.0,0.0,0.0,0.0,0.0,0.0,0.0,0.0,0.0,0.0,0.0,0.0,0.0,0.0,0.0,0.0,0.0,0.0,0.0,0.0,0.0,0.0,0.0,0.0,0.0,0.0,0.0,0.0,0.0,0.0,0.0,0.0,0.0,0.0,0.0,0.0,0.0,0.0,0.0,0.0,0.0,0.0,0.0,0.0,0.0,0.0,0.0,0.0,0.0,0.0,0.0,0.0,0.0,0.0,0.0,0.0,0.0,0.0,0.0,0.0,0.0,0.0,0.0,0.0,0.0,0.0,0.0,0.0,0.0,0.0,0.0,0.0,0.0,0.0,0.0,0.0,0.0,0.0,0.0,0.0,0.0,0.0,0.0,0.0,0.0,0.0,0.0,0.0,0.0,0.0,0.0,0.0,0.0,0.0,0.0,0.0,0.0,0.0,0.0,0.0,0.0,0.0,0.0,0.0,0.0,0.0,0.0,0.0,0.0,0.0,0.0,0.0,0.0,0.0,0.0,0.0,0.0,0.0,0.0,0.0,0.0,0.0,0.0,0.0,0.0,0.0,0.0,0.0,0.0,0.0,0.0,0.0,0.0,0.0,0.0,0.0,0.0,0.0,0.0,0.0,0.0,0.0,0.0,0.0,0.0,0.0,0.0,0.0,0.0,0.0,0.0,0.0,0.0,0.0,0.0,0.0,0.0,0.0,0.0,0.0,0.0,0.0,0.0,0.0,0.0,0.0,0.0,0.0,0.0,0.0,0.0,0.0,0.0,0.0,0.0,0.0,0.0,0.0,0.0,0.0,0.0,0.0,0.0,0.0,0.0,0.0,0.0,0.0,0.0,0.0,0.0,0.0,0.0,0.0,0.0,0.0,0.0,0.0,0.0,0.0,0.0,0.0,0.0,0.0,0.0,0.0,0.0,0.0,0.0,0.0,0.0,0.0,0.0,0.0,0.0,0.0,0.0,0.0,0.0,0.0,0.0,0.0,0.0,0.0,0.0,0.0,0.0,0.0,0.0,0.0,0.0,0.0,0.0,0.0,0.0,0.0,0.0,0.0,0.0,0.0,0.0,0.0,0.0,0.0,0.0,0.0,0.0,0.0,0.0,0.0,0.0,0.0,0.0,0.0,0.0,0.0,0.0,0.0,0.0,0.0,0.0,0.0,0.0,0.0,0.0,0.0,0.0,0.0,0.0,0.0,0.0,0.0,0.0,0.0,0.0,0.0,0.0,0.0,0.0,0.0,0.0,0.0,0.0,0.0,0.0,0.0,0.0,0.0,0.0,0.0,0.0,0.0,0.0,0.0,0.0,0.0,0.0,0.0,0.0,0.0,0.0,0.0,0.0,0.0,0.0,0.0,0.0,0.0,0.0,0.0,0.0,0.0,0.0,0.0,0.0,0.0,0.0,0.0,0.0,0.0,0.0,0.0,0.0,0.0,0.0,0.0,0.0,0.0,0.0,0.0,0.0,0.0,0.0,0.0,0.0,0.0,0.0,0.0,0.0,0.0,0.0,0.0,0.0,0.0,0.0,0.0,0.0,0.0,0.0,0.0,0.0,0.0,0.0,0.0,0.0,0.0,0.0,0.0,0.0,0.0,0.0,0.0,0.0,0.0,0.0,0.0,0.0,0.0,0.0,0.0,0.0,0.0,0.0,0.0,0.0,0.0,0.0,0.0,0.0,0.0,0.0,0.0,0.0,0.0,0.0,0.0,0.0,0.0,0.0,0.0,0.0,0.0,0.0,0.0,0.0,0.0,0.0,0.0,0.0,0.0,0.0,0.0,0.0,0.0,0.0,0.0,0.0,0.0,0.0,0.0,0.0,0.0,0.0,0.0,0.0,0.0,0.0,0.0,0.0,0.0,0.0,0.0,0.0,0.0,0.0,0.0,0.0,0.0,0.0,0.0,0.0,0.0,0.0,0.0,0.0,0.0,0.0,0.0,0.0,0.0,0.0,0.0,0.0,0.0,0.0,0.0,0.0,0.0,0.0,0.0,0.0,0.0,0.0,0.0,0.0,0.0,0.0,0.0,0.0,0.0,0.0,0.0,0.0,0.0,0.0,0.0,0.0,0.0,0.0,0.0,0.0,0.0,0.0,0.0,0.0,0.0,0.0,0.0,0.0,0.0,0.0,0.0,0.0,0.0,0.0,0.0,0.0,0.0,0.0,0.0,0.0,0.0,0.0,0.0,0.0,0.0,0.0,0.0,0.0,0.0,0.0,0.0,0.0,0.0,0.0,0.0,0.0,0.0,0.0,0.0,0.0,0.0,0.0,0.0,0.0,0.0,0.0,0.0,0.0,0.0,0.0,0.0,0.0,0.0,0.0,0.0,0.0,0.0,0.0,0.0,0.0,0.0,0.0,0.0,0.0,0.0,0.0,0.0,0.0,0.0,0.0,0.0,0.0,0.0,0.0,0.0,0.0,0.0,0.0,0.0,0.0,0.0,0.0,0.0,0.0,0.0,0.0,0.0,0.0,0.0,0.0,0.0,0.0,0.0,0.0,0.0,0.0,0.0,0.0,0.0,0.0,0.0,0.0,0.0,0.0,0.0,0.0,0.0,0.0,0.0,0.0,0.0,0.0,0.0,0.0,0.0,0.0,0.0,0.0,0.0,0.0,0.0,0.0,0.0,0.0,0.0,0.0,0.0,0.0,0.0,0.0,0.0,0.0,0.0,0.0,0.0,0.0,0.0,0.0,0.0,0.0,0.0,0.0,-0.4597,0.0,0.0,0.0,0.0,0.0,0.0,0.0,0.0,0.0,0.0,0.0,0.0,0.0,0.0,0.0,0.0,0.0,0.0,0.0,0.0,0.0,0.0,0.0,0.0,0.0,0.0,0.0,0.0,0.0,0.0,0.0,0.0,0.0,0.0,0.0,0.0,0.0,0.0,0.0,0.0,0.0,0.0,0.0,0.0,0.0,0.0,0.0,0.0,0.0,0.0,0.0,0.0,0.0,0.0,0.0,0.0,0.0,0.0,0.0,0.0,0.0,0.0,0.0,0.0,0.0,0.0,0.0,0.0,0.0,0.0,0.0,0.0,0.0,0.0,0.0,0.0,0.0,0.0,0.0,0.0,0.0,0.0,0.0,0.0,0.0,0.0,0.0,0.0,0.0,0.0,0.0,0.0,0.0,0.0,0.0,0.0,0.0,0.0,0.0,0.0,0.0,0.0,0.0,0.0,0.0,0.0,0.0,0.0,0.0,0.0,-0.978,-1.0721,-0.7818,-0.556,-0.4144,0.0,0.0,0.0,0.0,0.0,0.0,0.0,0.0,0.0,0.0,0.0,0.0,0.0,0.0,0.0,0.0,0.0,0.0,0.0,0.0,0.0,0.0,0.0,0.0,0.0,0.0,0.0,0.0,0.0,0.0,0.0,0.0,0.0,0.0,0.0,0.0,0.0,0.0,0.0,0.0,0.0,0.0,0.0,0.0,0.0,0.0,0.0,0.0,0.0,0.0,0.0,0.0,0.0,0.0,0.0,0.0,0.0,0.0,0.0,0.0,0.0,0.0,0.0,0.0,0.0,0.0,0.0,0.0,0.0,0.0,0.0,0.0,0.0,0.0,0.0,0.0,0.0,0.0,0.0,0.0,0.0,0.0,0.0,0.0,0.0,0.0,0.0,0.0,0.0,0.0,0.0,0.0,0.0,0.0,0.0,0.0,0.0,0.0,0.0,0.0,0.0,0.0,0.0,0.0,0.0,0.0,0.0,0.0,0.0,0.0,0.0,0.0,-0.7808,-0.5309,-0.3327,0.0,0.0,0.0,0.0,0.0,0.0,0.0,0.0,0.0,0.0,0.0,0.0,0.0,0.0,0.0,0.0,0.0,0.0,0.0,0.0,0.0,0.0,0.0,0.0,0.0,0.0,0.0,0.0,0.0,0.0,0.0,0.0,0.0,0.0,0.0,0.0,0.0,0.0,0.0,0.0,0.0,0.0,0.0,0.0,0.0,0.0,0.0,0.0,0.0,0.0,0.0,0.0,0.0,0.0,0.0,0.0,0.0,0.0,0.0,0.0,0.0,0.0,0.0,0.0,0.0,0.0,0.0,0.0,0.0,0.0,0.0,0.0,0.0,0.0,0.0,0.0,0.0,0.0,0.0,0.0,0.0,0.0,0.0,0.0,0.0,0.0,0.0,0.0,0.0,0.0,0.0,0.0,0.0,0.0,0.0,0.0,0.0,0.0,0.0,0.0,0.0,0.0,0.0,0.0,0.0,0.0,0.0,0.0,0.0,0.0,-1.1563,-1.2129,-0.8344,0.0,-0.2174,0.0,0.0,0.0,0.0,0.0,0.0,0.0,0.0,0.0,0.0,0.0,0.0,0.0,0.0,0.0,0.0,0.0,0.0,0.0,0.0,0.0,0.0,0.0,0.0,0.0,0.0,0.0,0.0,0.0,0.0,0.0,0.0,0.0,0.0,0.0,0.0,0.0,0.0,0.0,0.0,0.0,0.0,0.0,0.0,0.0,0.0,0.0,0.0,0.0,0.0,0.0,0.0,0.0,0.0,0.0,0.0,0.0,0.0,0.0,0.0,0.0,0.0,0.0,0.0,0.0,0.0,0.0,0.0,0.0,0.0,0.0,0.0,0.0,0.0,0.0,0.0,0.0,0.0,0.0,0.0,0.0,0.0,0.0,0.0,0.0,0.0,0.0,0.0,0.0,0.0,0.0,0.0,0.0,0.0,0.0,0.0,0.0,0.0,0.0,0.0,0.0,0.0,0.0,0.0,0.0,0.0,0.0,0.0,0.0,0.0,-1.0867,-1.1322,-0.676,-0.3331,0.0,0.0,0.0,0.0,0.0,0.0,0.0,0.0,0.0,0.0,0.0,0.0,0.0,0.0,0.0,0.0,0.0,0.0,0.0,0.0,0.0,0.0,0.0,0.0,0.0,0.0,0.0,0.0,0.0,0.0,0.0,0.0,0.0,0.0,0.0,0.0,0.0,0.0,0.0,0.0,0.0,0.0,0.0,0.0,0.0,0.0,0.0,0.0,0.0,0.0,0.0,0.0,0.0,0.0,0.0,0.0,0.0,0.0,0.0,0.0,0.0,0.0,0.0,0.0,0.0,0.0,0.0,0.0,0.0,0.0,0.0,0.0,0.0,0.0,0.0,0.0,0.0,0.0,0.0,0.0,0.0,0.0,0.0,0.0,0.0,0.0,0.0,0.0,0.0,0.0,0.0,0.0,0.0,0.0,0.0,0.0,0.0,0.0,0.0,0.0,0.0,0.0,0.0,0.0,0.0,0.0,0.0,0.0,0.0,0.0,-1.1527,-1.018,-0.9067,-0.5288,-0.2529,-0.1215,0.0,0.0,0.0,0.0,0.0,0.0,0.0,0.0,0.0,0.0,0.0,0.0,0.0,0.0,0.0,0.0,0.0,0.0,0.0,0.0,0.0,0.0,0.0,0.0,0.0,0.0,0.0,0.0,0.0,0.0,0.0,0.0,0.0,0.0,0.0,0.0,0.0,0.0,0.0,0.0,0.0,0.0,0.0,0.0,0.0,0.0,0.0,0.0,0.0,0.0,0.0,0.0,0.0,0.0,0.0,0.0,0.0,0.0,0.0,0.0,0.0,0.0,0.0,0.0,0.0,0.0,0.0,0.0,0.0,0.0,0.0,0.0,0.0,0.0,0.0,0.0,0.0,0.0,0.0,0.0,0.0,0.0,0.0,0.0,0.0,0.0,0.0,0.0,0.0,0.0,0.0,0.0,0.0,0.0,0.0,0.0,0.0,0.0,0.0,0.0,0.0,0.0,0.0,0.0,0.0,0.0,0.0,0.0,-1.508,-1.3036,-0.9954,-0.5836,-0.4387,-0.3155,0.0,0.0,0.0,0.0,0.0,0.0,0.0,0.0,0.0,0.0,0.0,0.0,0.0,0.0,0.0,0.0,0.0,0.0,0.0,0.0,0.0,0.0,0.0,0.0,0.0,0.0,0.0,0.0,0.0,0.0,0.0,0.0,0.0,0.0,0.0,0.0,0.0,0.0,0.0,0.0,0.0,0.0,0.0,0.0,0.0,0.0,0.0,0.0,0.0,0.0,0.0,0.0,0.0,0.0,0.0,0.0,0.0,0.0,0.0,0.0,0.0,0.0,0.0,0.0,0.0,0.0,0.0,0.0,0.0,0.0,0.0,0.0,0.0,0.0,0.0,0.0,0.0,0.0,0.0,0.0,0.0,0.0,0.0,0.0,0.0,0.0,0.0,0.0,0.0,0.0,0.0,0.0,0.0,0.0,0.0,0.0,0.0,0.0,0.0,0.0,0.0,0.0,0.0,0.0,0.0,0.0,0.0,0.0,0.0,-1.2553,-1.0708,-0.8091,-0.4812,-0.4069,-0.3342,0.0,0.0,0.0,0.0,0.0,0.0,0.0,0.0,0.0,0.0,0.0,0.0,0.0,0.0,0.0,0.0,0.0,0.0,0.0,0.0,0.0,0.0,0.0,0.0,0.0,0.0,0.0,0.0,0.0,0.0,0.0,0.0,0.0,0.0,0.0,0.0,0.0,0.0,0.0,0.0,0.0,0.0,0.0,0.0,0.0,0.0,0.0,0.0,0.0,0.0,0.0,0.0,0.0,0.0,0.0,0.0,0.0,0.0,0.0,0.0,0.0,0.0,0.0,0.0,0.0,0.0,0.0,0.0,0.0,0.0,0.0,0.0,0.0,0.0,0.0,0.0,0.0,0.0,0.0,0.0,0.0,0.0,0.0,0.0,0.0,0.0,0.0,0.0,0.0,0.0,0.0,0.0,0.0,0.0,0.0,0.0,0.0,0.0,0.0,0.0,0.0,0.0,0.0,0.0,0.0,0.0,0.0,0.0,0.0,-1.1554,0.0,-0.8402,-0.6054,-0.4842,-0.3897,0.0,0.0,0.0,0.0,0.0,0.0,0.0,0.0,0.0,0.0,0.0,0.0,0.0,0.0,0.0,0.0,0.0,0.0,0.0,0.0,0.0,0.0,0.0,0.0,0.0,0.0,0.0,0.0,0.0,0.0,0.0,0.0,0.0,0.0,0.0,0.0,0.0,0.0,0.0,0.0,0.0,0.0,0.0,0.0,0.0,0.0,0.0,0.0,0.0,0.0,0.0,0.0,0.0,0.0,0.0,0.0,0.0,0.0,0.0,0.0,0.0,0.0,0.0,0.0,0.0,0.0,0.0,0.0,0.0,0.0,0.0,0.0,0.0,0.0,0.0,0.0,0.0,0.0,0.0,0.0,0.0,0.0,0.0,0.0,0.0,0.0,0.0,0.0,0.0,0.0,0.0,0.0,0.0,0.0,0.0,0.0,0.0,0.0,0.0,0.0,0.0,0.0,0.0,0.0,0.0,0.0,0.0,0.0,-1.3667,-1.2536,-1.2,-1.0929,-0.957,-0.6675,-0.4794,0.0,0.0,0.0,0.0,0.0,0.0,0.0,0.0,0.0,0.0,0.0,0.0,0.0,0.0,0.0,0.0,0.0,0.0,0.0,0.0,0.0,0.0,0.0,0.0,0.0,0.0,0.0,0.0,0.0,0.0,0.0,0.0,0.0,0.0,0.0,0.0,0.0,0.0,0.0,0.0,0.0,0.0,0.0,0.0,0.0,0.0,0.0,0.0,0.0,0.0,0.0,0.0,0.0,0.0,0.0,0.0,0.0,0.0,0.0,0.0,0.0,0.0,0.0,0.0,0.0,0.0,0.0,0.0,0.0,0.0,0.0,0.0,0.0,0.0,0.0,0.0,0.0,0.0,0.0,0.0,0.0,0.0,0.0,0.0,0.0,0.0,0.0,0.0,0.0,0.0,0.0,0.0,0.0,0.0,0.0,0.0,0.0,0.0,0.0,0.0,0.0,0.0,0.0,0.0,0.0,0.0,0.0,0.0,0.0,-0.9659,-1.0288,-1.0467,-1.0013,-0.6997,-0.5603,0.0,0.0,0.0,0.0,0.0,0.0,0.0,0.0,0.0,0.0,0.0,0.0,0.0,0.0,0.0,0.0,0.0,0.0,0.0,0.0,0.0,0.0,0.0,0.0,0.0,0.0,0.0,0.0,0.0,0.0,0.0,0.0,0.0,0.0,0.0,0.0,0.0,0.0,0.0,0.0,0.0,0.0,0.0,0.0,0.0,0.0,0.0,0.0,0.0,0.0,0.0,0.0,0.0,0.0,0.0,0.0,0.0,0.0,0.0,0.0,0.0,0.0,0.0,0.0,0.0,0.0,0.0,0.0,0.0,0.0,0.0,0.0,0.0,0.0,0.0,0.0,0.0,0.0,0.0,0.0,0.0,0.0,0.0,0.0,0.0,0.0,0.0,0.0,0.0,0.0,0.0,0.0,0.0,0.0,0.0,0.0,0.0,0.0,0.0,0.0,0.0,0.0,0.0,0.0,0.0,0.0,0.0,0.0,0.0,-0.9768,-1.0821,-1.1308,-1.1038,-0.8157,-0.653,-0.6342,0.0,0.0,0.0,0.0,0.0,0.0,0.0,0.0,0.0,0.0,0.0,0.0,0.0,0.0,0.0,0.0,0.0,0.0,0.0,0.0,0.0,0.0,0.0,0.0,0.0,0.0,0.0,0.0,0.0,0.0,0.0,0.0,0.0,0.0,0.0,0.0,0.0,0.0,0.0,0.0,0.0,0.0,0.0,0.0,0.0,0.0,0.0,0.0,0.0,0.0,0.0,0.0,0.0,0.0,0.0,0.0,0.0,0.0,0.0,0.0,0.0,0.0,0.0,0.0,0.0,0.0,0.0,0.0,0.0,0.0,0.0,0.0,0.0,0.0,0.0,0.0,0.0,0.0,0.0,0.0,0.0,0.0,0.0,0.0,0.0,0.0,0.0,0.0,0.0,0.0,0.0,0.0,0.0,0.0,0.0,0.0,0.0,0.0,0.0,0.0,0.0,0.0,0.0,0.0,0.0,0.0,0.0,0.0,-1.2082,-1.3145,-1.3256,-1.2405,-0.9879,-0.757,0.0,0.0,0.0,0.0,0.0,0.0,0.0,0.0,0.0,0.0,0.0,0.0,0.0,0.0,0.0,0.0,0.0,0.0,0.0,0.0,0.0,0.0,0.0,0.0,0.0,0.0,0.0,0.0,0.0,0.0,0.0,0.0,0.0,0.0,0.0,0.0,0.0,0.0,0.0,0.0,0.0,0.0,0.0,0.0,0.0,0.0,0.0,0.0,0.0,0.0,0.0,0.0,0.0,0.0,0.0,0.0,0.0,0.0,0.0,0.0,0.0,0.0,0.0,0.0,0.0,0.0,0.0,0.0,0.0,0.0,0.0,0.0,0.0,0.0,0.0,0.0,0.0,0.0,0.0,0.0,0.0,0.0,0.0,0.0,0.0,0.0,0.0,0.0,0.0,0.0,0.0,0.0,0.0,0.0,0.0,0.0,0.0,0.0,0.0,0.0,0.0,0.0,0.0,0.0,0.0,0.0,0.0,0.0,0.0,-1.2118,-1.3042,-1.3612,-1.3683,-1.0077,-0.8538,0.0,0.0,0.0,0.0,0.0,0.0,0.0,0.0,0.0,0.0,0.0,0.0,0.0,0.0,0.0,0.0,0.0,0.0,0.0,0.0,0.0,0.0,0.0,0.0,0.0,0.0,0.0,0.0,0.0,0.0,0.0,0.0,0.0,0.0,0.0,0.0,0.0,0.0,0.0,0.0,0.0,0.0,0.0,0.0,0.0,0.0,0.0,0.0,0.0,0.0,0.0,0.0,0.0,0.0,0.0,0.0,0.0,0.0,0.0,0.0,0.0,0.0,0.0,0.0,0.0,0.0,0.0,0.0,0.0,0.0,0.0,0.0,0.0,0.0,0.0,0.0,0.0,0.0,0.0,0.0,0.0,0.0,0.0,0.0,0.0,0.0,0.0,0.0,0.0,0.0,0.0,0.0,0.0,0.0,0.0,0.0,0.0,0.0,0.0,0.0,0.0,0.0,0.0,0.0,0.0,0.0,0.0,0.0,-1.1712,-1.2856,-1.3179,-1.3533,-1.3919,-1.0665,-0.8873,0.0,0.0,0.0,0.0,0.0,0.0,0.0,0.0,0.0,0.0,0.0,0.0,0.0,0.0,0.0,0.0,0.0,0.0,0.0,0.0,0.0,0.0,0.0,0.0,0.0,0.0,0.0,0.0,0.0,0.0,0.0,0.0,0.0,0.0,0.0,0.0,0.0,0.0,0.0,0.0,0.0,0.0,0.0,0.0,0.0,0.0,0.0,0.0,0.0,0.0,0.0,0.0,0.0,0.0,0.0,0.0,0.0,0.0,0.0,0.0,0.0,0.0,0.0,0.0,0.0,0.0,0.0,0.0,0.0,0.0,0.0,0.0,0.0,0.0,0.0,0.0,0.0,0.0,0.0,0.0,0.0,0.0,0.0,0.0,0.0,0.0,0.0,0.0,0.0,0.0,0.0,0.0,0.0,0.0,0.0,0.0,0.0,0.0,0.0,0.0,0.0,0.0,0.0,0.0,0.0,0.0,0.0,0.0,-1.1577,-1.3859,-1.338,-1.3158,-1.3224,-1.1187,-0.8803,0.0,0.0,0.0,0.0,0.0,0.0,0.0,0.0,0.0,0.0,0.0,0.0,0.0,0.0,0.0,0.0,0.0,0.0,0.0,0.0,0.0,0.0,0.0,0.0,0.0,0.0,0.0,0.0,0.0,0.0,0.0,0.0,0.0,0.0,0.0,0.0,0.0,0.0,0.0,0.0,0.0,0.0,0.0,0.0,0.0,0.0,0.0,0.0,0.0,0.0,0.0,0.0,0.0,0.0,0.0,0.0,0.0,0.0,0.0,0.0,0.0,0.0,0.0,0.0,0.0,0.0,0.0,0.0,0.0,0.0,0.0,0.0,0.0,0.0,0.0,0.0,0.0,0.0,0.0,0.0,0.0,0.0,0.0,0.0,0.0,0.0,0.0,0.0,0.0,0.0,0.0,0.0,0.0,0.0,0.0,0.0,0.0,0.0,0.0,0.0,0.0,0.0,0.0,0.0,0.0,0.0,0.0,0.0,-1.2086,-1.3308,-1.3151,-1.2856,-1.254,-0.9799,-0.7825,0.0,0.0,0.0,0.0,0.0,0.0,0.0,0.0,0.0,0.0,0.0,0.0,0.0,0.0,0.0,0.0,0.0,0.0,0.0,0.0,0.0,0.0,0.0,0.0,0.0,0.0,0.0,0.0,0.0,0.0,0.0,0.0,0.0,0.0,0.0,0.0,0.0,0.0,0.0,0.0,0.0,0.0,0.0,0.0,0.0,0.0,0.0,0.0,-0.8801,0.0,0.0,0.0,0.0,0.0,0.0,0.0,0.0,0.0,0.0,0.0,0.0,0.0,0.0,0.0,0.0,0.0,0.0,0.0,0.0,0.0,0.0,0.0,0.0,0.0,0.0,0.0,0.0,0.0,0.0,0.0,0.0,0.0,0.0,0.0,0.0,0.0,0.0,0.0,0.0,0.0,0.0,0.0,0.0,0.0,0.0,0.0,0.0,0.0,0.0,0.0,0.0,0.0,0.0,0.0,0.0,0.0,0.0,0.0,-1.2559,-1.3122,-1.2959,-1.2652,-1.2141,-0.979,-0.7784,0.0,0.0,0.0,0.0,0.0,0.0,0.0,0.0,0.0,0.0,0.0,0.0,0.0,0.0,0.0,0.0,0.0,0.0,0.0,0.0,0.0,0.0,0.0,0.0,0.0,0.0,0.0,0.0,0.0,0.0,0.0,0.0,0.0,0.0,0.0,0.0,0.0,0.0,0.0,0.0,0.0,0.0,0.0,0.0,0.0,0.0,0.0,0.0,0.0,0.0,0.0,0.0,0.0,0.0,0.0,0.0,0.0,0.0,0.0,0.0,0.0,0.0,0.0,0.0,0.0,0.0,0.0,0.0,0.0,0.0,0.0,0.0,0.0,0.0,0.0,0.0,0.0,0.0,0.0,0.0,0.0,0.0,0.0,0.0,0.0,0.0,0.0,0.0,0.0,0.0,0.0,0.0,0.0,0.0,0.0,0.0,0.0,0.0,0.0,0.0,0.0,0.0,0.0,0.0,0.0,0.0,0.0,-1.1696,-1.251,-1.2753,-1.2538,-1.2194,-1.1704,-0.9862,-0.7845,-0.5676,0.0,0.0,0.0,0.0,0.0,0.0,0.0,0.0,0.0,0.0,0.0,0.0,0.0,0.0,0.0,0.0,0.0,0.0,0.0,0.0,0.0,0.0,0.0,0.0,0.0,0.0,0.0,0.0,0.0,0.0,0.0,0.0,0.0,0.0,0.0,0.0,0.0,0.0,-0.9676,-0.98,0.0,0.0,0.0,0.0,0.0,0.0,0.0,0.0,-0.8608,0.0,0.0,0.0,0.0,0.0,0.0,0.0,0.0,0.0,0.0,0.0,0.0,0.0,0.0,0.0,0.0,0.0,0.0,0.0,0.0,0.0,0.0,0.0,0.0,0.0,0.0,0.0,0.0,0.0,0.0,0.0,0.0,0.0,0.0,0.0,0.0,0.0,0.0,0.0,0.0,0.0,0.0,0.0,0.0,0.0,0.0,0.0,0.0,0.0,0.0,0.0,0.0,0.0,0.0,0.0,0.0,-1.2174,-1.1119,-1.0784,-1.1253,-1.1258,-1.0851,-0.9933,-0.8309,-0.6775,-0.5262,0.0,0.0,0.0,0.0,0.0,0.0,0.0,0.0,0.0,0.0,0.0,0.0,0.0,0.0,0.0,0.0,0.0,0.0,0.0,0.0,0.0,0.0,0.0,0.0,0.0,0.0,0.0,0.0,0.0,0.0,0.0,0.0,0.0,0.0,0.0,0.0,0.0,0.0,0.0,-0.9877,-0.9877,0.0,0.0,0.0,0.0,0.0,0.0,0.0,0.0,-0.8646,0.0,0.0,0.0,0.0,0.0,0.0,0.0,0.0,0.0,0.0,0.0,0.0,0.0,0.0,0.0,0.0,0.0,0.0,0.0,0.0,0.0,0.0,0.0,0.0,0.0,0.0,0.0,0.0,0.0,0.0,0.0,0.0,0.0,0.0,0.0,0.0,0.0,0.0,0.0,0.0,0.0,0.0,0.0,0.0,0.0,0.0,0.0,0.0,0.0,0.0,0.0,0.0,0.0,0.0,0.0,-1.041,-1.0034,-0.9819,-0.9952,-1.0131,-0.9841,-0.9049,-0.8273,-0.7098,0.0,0.0,0.0,0.0,0.0,0.0,0.0,0.0,0.0,0.0,0.0,0.0,0.0,0.0,0.0,0.0,0.0,0.0,0.0,0.0,0.0,0.0,0.0,0.0,0.0,0.0,0.0,0.0,0.0,0.0,0.0,0.0,0.0,0.0,0.0,0.0,0.0,0.0,0.0,0.0,-0.9701,-0.9706,-0.9472,0.0,0.0,0.0,0.0,0.0,0.0,-0.9261,-0.8917,0.0,0.0,0.0,0.0,0.0,0.0,0.0,0.0,0.0,0.0,0.0,0.0,0.0,0.0,0.0,0.0,0.0,0.0,0.0,0.0,0.0,0.0,0.0,0.0,0.0,0.0,0.0,0.0,0.0,0.0,0.0,0.0,0.0,0.0,0.0,0.0,0.0,0.0,0.0,0.0,0.0,0.0,0.0,0.0,0.0,0.0,0.0,0.0,0.0,0.0,0.0,0.0,0.0,0.0,0.0,-0.8533,-0.8826,-0.8924,-0.8789,-0.8963,-0.8717,-0.8067,-0.7984,-0.7083,0.0,0.0,0.0,0.0,0.0,0.0,0.0,0.0,0.0,0.0,0.0,0.0,0.0,0.0,0.0,0.0,0.0,0.0,0.0,0.0,0.0,0.0,0.0,0.0,0.0,0.0,0.0,0.0,0.0,0.0,0.0,0.0,0.0,0.0,0.0,0.0,0.0,0.0,0.0,0.0,0.0,-0.967,-0.9349,-0.9194,0.0,0.0,0.0,0.0,-0.9925,-0.9506,0.0,0.0,0.0,0.0,0.0,0.0,0.0,0.0,0.0,0.0,0.0,0.0,0.0,0.0,0.0,0.0,0.0,0.0,0.0,0.0,0.0,0.0,0.0,0.0,0.0,0.0,0.0,0.0,0.0,0.0,0.0,0.0,0.0,0.0,0.0,0.0,0.0,0.0,0.0,0.0,0.0,0.0,0.0,0.0,0.0,0.0,0.0,0.0,0.0,0.0,0.0,0.0,0.0,0.0,0.0,0.0,-0.834,-0.7843,-0.7592,-0.7675,-0.756,-0.705,-0.6147,-0.5888,-0.5197,0.0,0.0,0.0,0.0,0.0,0.0,0.0,0.0,0.0,0.0,0.0,0.0,0.0,0.0,0.0,0.0,0.0,0.0,0.0,0.0,0.0,0.0,0.0,0.0,0.0,0.0,0.0,0.0,0.0,0.0,0.0,0.0,0.0,0.0,0.0,0.0,0.0,0.0,0.0,0.0,0.0,-1.0194,-0.9403,-0.9179,-0.9117,0.0,0.0,-0.8963,-0.9128,-0.9179,0.0,0.0,0.0,0.0,0.0,0.0,0.0,0.0,0.0,0.0,0.0,0.0,0.0,0.0,0.0,0.0,0.0,0.0,0.0,0.0,0.0,0.0,0.0,0.0,0.0,0.0,0.0,0.0,0.0,0.0,0.0,0.0,0.0,0.0,0.0,0.0,0.0,0.0,0.0,0.0,0.0,0.0,0.0,0.0,0.0,0.0,0.0,0.0,0.0,0.0,0.0,0.0,0.0,0.0,0.0,-0.6278,-0.7855,-0.7296,-0.6773,-0.6427,-0.609,-0.5567,-0.4855,-0.437,-0.3541,0.0,0.0,0.0,0.0,0.0,0.0,0.0,0.0,0.0,0.0,0.0,0.0,0.0,0.0,0.0,0.0,0.0,0.0,0.0,0.0,0.0,0.0,0.0,0.0,0.0,0.0,0.0,0.0,0.0,0.0,0.0,0.0,0.0,0.0,0.0,0.0,0.0,0.0,0.0,0.0,0.0,0.0,-0.9071,-0.9034,0.0,0.0,0.0,-0.8961,-0.9002,0.0,0.0,0.0,0.0,0.0,0.0,0.0,0.0,0.0,0.0,0.0,0.0,0.0,0.0,0.0,0.0,0.0,0.0,0.0,0.0,0.0,0.0,0.0,0.0,0.0,0.0,0.0,0.0,0.0,0.0,0.0,0.0,0.0,0.0,0.0,0.0,0.0,0.0,0.0,0.0,0.0,0.0,0.0,0.0,0.0,0.0,0.0,0.0,0.0,0.0,0.0,0.0,0.0,0.0,0.0,0.0,0.0,-0.7867,-0.7048,-0.6229,-0.5399,-0.4801,-0.4158,-0.3458,-0.2912,0.0,0.0,0.0,0.0,0.0,0.0,0.0,0.0,0.0,0.0,0.0,0.0,0.0,0.0,0.0,0.0,0.0,0.0,0.0,0.0,0.0,0.0,0.0,0.0,0.0,0.0,0.0,-0.7521,0.0,0.0,0.0,0.0,0.0,0.0,0.0,0.0,0.0,0.0,0.0,0.0,0.0,0.0,-0.8816,-0.8566,-0.8744,-0.8974,0.0,0.0,-0.85,-0.8417,-0.8021,-0.7726,0.0,0.0,0.0,0.0,0.0,0.0,0.0,0.0,0.0,0.0,0.0,0.0,0.0,0.0,0.0,0.0,0.0,0.0,0.0,0.0,0.0,0.0,0.0,0.0,0.0,0.0,0.0,0.0,0.0,0.0,0.0,0.0,0.0,0.0,0.0,0.0,0.0,0.0,0.0,0.0,0.0,0.0,0.0,0.0,0.0,0.0,0.0,0.0,0.0,0.0,0.0,0.0,0.0,0.0,-0.6431,-0.8665,-0.7239,-0.5855,-0.4791,-0.3851,-0.2859,-0.1721,-0.1379,-0.0207,0.0,0.0,0.0,0.0,0.0,0.0,0.0,0.0,0.0,0.0,0.0,0.0,0.0,0.0,0.0,0.0,0.0,0.0,0.0,0.0,0.0,0.0,0.0,0.0,0.0,0.0,0.0,0.0,0.0,0.0,0.0,0.0,0.0,0.0,0.0,0.0,0.0,0.0,0.0,0.0,0.0,-0.9094,-0.7922,-0.8319,-0.8268,0.0,-0.7039,-0.7148,-0.6903,-0.6874,-0.7165,-0.8023,0.0,0.0,0.0,0.0,0.0,0.0,0.0,0.0,0.0,0.0,0.0,0.0,0.0,0.0,0.0,0.0,0.0,0.0,0.0,0.0,0.0,0.0,0.0,0.0,0.0,0.0,0.0,0.0,0.0,0.0,0.0,0.0,0.0,0.0,0.0,0.0,0.0,0.0,0.0,0.0,0.0,0.0,0.0,0.0,0.0,0.0,0.0,0.0,0.0,0.0,0.0,0.0,0.0,-0.52,-0.6232,-0.6143,-0.5415,-0.3976,-0.2807,-0.161,-0.0413,0.008,0.116,0.0,0.0,0.0,0.0,0.0,0.0,0.0,0.0,0.0,0.0,0.0,0.0,0.0,0.0,0.0,0.0,0.0,0.0,0.0,0.0,0.0,0.0,0.0,0.0,0.0,0.0,0.0,0.0,-0.6692,-0.6401,-0.6774,0.0,0.0,0.0,0.0,0.0,0.0,0.0,0.0,0.0,0.0,-0.7955,-0.7502,-0.7424,0.0,0.0,-0.6728,-0.6694,-0.6219,-0.6519,-0.7005,-0.7612,-0.7918,0.0,0.0,0.0,0.0,0.0,0.0,0.0,0.0,0.0,0.0,0.0,0.0,0.0,0.0,0.0,0.0,0.0,0.0,0.0,0.0,0.0,0.0,0.0,0.0,0.0,0.0,0.0,0.0,0.0,0.0,0.0,0.0,0.0,0.0,0.0,0.0,0.0,0.0,0.0,0.0,0.0,0.0,0.0,0.0,0.0,0.0,0.0,0.0,0.0,0.0,0.0,0.0,-0.4453,-0.5059,-0.545,-0.4802,-0.3058,-0.1737,-0.0445,0.0755,0.1404,0.2431,0.0,0.0,0.0,0.0,0.0,0.0,0.0,0.0,0.0,0.0,0.0,0.0,0.0,0.0,0.0,0.0,0.0,0.0,0.0,0.0,0.0,0.0,0.0,0.0,0.0,0.0,0.0,0.0,-0.67,-0.6523,-0.682,0.0,0.0,0.0,0.0,0.0,0.0,0.0,0.0,0.0,0.0,-0.6839,-0.6795,-0.6549,-0.6377,-0.6387,-0.6515,-0.6516,-0.6268,-0.64,-0.6718,-0.7269,0.0,0.0,0.0,0.0,0.0,0.0,0.0,0.0,0.0,0.0,0.0,0.0,0.0,0.0,0.0,0.0,0.0,0.0,0.0,0.0,0.0,0.0,0.0,0.0,0.0,0.0,0.0,-0.7983,0.0,0.0,-0.7869,0.0,0.0,0.0,0.0,0.0,0.0,0.0,0.0,0.0,0.0,0.0,0.0,0.0,0.0,0.0,0.0,0.0,0.0,0.0,0.0,0.0,0.0,-0.4498,-0.5976,-0.5327,-0.4056,-0.1981,-0.0671,0.0617,0.1916,0.2621,0.3679,0.5235,0.0,0.0,0.0,0.0,0.0,0.0,0.0,0.0,0.0,0.0,0.0,0.0,0.0,0.0,0.0,0.0,0.0,0.0,0.0,0.0,0.0,0.0,0.0,0.0,0.0,0.0,-0.7269,-0.7122,-0.7003,0.0,0.0,0.0,0.0,0.0,0.0,0.0,0.0,0.0,-0.6229,-0.6131,-0.5995,-0.5715,-0.5785,-0.5869,-0.6032,-0.6263,-0.6568,-0.706,-0.6466,-0.6227,0.0,0.0,0.0,0.0,0.0,0.0,0.0,0.0,0.0,0.0,0.0,0.0,0.0,0.0,0.0,0.0,0.0,0.0,0.0,0.0,0.0,0.0,0.0,0.0,0.0,0.0,0.0,-0.6103,-0.6365,0.0,0.0,0.0,0.0,0.0,0.0,0.0,0.0,0.0,0.0,0.0,-0.2048,-0.2041,0.0,0.0,0.0,0.0,0.0,0.0,0.0,0.0,0.0,0.0,0.0,0.0,-0.2588,-0.213,-0.3066,-0.2599,-0.0603,0.0847,0.2002,0.2847,0.3595,0.4841,0.6629,0.0,0.0,0.0,0.0,0.0,0.0,0.0,0.0,0.0,0.0,0.0,0.0,0.0,0.0,0.0,0.0,0.0,0.0,0.0,0.0,0.0,0.0,0.0,0.0,0.0,-0.7338,0.0,0.0,0.0,0.0,0.0,0.0,0.0,0.0,0.0,0.0,0.0,-0.7109,-0.6345,-0.607,-0.5907,-0.5753,-0.4359,-0.3672,0.0,0.0,0.0,0.0,0.0,0.0,0.0,0.0,0.0,0.0,0.0,0.0,0.0,0.0,-0.5079,-0.7109,-0.7643,-0.7809,-0.777,0.0,0.0,0.0,0.0,0.0,0.0,0.0,0.0,0.0,0.0,0.0,0.0,0.0,0.0,-0.4494,0.0,-0.4361,0.0,0.0,0.0,0.0,0.0,0.0,0.0,0.0,-0.1538,-0.1288,-0.0979,-0.1028,-0.0952,0.0,-0.0678,-0.0527,0.0,0.0,0.0,0.0,0.0,0.0,0.0,0.0,-0.0586,0.0765,-0.0841,-0.0888,0.0846,0.2191,0.3271,0.4047,0.4592,0.5671,0.7342,0.7418,0.8144,0.0,0.0,0.0,0.0,0.0,0.0,0.0,0.0,0.0,0.0,0.0,0.0,0.0,0.0,0.0,0.0,0.0,0.0,0.0,0.0,0.0,0.0,0.0,-0.6971,0.0,0.0,0.0,0.0,0.0,0.0,0.0,0.0,0.0,-0.6752,-0.679,-0.6499,-0.5653,-0.5427,-0.5222,-0.4865,0.0,0.0,0.0,0.0,0.0,0.0,0.0,-0.5615,-0.57,-0.5752,-0.5711,-0.5479,-0.5319,-0.5211,-0.5215,0.0,0.0,-0.6051,-0.6697,-0.6818,-0.6738,-0.623,-0.5828,-0.5864,-0.5137,-0.4552,0.0,0.0,0.0,0.0,0.0,0.0,0.0,0.0,-0.3057,-0.2707,0.0,-0.2359,0.0,0.0,0.0,0.0,-0.1328,-0.0911,0.0,0.0,-0.0494,-0.0441,-0.0211,-0.0308,-0.016,0.0196,0.0155,0.0206,0.0366,0.0755,0.0,0.0,0.0,0.0,0.0,0.0,0.1347,0.2511,0.108,0.1002,0.2432,0.3393,0.4412,0.5495,0.5584,0.617,0.7292,0.671,0.7098,0.8781,0.8212,0.0,0.0,0.0,0.0,0.0,0.0,0.0,0.0,0.0,0.0,0.0,0.0,0.0,0.0,0.0,0.0,0.0,0.0,0.0,0.0,-0.6897,0.0,0.0,0.0,0.0,0.0,0.0,0.0,0.0,0.0,0.0,-0.6134,-0.5741,-0.5111,-0.427,0.0,0.0,0.0,0.0,-0.365,-0.575,-0.5973,-0.6079,-0.6827,-0.5802,-0.4921,-0.5032,0.0,0.0,-0.3666,-0.3207,-0.2985,-0.351,-0.3102,-0.3111,-0.4224,-0.4565,-0.4551,-0.4417,-0.443,-0.4317,-0.4101,-0.3574,-0.2997,-0.1248,0.0,0.0,0.0,0.0,-0.1386,-0.1519,-0.1968,-0.1476,-0.1187,-0.1024,-0.0912,0.0,0.0,0.0,0.0,0.0,0.0,0.0192,0.0469,0.0228,0.016,0.0224,0.0294,0.0447,0.07,0.0859,0.1044,0.125,0.1733,0.2112,0.2349,0.0,0.0,0.0,0.0,0.2054,0.3267,0.264,0.2782,0.382,0.4857,0.582,0.6761,0.6103,0.6246,0.7337,0.6696,0.6857,0.7968,0.7444,0.0,0.0,0.0,0.0,0.0,0.0,0.0,0.0,0.0,0.0,0.0,0.0,0.0,0.0,0.0,0.0,0.0,0.0,0.0,-0.7068,-0.6851,-0.6951,0.0,0.0,0.0,0.0,0.0,0.0,0.0,0.0,0.0,-0.4898,-0.5471,-0.5565,0.0,0.0,-0.4354,-0.2908,-0.1649,-0.1425,-0.308,-0.293,0.0,-0.3089,-0.3025,-0.2869,-0.2653,-0.209,-0.1815,-0.2227,-0.1986,-0.1765,-0.1908,-0.1697,-0.1603,-0.1841,-0.3176,-0.4099,-0.4147,-0.3877,-0.362,-0.3539,-0.277,-0.2036,-0.0581,-0.0605,-0.065,-0.0627,-0.0559,-0.0403,-0.0492,-0.0738,-0.0537,-0.0357,-0.0156,-0.0089,0.0089,0.0337,0.036,0.0,0.0,0.0,0.0674,0.0904,0.0757,0.0702,0.0733,0.0855,0.1056,0.1351,0.1632,0.1927,0.2178,0.2537,0.2743,0.2767,0.0,0.0,0.553,0.3972,0.3717,0.4824,0.4403,0.4445,0.5073,0.6181,0.6956,0.7373,0.6816,0.6803,0.735,0.6357,0.6208,0.7128,0.6779,0.6546,0.0,0.0,0.0,0.0,0.0,0.0,0.0,0.0,0.0,0.0,0.0,-0.4543,-0.5514,0.0,0.0,0.0,-0.7231,-0.6919,-0.6743,-0.688,0.0,0.0,0.0,0.0,0.0,0.0,0.0,-0.4548,-0.398,-0.3493,-0.3232,-0.3649,-0.3959,-0.3978,-0.455,-0.4393,-0.2783,0.0,-0.034,-0.1323,-0.1146,-0.0959,-0.1133,-0.1171,-0.1085,-0.0744,-0.0582,-0.0583,-0.0871,-0.0848,-0.0776,-0.0723,-0.0629,-0.0467,-0.0304,-0.136,-0.2301,-0.2532,-0.2307,-0.2112,-0.2169,-0.1616,-0.1178,-0.0135,0.0022,-0.009,-0.0045,0.0112,0.0112,0.0022,-0.0157,-0.009,-0.0022,0.0045,0.0225,0.0359,0.0449,0.0561,0.0,0.0489,0.0779,0.1003,0.1136,0.115,0.1205,0.1298,0.1428,0.1696,0.2087,0.2436,0.2797,0.3162,0.329,0.3579,0.4072,0.4185,0.5338,0.7348,0.6046,0.5792,0.6668,0.6084,0.594,0.6211,0.7341,0.786,0.7727,0.7646,0.7519,0.7364,0.5848,0.5403,0.6224,0.6174,0.6106,0.6127,0.0,0.0,0.0,0.0,0.0,0.0,0.0,0.0,0.0,0.0,0.0,0.0,0.0,0.0,0.0,-0.5475,0.0,-0.6153,-0.6652,0.0,0.0,0.0,-0.2323,-0.3215,-0.2412,-0.1992,-0.245,0.0,0.0,-0.1335,-0.0895,-0.0994,-0.2131,-0.3441,-0.3789,-0.2496,-0.0798,0.0119,-0.0079,-0.0118,-0.0108,-0.0129,0.014,0.0466,0.0731,0.0722,0.0552,0.0358,0.0222,0.0149,0.0148,0.0223,0.036,0.0489,0.0598,0.0613,-0.0043,-0.0152,-0.0174,-0.0267,-0.0268,-0.0312,0.0157,0.0292,0.027,0.0247,0.027,0.0315,0.0292,0.0247,0.027,0.0292,0.0315,0.0428,0.0539,0.0715,0.0805,0.0894,0.1003,0.1139,0.1316,0.1488,0.1638,0.1794,0.1978,0.2211,0.2523,0.291,0.3265,0.3604,0.3935,0.421,0.4538,0.4919,0.5138,0.555,0.6132,0.5751,0.5913,0.6688,0.6634,0.6805,0.7245,0.7878,0.8351,0.8661,0.8014,0.7573,0.7387,0.5861,0.513,0.5385,0.5384,0.537,0.5377,0.6603,0.0,0.0,0.0,0.0,0.0,0.0,0.0,0.0,0.0,-0.4518,-0.5499,0.0,-0.6882,0.0,-0.6749,-0.5831,-0.5422,-0.4114,0.0,0.0,-0.3836,-0.0762,0.1519,0.06,-0.02,-0.0069,-0.0024,0.0046,0.0167,0.0457,0.0813,0.1118,0.0717,0.0121,-0.0525,0.0904,0.22,0.2297,0.2035,0.1866,0.1868,0.1918,0.1932,0.1928,0.1815,0.1668,0.1516,0.1354,0.1218,0.1223,0.1233,0.1344,0.1512,0.1656,0.1746,0.1646,0.118,0.0714,0.068,0.068,0.0627,0.0337,0.0451,0.0451,0.0451,0.0473,0.0451,0.0451,0.0496,0.0496,0.0518,0.0539,0.0672,0.0828,0.1027,0.1116,0.1296,0.1496,0.1604,0.1799,0.2058,0.2259,0.2454,0.2665,0.2975,0.3307,0.3654,0.4045,0.4389,0.4697,0.503,0.5325,0.5606,0.5891,0.6119,0.6208,0.608,0.6455,0.7353,0.7229,0.736,0.7724,0.8129,0.8566,0.9014,0.8647,0.8131,0.7411,0.5898,0.5225,0.5606,0.5663,0.5718,0.5848,0.616,0.6155,0.0,0.0,0.0,0.0,0.0,0.0,0.0,0.0,0.0,0.0,0.0,-0.5184,-0.5429,-0.4276,-0.3356,-0.2952,-0.1214,-0.0844,-0.2678,-0.0807,0.1283,0.2973,0.2128,0.1514,0.1755,0.1713,0.1707,0.1844,0.2049,0.2409,0.3002,0.3004,0.2719,0.2158,0.2943,0.3703,0.3786,0.3582,0.3362,0.3336,0.321,0.3069,0.2957,0.2814,0.2683,0.2544,0.2352,0.2218,0.221,0.2246,0.2299,0.2443,0.2583,0.2721,0.2785,0.2495,0.2072,0.1712,0.164,0.1574,0.0496,0.054,0.0561,0.063,0.0742,0.063,0.0606,0.0652,0.063,0.0697,0.0787,0.0962,0.1183,0.1388,0.1496,0.1721,0.1978,0.215,0.2385,0.2692,0.2901,0.3135,0.3361,0.3723,0.4053,0.4349,0.4796,0.5117,0.5396,0.5704,0.5968,0.6195,0.647,0.6778,0.705,0.6753,0.7066,0.8045,0.7806,0.778,0.8019,0.8339,0.8722,0.9184,0.935,0.8756,0.7303,0.5816,0.5355,0.6048,0.6158,0.6309,0.6517,0.5375,0.5244,0.0,0.7717,0.0,0.0,0.0,0.0,0.0,0.0,0.0,0.0,-0.1861,-0.1746,-0.1124,-0.0216,0.0294,0.0224,0.1648,0.2788,0.3193,0.3376,0.3293,0.2928,0.2942,0.3047,0.3171,0.3234,0.3313,0.3402,0.3619,0.3811,0.3955,0.4095,0.4204,0.447,0.4532,0.4565,0.4553,0.4545,0.4348,0.4181,0.4074,0.3933,0.3815,0.3686,0.3567,0.3436,0.3264,0.3137,0.3132,0.3183,0.3237,0.3315,0.3412,0.3549,0.3667,0.3613,0.3374,0.2745,0.2528,0.2494,0.0676,0.0764,0.0806,0.0871,0.094,0.0918,0.0871,0.0849,0.0894,0.1029,0.121,0.1343,0.1563,0.1787,0.1913,0.2172,0.2476,0.2665,0.2917,0.325,0.3445,0.3744,0.4094,0.4406,0.4697,0.503,0.5375,0.5667,0.5852,0.6088,0.6331,0.6586,0.6757,0.725,0.7962,0.0,0.0,0.0,0.8054,0.8468,0.8633,0.8895,0.9308,0.9811,0.9699,0.0,0.6599,0.5342,0.4783,0.4994,0.5116,0.0,0.0,0.0,0.0,0.0,0.0,0.0,0.0,0.0,0.0,0.0,0.1321,0.0614,-0.0364,0.0786,0.1357,0.0811,0.218,0.2927,0.2447,0.3518,0.431,0.4504,0.4427,0.4301,0.4226,0.4095,0.4041,0.4118,0.4152,0.4196,0.424,0.4405,0.4511,0.4603,0.471,0.4797,0.4881,0.4794,0.4713,0.473,0.4799,0.4775,0.4669,0.4588,0.4482,0.4447,0.4366,0.4254,0.4113,0.4017,0.3943,0.39,0.3916,0.3912,0.3978,0.4085,0.4123,0.4224,0.4242,0.4067,0.3492,0.3309,0.3248,0.083,0.0897,0.0918,0.1027,0.0,0.1139,0.1183,0.1183,0.1161,0.1274,0.1516,0.1677,0.1898,0.2158,0.2328,0.2584,0.295,0.3184,0.3486,0.3813,0.4073,0.4357,0.4655,0.4961,0.5214,0.5491,0.5819,0.6034,0.6195,0.6348,0.6552,0.674,0.6841,0.717,0.7673,0.7302,0.7171,0.7298,0.7812,0.813,0.8303,0.8543,0.8709,0.8794,0.7721,0.0,0.0,0.0,0.0,0.0,0.0,0.0,0.0,0.4249,0.0,0.2632,0.3206,0.3941,0.4629,0.4856,0.4459,0.3322,0.2863,0.2166,0.1061,0.2056,0.2636,0.2348,0.3282,0.3855,0.3733,0.4253,0.4683,0.4863,0.4828,0.4806,0.478,0.4704,0.465,0.4676,0.4701,0.4719,0.4754,0.482,0.4905,0.4945,0.4966,0.5,0.503,0.4985,0.4929,0.495,0.4984,0.4991,0.4943,0.4893,0.4824,0.4795,0.4731,0.4676,0.4612,0.4541,0.4478,0.4452,0.4433,0.4418,0.4435,0.4475,0.4509,0.4498,0.4442,0.4325,0.3991,0.3877,0.3738,0.1041,0.1096,0.1096,0.1201,0.1366,0.1388,0.1488,0.167,0.0,0.0,0.0,0.2026,0.2272,0.2502,0.2719,0.3019,0.3402,0.3661,0.398,0.4309,0.4606,0.4893,0.5088,0.5406,0.5662,0.5867,0.6093,0.629,0.6418,0.6535,0.6651,0.6757,0.6824,0.6924,0.7033,0.7055,0.7139,0.7251,0.7504,0.7733,0.7915,0.8092,0.8112,0.7895,0.5855,0.5174,0.5995,0.531,0.5227,0.5828,0.5884,0.5661,0.5101,0.5088,0.4472,0.317,0.2985,0.352,0.4728,0.4439,0.4274,0.44,0.3938,0.3325,0.2523,0.2861,0.3243,0.3579,0.3867,0.4168,0.4463,0.4552,0.4679,0.4914,0.4984,0.5008,0.5018,0.5018,0.5003,0.5021,0.4993,0.5008,0.5019,0.5043,0.5094,0.5095,0.5075,0.5094,0.5095,0.5079,0.507,0.508,0.5084,0.5079,0.5096,0.5035,0.5016,0.4987,0.4948,0.4922,0.4915,0.4866,0.4845,0.4783,0.4759,0.47,0.4692,0.463,0.4617,0.455,0.4411,0.4291,0.4186,0.4042,0.3849,0.1419,0.1439,0.1415,0.148,0.1569,0.1607,0.1924,0.2303,0.2027,0.2026,0.2219,0.2481,0.2724,0.2934,0.3126,0.3395,0.373,0.3994,0.4313,0.4626,0.4912,0.5175,0.5435,0.5652,0.5867,0.6068,0.6218,0.6372,0.646,0.6505,0.6557,0.6633,0.6702,0.677,0.6854,0.6908,0.6977,0.7055,0.7795,0.8248,0.8414,0.8482,0.8721,0.8957,0.6922,0.6038,0.6547,0.6278,0.5897,0.5409,0.5012,0.4822,0.4842,0.5005,0.4984,0.4771,0.4747,0.4805,0.495,0.4759,0.4559,0.4415,0.4325,0.405,0.3563,0.3825,0.4115,0.4331,0.4523,0.4712,0.4816,0.4939,0.5006,0.5054,0.5079,0.5074,0.5073,0.5074,0.5073,0.5077,0.508,0.508,0.5082,0.5099,0.5097,0.5101,0.5096,0.5095,0.5079,0.5104,0.5091,0.5096,0.5097,0.5103,0.5084,0.5054,0.4995,0.5001,0.5004,0.4958,0.4983,0.4946,0.4912,0.4906,0.4813,0.4751,0.4688,0.455,0.4382,0.4258,0.4064,0.3926,0.3733,0.3485,0.3321,0.1731,0.1763,0.1816,0.1911,0.205,0.235,0.2646,0.2932,0.2968,0.2974,0.2974,0.3238,0.34,0.3506,0.3696,0.3908,0.4081,0.4321,0.4564,0.4863,0.5137,0.5378,0.5606,0.5804,0.5988,0.6159,0.6278,0.6349,0.6378,0.6383,0.6418,0.6488,0.6557,0.6608,0.6642,0.674,0.6807,0.6841,0.7344,0.7682,0.7842,0.7926,0.7908,0.7812,0.6915,0.6413,0.6337,0.6275,0.6125,0.5901,0.5763,0.5594,0.5368,0.5499,0.5421,0.5072,0.5057,0.5029,0.5005,0.4783,0.4621,0.4561,0.4557,0.4505,0.4331,0.4454,0.4579,0.4706,0.4827,0.4938,0.5003,0.507,0.5104,0.5098,0.5106,0.5089,0.5089,0.5089,0.5089,0.5089,0.5091,0.5091,0.5089,0.5105,0.5099,0.5093,0.5098,0.5073,0.5019,0.4953,0.4978,0.5043,0.5016,0.4998,0.4998,0.4962,0.4959,0.4933,0.4959,0.4962,0.4981,0.4965,0.4925,0.4867,0.473,0.4594,0.4461,0.4242,0.4025,0.3799,0.3679,0.3485,0.3212,0.2661,0.2234,0.2081,0.2113,0.2198,0.2374,0.2613,0.3,0.3302,0.353,0.3837,0.3933,0.3917,0.402,0.4083,0.4141,0.4331,0.451,0.4649,0.4845,0.5032,0.5173,0.5422,0.5588,0.5703,0.5878,0.6032,0.6141,0.6206,0.623,0.6242,0.6224,0.626,0.6331,0.6418,0.6458,0.6475,0.6574,0.6638,0.6672,0.6858,0.7023,0.7214,0.7312,0.7151,0.6814,0.6949,0.6844,0.6412,0.6474,0.6551,0.659,0.6723,0.6551,0.6043,0.6144,0.5923,0.5301,0.5219,0.5137,0.4931,0.473,0.4635,0.4673,0.4697,0.4726,0.4783,0.481,0.4857,0.4911,0.4995,0.5029,0.5069,0.5097,0.5105,0.5092,0.5092,0.5091,0.5092,0.5092,0.5092,0.5091,0.509,0.5091,0.5091,0.5103,0.5084,0.5056,0.5042,0.4973,0.485,0.4738,0.4719,0.4784,0.4814,0.4822,0.4825,0.4803,0.4812,0.4813,0.4811,0.4856,0.4891,0.4875,0.4783,0.4676,0.4503,0.4325,0.4131,0.3843,0.3594,0.3364,0.3154,0.2878,0.2346,0.1602,0.1075,0.2427,0.2469,0.2586,0.2818,0.3146,0.3309,0.3677,0.4112,0.4333,0.4712,0.5018,0.4657,0.4599,0.4829,0.5078,0.5315,0.5537,0.5841,0.5843,0.5658,0.5852,0.5858,0.5767,0.5807,0.5897,0.6018,0.6062,0.608,0.6045,0.6039,0.6086,0.6141,0.6242,0.6355,0.6367,0.6437,0.6512,0.6629,0.6672,0.6824,0.7039,0.7155,0.7223,0.723,0.7368,0.7489,0.7473,0.7732,0.7608,0.7195,0.7319,0.7168,0.6697,0.6804,0.6591,0.5888,0.5859,0.5583,0.4842,0.4706,0.4736,0.4623,0.4732,0.4795,0.4818,0.486,0.4912,0.4982,0.5051,0.5091,0.5101,0.5094,0.5101,0.5087,0.5105,0.5103,0.5103,0.5103,0.5101,0.5096,0.5097,0.5101,0.5101,0.508,0.5029,0.4916,0.4822,0.4706,0.4612,0.4472,0.433,0.4356,0.4465,0.4585,0.4548,0.4535,0.4534,0.4607,0.4625,0.4643,0.466,0.4666,0.458,0.4415,0.4201,0.4017,0.3752,0.3499,0.3108,0.2818,0.2478,0.2027,0.1212,0.0516,0.017,0.2707,0.2744,0.2939,0.3273,0.369,0.3957,0.4279,0.4624,0.4907,0.525,0.5581,0.548,0.5417,0.5334,0.5626,0.5778,0.5777,0.6043,0.6121,0.6059,0.6301,0.6415,0.6479,0.6576,0.656,0.6363,0.6349,0.6192,0.6027,0.6211,0.6536,0.6849,0.6955,0.7038,0.712,0.7275,0.7396,0.7496,0.7622,0.7759,0.7764,0.7383,0.7153,0.7203,0.7345,0.7484,0.7576,0.7768,0.7821,0.7748,0.7968,0.783,0.7254,0.7432,0.7217,0.6574,0.6474,0.63,0.5919,0.5839,0.5825,0.5787,0.585,0.5744,0.5373,0.5396,0.5298,0.4966,0.4967,0.507,0.51,0.5088,0.5096,0.5105,0.5105,0.5105,0.509,0.5105,0.5102,0.5094,0.5082,0.5058,0.5033,0.4976,0.487,0.4745,0.459,0.445,0.4342,0.4311,0.4269,0.4202,0.4397,0.444,0.4255,0.4145,0.4175,0.4253,0.4287,0.4325,0.4375,0.4583,0.4559,0.4233,0.4033,0.3703,0.3207,0.2887,0.2534,0.2182,0.16,0.1024,0.047,-0.0137,-0.061,0.2911,0.3039,0.3307,0.3695,0.4151,0.4468,0.475,0.5042,0.5358,0.5641,0.5866,0.6106,0.6095,0.5984,0.619,0.6263,0.6189,0.6451,0.6515,0.6511,0.6726,0.6886,0.6973,0.7091,0.6989,0.6782,0.6759,0.6603,0.6335,0.6622,0.7024,0.7361,0.7509,0.761,0.7712,0.7902,0.8034,0.8131,0.8291,0.8431,0.8366,0.7883,0.76,0.7594,0.7671,0.7818,0.8013,0.837,0.859,0.865,0.8734,0.8566,0.8197,0.8166,0.7844,0.7173,0.6874,0.6681,0.6605,0.6536,0.6508,0.6499,0.6553,0.6419,0.6036,0.5986,0.5806,0.5469,0.54,0.5439,0.5048,0.504,0.5047,0.5041,0.5064,0.507,0.5075,0.5073,0.5063,0.5036,0.4999,0.4927,0.4883,0.4781,0.472,0.4715,0.4532,0.4386,0.4324,0.4374,0.4296,0.4079,0.4195,0.4208,0.4026,0.4054,0.4027,0.408,0.4193,0.4265,0.4169,0.4449,0.4406,0.3969,0.3866,0.3523,0.2876,0.2421,0.1893,0.1336,0.0805,0.0311,-0.0043,-0.0638,-0.125,0.3109,0.3282,0.3737,0.4182,0.4505,0.478,0.5062,0.542,0.5645,0.585,0.6153,0.633,0.6521,0.6751,0.685,0.691,0.7052,0.7251,0.7196,0.6917,0.7174,0.7133,0.6821,0.6929,0.7057,0.7107,0.7165,0.7154,0.7133,0.7304,0.7372,0.7451,0.7657,0.7748,0.7828,0.8022,0.8093,0.8321,0.8477,0.853,0.8659,0.8772,0.8819,0.8812,0.8632,0.8747,0.9251,1.004,1.0288,0.9999,0.9562,0.9377,0.9435,0.906,0.8482,0.7785,0.702,0.6563,0.6486,0.6493,0.6438,0.6328,0.6448,0.6405,0.6461,0.652,0.6493,0.6555,0.6407,0.6071,0.5229,0.5152,0.5094,0.5088,0.506,0.5101,0.509,0.5228,0.5006,0.5037,0.5082,0.5026,0.476,0.4574,0.4754,0.4844,0.4693,0.4508,0.4607,0.4484,0.4194,0.3898,0.3766,0.3739,0.4137,0.4018,0.4084,0.4074,0.4004,0.4303,0.4345,0.4274,0.3967,0.3626,0.3298,0.2915,0.2464,0.192,0.1325,0.0807,0.0403,-0.0045,-0.0416,-0.0994,-0.1585,0.3699,0.4026,0.4382,0.4736,0.5056,0.5375,0.5768,0.6117,0.6449,0.6731,0.7011,0.7206,0.7441,0.7725,0.7708,0.7507,0.7152,0.7392,0.7424,0.731,0.7555,0.767,0.7667,0.7813,0.7775,0.7578,0.762,0.7681,0.7717,0.7766,0.8032,0.8404,0.8541,0.8657,0.8797,0.8934,0.9108,0.9291,0.9461,0.9605,0.9671,0.9943,1.0067,1.0058,0.9425,0.9142,0.9337,0.9794,1.0009,0.9967,0.9947,0.997,1.008,0.9962,0.9776,0.9484,0.9105,0.8633,0.8187,0.8044,0.7819,0.739,0.74,0.7289,0.705,0.6995,0.6873,0.6529,0.6441,0.617,0.6012,0.5984,0.6131,0.6177,0.6193,0.616,0.6262,0.6238,0.6193,0.6167,0.6048,0.5833,0.5553,0.545,0.5303,0.5167,0.4847,0.4572,0.4405,0.4273,0.4119,0.3808,0.375,0.3819,0.3725,0.3609,0.3502,0.3483,0.3482,0.3517,0.3554,0.3747,0.3549,0.3215,0.2818,0.2415,0.2004,0.1495,0.0892,0.0537,0.0127,-0.0148,-0.0688,-0.1081,-0.1684,0.4208,0.4514,0.4883,0.5184,0.5527,0.5893,0.6306,0.6673,0.7021,0.7316,0.7539,0.7709,0.7912,0.8123,0.8166,0.7968,0.7521,0.7633,0.7613,0.7519,0.7763,0.7947,0.8072,0.828,0.825,0.8037,0.8073,0.8163,0.8226,0.8253,0.8548,0.8987,0.9108,0.9244,0.9446,0.9579,0.9762,0.9931,1.0123,1.0274,1.0374,1.0608,1.0753,1.0739,1.0227,0.9931,0.9985,1.0205,1.0381,1.0515,1.0501,1.0413,1.033,1.0333,1.0348,1.0299,1.0132,0.9842,0.9364,0.9188,0.8961,0.8542,0.853,0.8408,0.8061,0.8115,0.7858,0.7513,0.7422,0.7453,0.7505,0.7678,0.7507,0.6944,0.6741,0.6747,0.6762,0.6737,0.6674,0.6536,0.6344,0.619,0.6015,0.5733,0.5505,0.5371,0.4944,0.4576,0.4543,0.4365,0.4193,0.3912,0.3854,0.3711,0.3525,0.328,0.3234,0.3201,0.3168,0.3075,0.3024,0.3201,0.3129,0.2794,0.2424,0.199,0.1536,0.1052,0.0694,0.0399,0.0203,0.0,-0.0537,-0.1054,-0.163,0.4538,0.4816,0.5163,0.5581,0.5977,0.6358,0.6665,0.6959,0.7315,0.7581,0.7751,0.7811,0.8014,0.8087,0.8273,0.8272,0.825,0.8192,0.7963,0.7671,0.7901,0.8008,0.8087,0.8398,0.8542,0.8485,0.8605,0.8678,0.8806,0.8901,0.9046,0.9177,0.9356,0.958,0.9557,0.9856,0.9954,1.0148,1.0392,1.048,1.0512,1.0843,1.0993,1.1049,1.1104,1.1224,1.1333,1.1417,1.1482,1.1653,1.1268,1.0723,1.0356,1.0264,1.0134,1.01,0.995,0.9799,0.9629,0.9555,0.9507,0.9318,0.9457,0.9428,0.9406,0.9542,0.954,0.9431,0.946,0.963,0.955,0.9525,0.8819,0.688,0.6879,0.6889,0.6694,0.6515,0.6409,0.6442,0.6416,0.5944,0.5697,0.5686,0.5621,0.5576,0.521,0.4917,0.5041,0.4752,0.4436,0.4202,0.3901,0.3558,0.3267,0.299,0.3045,0.3057,0.3028,0.2979,0.2853,0.2911,0.2767,0.2446,0.2208,0.1808,0.1507,0.106,0.0961,0.0697,0.0492,0.0249,-0.0215,-0.0729,-0.1423,0.5282,0.5526,0.5944,0.6313,0.6639,0.7036,0.7357,0.7604,0.7992,0.8228,0.8384,0.854,0.8695,0.8811,0.8926,0.8889,0.8721,0.8801,0.8671,0.8455,0.8681,0.8822,0.8886,0.9161,0.934,0.9444,0.958,0.9693,0.9752,0.9814,0.9969,1.0175,1.0272,1.0433,1.0604,1.0858,1.106,1.126,1.1499,1.1679,1.1748,1.1926,1.2061,1.2087,1.222,1.2144,1.177,1.156,1.1511,1.1623,1.1503,1.1344,1.1206,1.1141,1.1079,1.1011,1.0942,1.0639,1.0201,1.0068,0.9856,0.9528,0.9456,0.9488,0.9519,0.9625,0.969,0.9672,0.9575,0.9551,0.9551,0.9527,0.9248,0.8865,0.8864,0.8694,0.8511,0.8545,0.8543,0.8369,0.814,0.7846,0.7438,0.7035,0.654,0.6279,0.5857,0.5538,0.5183,0.4813,0.4325,0.4002,0.3686,0.3437,0.3155,0.2931,0.2868,0.2825,0.278,0.2734,0.2661,0.2574,0.2397,0.2245,0.1961,0.1744,0.1444,0.1286,0.1195,0.1078,0.0873,0.0549,0.016,-0.0413,-0.1107,0.575,0.6007,0.6441,0.6823,0.7118,0.7489,0.778,0.8036,0.8365,0.8561,0.8675,0.8854,0.8975,0.9105,0.9217,0.9195,0.9088,0.9289,0.931,0.9173,0.9116,0.9207,0.9332,0.9609,0.9808,0.9896,1.0026,1.0145,1.0295,1.0339,1.0434,1.068,1.0774,1.0908,1.1179,1.1363,1.1575,1.1801,1.1978,1.2179,1.2308,1.248,1.2551,1.2552,1.2568,1.2402,1.2072,1.1755,1.1504,1.1448,1.1474,1.1549,1.1586,1.1534,1.1497,1.1415,1.1333,1.1093,1.0734,1.0655,1.0491,1.0101,1.0085,1.014,1.014,1.0175,1.0195,1.0134,1.01,1.0031,1.0024,0.9926,1.0017,1.0306,0.9859,0.9732,0.9607,0.9544,0.9318,0.8985,0.8732,0.8498,0.8082,0.7633,0.7167,0.6683,0.614,0.5711,0.5196,0.4794,0.4381,0.4054,0.383,0.3511,0.3086,0.2874,0.2733,0.261,0.2488,0.2424,0.2344,0.2322,0.2205,0.2166,0.2007,0.1953,0.1721,0.1699,0.1646,0.147,0.131,0.0962,0.059,-0.0099,-0.082,0.5964,0.6264,0.6745,0.7083,0.7412,0.7746,0.8002,0.8167,0.8398,0.8521,0.8561,0.8781,0.8911,0.8952,0.9105,0.9182,0.931,0.95,0.9718,0.9687,0.9442,0.9303,0.9565,0.9893,1.0052,1.0111,1.0222,1.0333,1.0531,1.0553,1.0525,1.0856,1.0988,1.1062,1.139,1.1456,1.1727,1.2022,1.2139,1.2331,1.2478,1.2597,1.2655,1.2669,1.2581,1.2485,1.2413,1.2088,1.1689,1.1329,1.1436,1.1491,1.139,1.1376,1.133,1.1201,1.1201,1.1164,1.1118,1.1079,1.1102,1.1017,1.1193,1.1448,1.133,1.1388,1.1431,1.1352,1.123,1.116,1.1089,1.0983,1.0976,1.0885,1.0303,0.9716,0.9371,0.955,0.9583,0.9101,0.8555,0.8219,0.8038,0.7565,0.7097,0.6617,0.6116,0.58,0.5443,0.5121,0.4667,0.4377,0.4183,0.3883,0.3589,0.347,0.3319,0.319,0.297,0.2726,0.2445,0.2354,0.2292,0.2249,0.2219,0.2167,0.2114,0.213,0.2112,0.2057,0.1809,0.1453,0.0905,0.0234,-0.0635,0.6313,0.6483,0.6914,0.7209,0.7454,0.7821,0.7987,0.8103,0.8357,0.8512,0.857,0.8683,0.8839,0.8911,0.9024,0.9136,0.9355,0.9484,0.9723,0.9961,0.9829,0.9989,1.0362,1.0631,1.0777,1.085,1.0996,1.1151,1.1331,1.1344,1.1533,1.171,1.1792,1.1954,1.2287,1.2411,1.2613,1.2859,1.3168,1.3317,1.3401,1.3502,1.361,1.3597,1.3494,1.3235,1.2864,1.2343,1.1911,1.1684,1.1724,1.1559,1.1306,1.1249,1.1291,1.1282,1.1249,1.123,1.1221,1.1281,1.129,1.1258,1.178,1.2066,1.2248,1.2499,1.259,1.2555,1.2436,1.2234,1.2195,1.2034,1.1882,1.1642,1.1092,1.0807,1.0899,1.0992,1.0821,1.047,0.9974,0.9526,0.9072,0.8579,0.8047,0.7513,0.7016,0.6486,0.598,0.5563,0.5124,0.49,0.4687,0.4405,0.4204,0.4084,0.3991,0.393,0.3714,0.3454,0.3107,0.2755,0.27,0.2666,0.27,0.2661,0.2627,0.2637,0.2618,0.2593,0.2262,0.1888,0.1274,0.0602,-0.04,0.6662,0.6774,0.7094,0.7286,0.7447,0.7731,0.7904,0.8051,0.8425,0.8572,0.8614,0.8789,0.8923,0.904,0.8979,0.92,0.9518,0.9626,0.9981,1.0501,1.0748,1.0884,1.1083,1.1238,1.1488,1.1707,1.1876,1.2045,1.2201,1.2279,1.2424,1.2567,1.2709,1.2899,1.3099,1.336,1.3582,1.385,1.4139,1.4262,1.4167,1.4264,1.4133,1.4027,1.3914,1.3651,1.3258,1.297,1.2595,1.2238,1.2126,1.2036,1.185,1.1795,1.1834,1.1933,1.1986,1.2025,1.207,1.2144,1.2192,1.2226,1.2582,1.2755,1.2914,1.3082,1.3131,1.3034,1.283,1.2706,1.2621,1.2497,1.2273,1.2025,1.1889,1.1708,1.1559,1.1302,1.1152,1.0837,1.0463,1.0091,0.9649,0.9161,0.8608,0.7977,0.7357,0.6841,0.6338,0.6,0.5626,0.5368,0.5105,0.4851,0.4717,0.4614,0.4635,0.4576,0.4528,0.4262,0.3858,0.3411,0.3263,0.3236,0.3216,0.3196,0.3115,0.3104,0.3104,0.2973,0.2659,0.2188,0.1543,0.0711,-0.0236,0.7017,0.7147,0.7248,0.7383,0.7567,0.7687,0.7958,0.8119,0.855,0.871,0.8798,0.9033,0.9164,0.9218,0.9199,0.9358,0.9941,0.9984,1.0465,1.1012,1.1469,1.1649,1.1561,1.1675,1.1933,1.2226,1.2626,1.2699,1.2696,1.2874,1.3012,1.3036,1.3315,1.3535,1.3569,1.3891,1.4304,1.452,1.4727,1.48,1.4686,1.4774,1.4673,1.4322,1.4044,1.3879,1.3669,1.3585,1.338,1.2709,1.2636,1.2637,1.276,1.2753,1.2846,1.2946,1.2958,1.3025,1.3162,1.311,1.3347,1.3359,1.3472,1.3648,1.367,1.368,1.3599,1.3529,1.3067,1.3008,1.2858,1.2628,1.2456,1.2329,1.2267,1.1892,1.1355,1.1103,1.0946,1.0532,1.0261,0.9878,0.9477,0.9023,0.8604,0.8318,0.7772,0.7277,0.6796,0.6324,0.5993,0.5659,0.5442,0.5286,0.5182,0.5106,0.519,0.5241,0.5251,0.5042,0.466,0.4271,0.4007,0.3868,0.3754,0.3668,0.3567,0.3552,0.3509,0.3247,0.2826,0.2328,0.1761,0.0769,-0.0207,0.7222,0.7263,0.7629,0.7782,0.7874,0.8105,0.8321,0.8489,0.8708,0.8929,0.9059,0.915,0.9386,0.9674,0.9603,0.9877,1.033,1.0437,1.0695,1.1173,1.1683,1.2091,1.2209,1.2263,1.2267,1.2467,1.2436,1.2574,1.268,1.2882,1.2858,1.3028,1.3295,1.3369,1.3702,1.3976,1.4129,1.4487,1.4824,1.5095,1.5157,1.5267,1.5262,1.5026,1.4592,1.4163,1.3846,1.3788,1.3822,1.374,1.3465,1.3217,1.2997,1.2997,1.315,1.3299,1.3349,1.3301,1.3116,1.3435,1.3601,1.3753,1.4156,1.4521,1.4935,1.4776,1.4658,1.4567,1.4298,1.3864,1.3581,1.3284,1.3023,1.2765,1.2425,1.2054,1.1624,1.1575,1.1408,1.1056,1.0737,1.0428,1.0079,0.9545,0.9076,0.865,0.8156,0.7706,0.7228,0.6679,0.635,0.6046,0.5966,0.5879,0.5867,0.5811,0.5908,0.5914,0.5897,0.5734,0.537,0.5014,0.468,0.4437,0.4271,0.4117,0.3963,0.3782,0.3711,0.3329,0.2964,0.2332,0.1632,0.0697,-0.0426,0.7388,0.7425,0.7647,0.7786,0.7923,0.8119,0.8301,0.8558,0.8879,0.9129,0.9367,0.9423,0.966,1.0037,0.9981,1.0223,1.0809,1.1258,1.1621,1.1956,1.2361,1.2655,1.2822,1.2904,1.2941,1.2965,1.3052,1.3076,1.3165,1.3244,1.3407,1.3443,1.3608,1.3905,1.41,1.4378,1.4778,1.5115,1.5467,1.5663,1.5645,1.5802,1.5671,1.5488,1.5088,1.48,1.465,1.4682,1.4719,1.468,1.4515,1.4212,1.3807,1.3808,1.3969,1.4184,1.4324,1.4334,1.426,1.4429,1.4716,1.4591,1.4985,1.5152,1.536,1.5298,1.5117,1.4949,1.4655,1.4354,1.4106,1.4006,1.368,1.332,1.2892,1.2457,1.2129,1.1925,1.1568,1.1185,1.0928,1.0625,1.0244,0.9879,0.9399,0.8872,0.8389,0.7941,0.7493,0.699,0.6761,0.6546,0.6531,0.655,0.6554,0.6603,0.6632,0.6571,0.6462,0.6276,0.5924,0.5567,0.5254,0.4954,0.4678,0.4468,0.4307,0.4094,0.3804,0.3462,0.2965,0.227,0.1401,0.0308,-0.0901,0.7491,0.753,0.7561,0.7717,0.7966,0.8034,0.8283,0.8635,0.9045,0.9318,0.9631,0.9764,1.0025,1.0311,1.0326,1.0643,1.1286,1.1983,1.2377,1.258,1.2887,1.304,1.3185,1.3355,1.3486,1.3552,1.3564,1.3622,1.3669,1.3858,1.3689,1.3909,1.4154,1.4266,1.4595,1.5006,1.5306,1.5656,1.6077,1.6334,1.6194,1.6373,1.6192,1.5762,1.5632,1.5513,1.5467,1.5525,1.5622,1.5483,1.567,1.5545,1.5307,1.4982,1.5077,1.527,1.533,1.5358,1.5397,1.5632,1.5764,1.5826,1.5797,1.5771,1.5669,1.5576,1.548,1.5244,1.5027,1.4661,1.4451,1.4312,1.412,1.3766,1.3354,1.2973,1.2561,1.2084,1.1662,1.1186,1.1105,1.0933,1.0526,1.0101,0.9609,0.9146,0.8675,0.8276,0.7842,0.7518,0.7367,0.7193,0.7227,0.7088,0.7125,0.7018,0.7096,0.6924,0.6875,0.6483,0.6171,0.5721,0.534,0.5237,0.4995,0.4756,0.4444,0.4174,0.3867,0.3571,0.2873,0.1995,0.0993,-0.0081,-0.1417,0.7553,0.7659,0.7781,0.8026,0.828,0.843,0.8714,0.9064,0.9181,0.9496,0.99,1.0112,1.0402,1.0731,1.1039,1.1428,1.1899,1.2344,1.2578,1.2774,1.3045,1.317,1.3228,1.342,1.3515,1.3457,1.3467,1.3478,1.3467,1.3515,1.3621,1.3726,1.3962,1.4255,1.4616,1.4983,1.5379,1.5824,1.6262,1.6549,1.6725,1.6868,1.6808,1.631,1.6284,1.6202,1.5944,1.5972,1.6118,1.6306,1.6507,1.6723,1.6605,1.5883,1.5564,1.5684,1.5876,1.6023,1.5916,1.6031,1.6015,1.5943,1.6035,1.6144,1.6214,1.6174,1.6088,1.6071,1.5744,1.5296,1.4917,1.4614,1.4061,1.3597,1.3178,1.2712,1.2454,1.2208,1.1979,1.1536,1.1384,1.1207,1.0791,1.0428,1.0139,0.9778,0.944,0.9153,0.8824,0.8513,0.8281,0.8107,0.7938,0.7794,0.7643,0.7476,0.7376,0.7115,0.6911,0.6369,0.6034,0.5609,0.5333,0.5037,0.4882,0.4661,0.4399,0.41,0.3605,0.3105,0.2374,0.1611,0.0383,-0.0871,-0.2268,0.7473,0.7622,0.7735,0.8049,0.8368,0.8573,0.8837,0.9159,0.9361,0.9629,0.9999,1.0257,1.0573,1.0922,1.1267,1.1728,1.2224,1.2421,1.2637,1.2832,1.3055,1.3152,1.3152,1.3334,1.3362,1.3314,1.3286,1.3316,1.3314,1.3362,1.345,1.3573,1.3821,1.4208,1.4627,1.5028,1.548,1.5969,1.6405,1.6748,1.7031,1.724,1.7167,1.7089,1.7063,1.7049,1.7031,1.7126,1.7186,1.7269,1.7434,1.7573,1.7394,1.7124,1.6681,1.6803,1.6864,1.6623,1.6368,1.6578,1.7136,1.7046,1.697,1.6953,1.6973,1.6855,1.6646,1.634,1.6204,1.5685,1.5199,1.4933,1.465,1.4124,1.3619,1.3107,1.2797,1.2652,1.2299,1.1898,1.1695,1.1414,1.1032,1.0758,1.0588,1.0389,1.0134,0.9919,0.975,0.9431,0.9128,0.8967,0.876,0.8377,0.8135,0.7865,0.7504,0.7225,0.6777,0.631,0.5829,0.5358,0.4952,0.4579,0.4484,0.4228,0.4052,0.3609,0.312,0.2541,0.1636,0.0702,-0.0434,-0.1707,-0.3169,0.7365,0.7521,0.7676,0.799,0.8421,0.858,0.889,0.9256,0.9517,0.9777,1.0102,1.0411,1.0667,1.0972,1.1377,1.1868,1.248,1.2529,1.2676,1.2881,1.3027,1.3075,1.3123,1.3252,1.3399,1.341,1.3551,1.3361,1.3419,1.3506,1.3575,1.3924,1.4194,1.4536,1.504,1.5441,1.5816,1.6235,1.6572,1.6931,1.7212,1.7406,1.7516,1.7529,1.7625,1.7707,1.7839,1.8074,1.8162,1.8206,1.8317,1.844,1.8253,1.8266,1.8331,1.8351,1.8249,1.7436,1.7163,1.7346,1.8053,1.8345,1.8079,1.7837,1.7722,1.7423,1.712,1.6445,1.6204,1.6051,1.5615,1.5405,1.5095,1.4573,1.4054,1.3637,1.3137,1.285,1.259,1.2263,1.1997,1.178,1.1469,1.1461,1.1377,1.1176,1.0954,1.0708,1.0533,1.0219,0.9923,0.9771,0.9526,0.9074,0.8683,0.8226,0.7741,0.7182,0.6599,0.6002,0.5524,0.5035,0.4534,0.3975,0.3579,0.3339,0.3206,0.2984,0.2406,0.1692,0.0801,-0.0309,-0.1574,-0.3034,-0.4535,0.7365,0.7521,0.7794,0.8162,0.8573,0.8745,0.9054,0.951,0.9614,0.994,1.0419,1.0624,1.082,1.1175,1.1477,1.1977,1.2382,1.2529,1.2627,1.2881,1.3027,1.3105,1.3164,1.3601,1.3631,1.37,1.4112,1.4133,1.3993,1.3912,1.4205,1.4645,1.5073,1.5596,1.5905,1.6078,1.636,1.6827,1.6941,1.7125,1.7446,1.7556,1.7611,1.7666,1.7693,1.7841,1.8214,1.8514,1.8684,1.891,1.9163,1.9383,1.9546,1.9758,1.9882,1.9568,1.8958,1.8067,1.8004,1.8219,1.8668,1.9055,1.8598,1.8097,1.8036,1.8042,1.773,1.7384,1.6976,1.6484,1.5874,1.5443,1.4926,1.4362,1.3894,1.343,1.3007,1.2861,1.2618,1.252,1.2214,1.2213,1.21,1.2164,1.2218,1.1972,1.1747,1.1478,1.1268,1.0902,1.0598,1.04,1.0027,0.9547,0.891,0.848,0.7716,0.7087,0.6338,0.5625,0.501,0.4426,0.3742,0.3175,0.2747,0.2282,0.2003,0.171,0.1431,0.0577,-0.0619,-0.172,-0.286,-0.4371,-0.6067,0.7628,0.7735,0.7955,0.8328,0.8738,0.9008,0.9309,0.9621,0.9991,1.0257,1.0522,1.082,1.1124,1.1427,1.1628,1.1927,1.2332,1.248,1.2627,1.2793,1.2959,1.3116,1.3342,1.3539,1.3686,1.4054,1.4327,1.4646,1.4621,1.4666,1.478,1.5174,1.562,1.6126,1.6704,1.6906,1.7312,1.7743,1.7991,1.8062,1.8123,1.8018,1.7909,1.8003,1.7975,1.8161,1.8475,1.8784,1.9011,1.9265,1.9479,1.9662,1.9777,1.994,2.003,2.0035,1.9573,1.9272,1.9259,1.9198,1.9415,1.9501,1.914,1.8871,1.8658,1.8295,1.7958,1.7472,1.7055,1.6523,1.5949,1.5322,1.4823,1.4316,1.3742,1.3334,1.2968,1.2774,1.2627,1.2539,1.249,1.2539,1.2539,1.251,1.2491,1.2325,1.2178,1.1963,1.1796,1.1571,1.1247,1.0948,1.0473,0.9887,0.9144,0.854,0.746,0.6733,0.5734,0.5027,0.434,0.3688,0.289,0.2078,0.1431,0.1033,0.0701,0.0362,-0.0045,-0.1019,-0.2115,-0.345,-0.4815,-0.6269,-0.8093,0.7836,0.8109,0.8321,0.8593,0.9008,0.9316,0.9621,0.988,1.03,1.0565,1.0718,1.1023,1.1377,1.1619,1.1728,1.1927,1.2274,1.2421,1.2529,1.2695,1.2919,1.3163,1.3445,1.362,1.4033,1.4307,1.4795,1.5174,1.554,1.5675,1.5754,1.5786,1.6464,1.6991,1.7408,1.7812,1.8209,1.8702,1.8879,1.8913,1.8822,1.859,1.8396,1.8297,1.8321,1.8411,1.8707,1.9087,1.9362,1.9413,1.9611,1.9756,1.9812,1.9914,1.997,1.997,1.9738,1.9753,1.9773,1.9773,1.9808,1.9651,1.9376,1.9016,1.8598,1.8249,1.784,1.729,1.6827,1.6311,1.5772,1.5187,1.4686,1.4233,1.3752,1.3344,1.2968,1.2822,1.2735,1.2705,1.2695,1.2813,1.2803,1.2735,1.2725,1.2667,1.253,1.2412,1.2175,1.1927,1.1493,1.1065,1.0348,0.9673,0.8815,0.8084,0.716,0.6131,0.516,0.4216,0.3413,0.2583,0.1744,0.0973,0.0107,-0.1029,-0.1805,-0.1636,-0.1611,-0.286,-0.4124,-0.5502,-0.6929,-0.847,-1.0321,0.8037,0.8573,0.8844,0.9113,0.9361,0.9636,0.9999,1.03,1.0462,1.0718,1.1023,1.1226,1.1427,1.1619,1.1719,1.1927,1.2283,1.2323,1.2459,1.2691,1.3001,1.3323,1.3632,1.4184,1.4704,1.5018,1.5421,1.5889,1.6384,1.674,1.6983,1.7346,1.7546,1.8177,1.865,1.8834,1.9166,1.9515,1.9686,1.9521,1.9292,1.9073,1.8863,1.854,1.8388,1.8464,1.9026,1.9398,1.9581,1.9574,1.9683,1.9771,1.9756,1.9837,1.9837,1.9807,1.9792,1.9756,1.9771,1.9777,1.9696,1.9471,1.9155,1.8798,1.8386,1.7877,1.741,1.7015,1.6616,1.6122,1.5605,1.5051,1.4605,1.4186,1.3763,1.3334,1.3055,1.2861,1.2832,1.2861,1.2949,1.3007,1.3084,1.3025,1.2967,1.2909,1.2745,1.2627,1.2224,1.1918,1.1408,1.0881,1.01,0.92,0.8075,0.7186,0.6126,0.5039,0.3947,0.3118,0.2334,0.1502,0.05,-0.0657,-0.167,-0.2994,-0.4336,-0.4669,-0.5018,-0.5267,-0.6294,-0.822,-1.005,-1.1748,-1.3471,0.8421,0.8896,0.9323,0.9532,0.9562,0.9947,1.0213,1.0375,1.0573,1.082,1.1124,1.1217,1.1469,1.1619,1.1719,1.1877,1.2175,1.2274,1.2473,1.277,1.308,1.359,1.4038,1.4525,1.5015,1.5432,1.5938,1.6285,1.6684,1.7267,1.781,1.8116,1.8333,1.8709,1.9169,1.9775,2.0223,2.0489,2.0516,2.034,2.0251,1.9656,1.9318,1.9216,1.8874,1.8917,1.9228,1.9508,1.9617,1.9654,1.969,1.9669,1.9647,1.9656,1.9619,1.9589,1.956,1.9553,1.9568,1.9589,1.9545,1.9273,1.895,1.8595,1.8202,1.7759,1.7315,1.6905,1.643,1.5957,1.5537,1.5017,1.4558,1.414,1.3763,1.3382,1.3142,1.2997,1.2929,1.3008,1.3065,1.317,1.3218,1.3304,1.3208,1.3112,1.2958,1.2735,1.2332,1.1751,1.124,1.0444,0.9607,0.8482,0.7357,0.623,0.5097,0.3941,0.2785,0.1893,0.1059,0.0112,-0.089,-0.2148,-0.3684,-0.5267,-0.6685,-0.7856,-0.8401,-0.8512,-0.9776,-1.1615,-1.337,-1.4994,-1.634,0.8633,0.9061,0.9591,0.9792,0.9784,1.0154,1.0368,1.047,1.0616,1.0828,1.1116,1.1217,1.1418,1.1619,1.1719,1.1877,1.2122,1.2323,1.2577,1.2931,1.3408,1.3959,1.4472,1.4951,1.5395,1.5806,1.6181,1.657,1.6987,1.7534,1.8018,1.8452,1.8786,1.9093,1.9668,2.0359,2.1055,2.1287,2.1321,2.1066,2.0966,2.057,1.982,1.9675,1.9229,1.913,1.9302,1.9523,1.9632,1.9617,1.9581,1.953,1.945,1.9391,1.9302,1.9302,1.9317,1.9354,1.9383,1.9443,1.9354,1.9116,1.8812,1.8478,1.8135,1.7693,1.7218,1.6765,1.6342,1.5891,1.5435,1.4971,1.4512,1.415,1.3858,1.3525,1.3276,1.3142,1.3123,1.3105,1.32,1.3304,1.3362,1.3409,1.3266,1.317,1.3045,1.2725,1.2224,1.1642,1.0939,1.0046,0.9016,0.7776,0.6524,0.5206,0.3886,0.2609,0.1505,0.0501,-0.039,-0.1395,-0.266,-0.4162,-0.5813,-0.7605,-0.9369,-1.1077,-1.1572,-1.1669,-1.3248,-1.4866,-1.6215,-1.7697,-1.861,0.8633,0.9068,0.9591,0.9844,0.9999,1.0316,1.0573,1.0624,1.0667,1.0828,1.1015,1.1065,1.1326,1.1619,1.1669,1.1819,1.2109,1.2475,1.2724,1.3023,1.3761,1.4297,1.4715,1.5223,1.5736,1.6151,1.6524,1.6874,1.74,1.7946,1.834,1.8898,1.9383,1.9596,2.0028,2.0649,2.118,2.1541,2.1629,2.1467,2.1304,2.1189,2.0642,2.0141,1.9522,1.9432,1.953,1.9494,1.9538,1.9538,1.9398,1.9325,1.9302,1.9159,1.9084,1.9031,1.9078,1.9093,1.9098,1.9205,1.9168,1.8979,1.8673,1.8307,1.7895,1.7463,1.7053,1.6552,1.613,1.5641,1.5233,1.4891,1.4523,1.415,1.3915,1.3668,1.342,1.3324,1.3306,1.3278,1.3344,1.342,1.3467,1.3467,1.3324,1.318,1.3094,1.2706,1.2116,1.1334,1.0527,0.9343,0.8254,0.6753,0.5374,0.3996,0.2672,0.1394,0.0167,-0.0946,-0.2106,-0.3314,-0.4667,-0.6212,-0.8152,-1.0108,-1.2368,-1.4566,-1.5154,-1.5824,-1.6596,-1.8001,-1.9259,-2.0134,-2.0799,0.885,0.9159,0.9636,0.9851,0.9903,1.0213,1.0419,1.047,1.0522,1.0624,1.0769,1.0972,1.1226,1.1427,1.1628,1.1787,1.2068,1.2479,1.2788,1.332,1.41,1.4649,1.5118,1.5543,1.6009,1.6363,1.6761,1.7418,1.8102,1.8576,1.9324,1.9925,2.0311,2.0583,2.0489,2.0749,2.1109,2.1423,2.1492,2.154,2.1648,2.1527,2.1281,2.0827,2.0197,1.9929,1.9918,1.9744,1.9605,1.9553,1.9403,1.9261,1.9185,1.9061,1.8965,1.8908,1.8941,1.8912,1.8927,1.8988,1.8965,1.8792,1.8531,1.8123,1.7679,1.7261,1.6789,1.6367,1.5961,1.5504,1.5062,1.4903,1.4581,1.4161,1.3868,1.3716,1.3515,1.3515,1.3478,1.3402,1.344,1.3498,1.3546,1.3286,1.3094,1.2793,1.2598,1.2255,1.1719,1.0771,0.9923,0.8592,0.7331,0.572,0.4168,0.2611,0.1107,-0.0276,-0.1494,-0.266,-0.3865,-0.5259,-0.6912,-0.8564,-1.0606,-1.2666,-1.5036,-1.7315,-1.9076,-2.0161,-2.0194,-2.0337,-2.1111,-2.1817,-2.2384,0.9008,0.9316,0.9636,0.9799,0.9851,1.011,1.0213,1.0213,1.0316,1.036,1.0565,1.082,1.1124,1.1377,1.1578,1.1962,1.2204,1.2752,1.321,1.3737,1.444,1.4974,1.5458,1.5884,1.6296,1.668,1.7294,1.7978,1.8578,1.9228,1.9951,2.0689,2.1412,2.1272,2.1094,2.1146,2.1173,2.1301,2.1361,2.1492,2.1641,2.1667,2.1631,2.1383,2.1024,2.0735,2.0483,2.0201,1.9909,1.9778,1.9662,1.9466,1.9401,1.9296,1.9216,1.9202,1.9131,1.9254,1.9458,1.9572,1.9603,1.929,1.8601,1.8016,1.7557,1.7149,1.6701,1.6293,1.5921,1.5494,1.5085,1.4925,1.4669,1.4247,1.4137,1.3983,1.391,1.3882,1.4047,1.3967,1.3854,1.3793,1.3511,1.3113,1.2861,1.2461,1.2116,1.1619,1.1116,1.0151,0.8992,0.7629,0.6105,0.4358,0.2666,0.1055,-0.0442,-0.1872,-0.3361,-0.4816,-0.6091,-0.7559,-0.9228,-1.0991,-1.3155,-1.5332,-1.7796,-1.9902,-2.1325,-2.2173,-2.2453,-2.2672,-2.3066,-2.3259,-2.3518,0.9159,0.942,0.9695,0.9799,0.9799,0.9947,0.9991,0.9991,0.9999,1.0213,1.047,1.0624,1.0972,1.1427,1.1619,1.2016,1.2626,1.3146,1.3653,1.4232,1.4936,1.539,1.5816,1.6249,1.6711,1.7294,1.791,1.8589,1.9068,2.018,2.0894,2.1215,2.175,2.1762,2.1728,2.1624,2.1433,2.1332,2.1171,2.134,2.15,2.1819,2.1805,2.1634,2.1528,2.1381,2.1133,2.0843,2.0732,2.0623,2.0415,2.0288,2.0202,2.0057,2.0028,1.9945,1.9737,1.9992,2.0245,2.0316,2.0147,1.9598,1.8852,1.814,1.7674,1.7355,1.693,1.6492,1.6146,1.5602,1.5165,1.4978,1.4799,1.4655,1.4595,1.4482,1.4437,1.4531,1.4749,1.4749,1.4655,1.4357,1.3689,1.3185,1.2513,1.1796,1.1251,1.0438,0.9903,0.9155,0.7941,0.6406,0.4758,0.2885,0.1115,-0.101,-0.289,-0.4666,-0.6032,-0.7441,-0.8678,-1.0288,-1.2299,-1.4228,-1.5862,-1.8058,-2.0667,-2.2182,-2.3154,-2.3823,-2.4349,-2.3963,-2.4032,-2.3903,-2.4059,0.9159,0.9413,0.9569,0.9673,0.9673,0.9725,0.9725,0.9725,0.9784,0.9955,1.0154,1.0573,1.0922,1.1217,1.1528,1.207,1.27,1.3255,1.3938,1.459,1.5302,1.5796,1.6249,1.6658,1.7216,1.7864,1.8543,1.9345,2.0405,2.1404,2.2005,2.2402,2.2439,2.2475,2.2337,2.2235,2.1792,2.1394,2.1125,2.1162,2.1388,2.1746,2.1801,2.1893,2.1751,2.1657,2.1528,2.1126,2.0884,2.0571,2.0429,2.0286,2.0085,2.0041,2.0041,2.0114,2.0088,2.0231,2.0344,2.04,2.0311,1.9898,1.9145,1.8711,1.8222,1.7791,1.7297,1.6809,1.6432,1.5978,1.5646,1.5452,1.5208,1.506,1.4991,1.4965,1.4914,1.4955,1.5108,1.5001,1.4911,1.4343,1.3667,1.2957,1.2196,1.1285,1.035,0.9439,0.854,0.7763,0.648,0.493,0.2713,0.0627,-0.1595,-0.3738,-0.5621,-0.745,-0.9012,-1.0617,-1.2282,-1.3941,-1.573,-1.7501,-1.9301,-2.1418,-2.3744,-2.4678,-2.4927,-2.5698,-2.6182,-2.5481,-2.4949,-2.4899,-2.4817,0.9316,0.9465,0.9562,0.9614,0.9614,0.9614,0.9614,0.9681,0.974,0.9903,1.0154,1.0514,1.0922,1.1267,1.1654,1.2226,1.3053,1.3616,1.4308,1.5145,1.5716,1.6197,1.6637,1.7065,1.7699,1.8419,1.9195,2.003,2.1164,2.2104,2.2811,2.2847,2.303,2.2937,2.2753,2.2483,2.212,2.1676,2.1342,2.1176,2.126,2.1506,2.1759,2.1974,2.1812,2.1877,2.1851,2.141,2.1207,2.0971,2.0941,2.073,2.0562,2.0562,2.0607,2.0753,2.0844,2.0903,2.0931,2.0844,2.0562,2.0153,1.968,1.9304,1.87,1.8138,1.7629,1.7134,1.6758,1.6458,1.6227,1.6008,1.568,1.5423,1.5416,1.5341,1.5349,1.5301,1.5253,1.5129,1.4715,1.4183,1.3483,1.269,1.1758,1.0616,0.926,0.7886,0.6939,0.6041,0.4646,0.2978,0.0522,-0.1887,-0.4262,-0.6837,-0.8928,-1.093,-1.2619,-1.4229,-1.5918,-1.7478,-1.9086,-2.0933,-2.285,-2.45,-2.5676,-2.6093,-2.6427,-2.7136,-2.7484,-2.6864,-2.6338,-2.6208,-2.609,0.9465,0.9614,0.9614,0.9614,0.9614,0.9614,0.9681,0.9799,0.9851,0.9999,1.0368,1.0616,1.1023,1.1436,1.1867,1.2599,1.3387,1.4022,1.4743,1.5768,1.6161,1.6591,1.7022,1.7445,1.8194,1.9022,1.983,2.064,2.1535,2.2395,2.2909,2.2921,2.3017,2.305,2.2962,2.2745,2.2363,2.1834,2.1601,2.1432,2.1143,2.1277,2.152,2.1759,2.1941,2.2175,2.2221,2.2175,2.217,2.1921,2.1704,2.1349,2.1164,2.1137,2.126,2.1356,2.1389,2.1423,2.1348,2.1254,2.1048,2.0762,2.0459,1.9775,1.9007,1.8397,1.7852,1.7502,1.7139,1.6849,1.6624,1.6381,1.6105,1.5871,1.5771,1.5646,1.5497,1.5431,1.5296,1.5135,1.4649,1.4044,1.3085,1.2273,1.0834,0.9788,0.8166,0.6525,0.4568,0.3605,0.1828,0.0117,-0.2383,-0.5189,-0.7899,-1.0387,-1.2547,-1.4468,-1.6244,-1.7849,-1.9553,-2.0966,-2.2327,-2.3996,-2.5559,-2.6019,-2.6868,-2.7364,-2.7791,-2.8026,-2.8226,-2.8008,-2.7782,-2.7668,-2.7214,0.9465,0.9614,0.9614,0.9614,0.9621,0.9732,0.974,0.9851,1.0213,1.0368,1.047,1.0769,1.1141,1.1598,1.2235,1.2976,1.3844,1.4482,1.5279,1.6038,1.6602,1.6976,1.7379,1.7845,1.8667,1.9666,2.0497,2.1245,2.2187,2.2761,2.2957,2.3017,2.3125,2.3125,2.3125,2.2993,2.2693,2.2014,2.1908,2.1498,2.1043,2.1095,2.1326,2.152,2.1759,2.1902,2.1983,2.1935,2.1746,2.1568,2.152,2.1313,2.1118,2.1118,2.1277,2.1423,2.1506,2.152,2.1423,2.1277,2.097,2.0523,2.0067,1.9604,1.9077,1.8594,1.8172,1.7843,1.75,1.7232,1.695,1.671,1.6492,1.629,1.6063,1.5833,1.5588,1.5458,1.5323,1.4942,1.4492,1.3635,1.2722,1.1483,1.0016,0.8366,0.6511,0.442,0.136,-0.0432,-0.252,-0.432,-0.6094,-0.8763,-1.1578,-1.4167,-1.6389,-1.8406,-2.0229,-2.1788,-2.3158,-2.4249,-2.5362,-2.6702,-2.7967,-2.8044,-2.827,-2.8946,-2.9283,-2.9175,-2.918,-2.9097,-2.9306,-2.9267,-2.8561,0.951,0.9614,0.9614,0.9621,0.9681,0.9792,0.9903,1.011,1.0419,1.0616,1.0871,1.1032,1.1404,1.1891,1.259,1.3421,1.4301,1.4879,1.5639,1.6409,1.6987,1.7368,1.78,1.8357,1.9282,2.0294,2.1304,2.2161,2.2847,2.2969,2.3017,2.3065,2.3125,2.3113,2.3173,2.3229,2.291,2.2069,2.2047,2.1628,2.0957,2.0961,2.1144,2.134,2.152,2.1664,2.165,2.1602,2.1471,2.1229,2.1118,2.097,2.0871,2.0871,2.1033,2.118,2.1264,2.1264,2.1118,2.0921,2.066,2.0169,1.9656,1.9146,1.8738,1.8274,1.8096,1.781,1.75,1.7203,1.6971,1.6738,1.6525,1.6342,1.5887,1.5553,1.5168,1.4864,1.4666,1.4359,1.3717,1.2926,1.1859,1.0602,0.9042,0.6885,0.5085,0.1828,-0.1199,-0.4796,-0.6828,-0.9239,-1.1348,-1.3127,-1.5762,-1.8193,-2.0449,-2.24,-2.4049,-2.5122,-2.6179,-2.7235,-2.8375,-2.8864,-2.9221,-2.9341,-2.97,-2.9964,-3.0091,-2.9895,-3.0052,-3.0227,-3.0441,-3.0441,-2.9751,0.9614,0.9614,0.9621,0.9681,0.9799,0.9903,1.0102,1.047,1.0573,1.0871,1.1243,1.1446,1.191,1.2407,1.2991,1.3892,1.472,1.5442,1.615,1.6768,1.7301,1.77,1.8267,1.8978,1.996,2.1013,2.2038,2.2538,2.2957,2.3017,2.3078,2.3065,2.3075,2.3085,2.3217,2.3132,2.2674,2.2085,2.1794,2.1498,2.108,2.0825,2.1023,2.1158,2.1277,2.1361,2.1361,2.1313,2.118,2.0934,2.0723,2.0623,2.0623,2.0623,2.0772,2.0921,2.097,2.097,2.0809,2.056,2.0156,1.9759,1.9251,1.8756,1.834,1.8024,1.7835,1.7709,1.7407,1.7272,1.6977,1.6753,1.6535,1.6077,1.5594,1.5118,1.4656,1.424,1.3932,1.3563,1.274,1.192,1.0683,0.9414,0.7553,0.5422,0.2604,-0.0706,-0.4275,-0.834,-1.1542,-1.458,-1.7456,-1.9179,-2.0281,-2.2044,-2.4169,-2.5604,-2.712,-2.8181,-2.9035,-2.9514,-2.979,-2.9874,-3.0178,-3.0162,-3.0117,-3.0218,-3.0328,-3.0535,-3.0462,-3.0491,-3.0511,-3.0511,-3.0501,0.9614,0.9614,0.9732,0.9792,0.9851,1.0205,1.0411,1.0573,1.0972,1.1217,1.1497,1.2109,1.2574,1.269,1.3527,1.4375,1.528,1.5945,1.6581,1.72,1.7645,1.803,1.8666,1.9662,2.0576,2.1621,2.2501,2.287,2.298,2.304,2.3113,2.3075,2.269,2.2635,2.2616,2.2464,2.2227,2.1755,2.1602,2.1316,2.0949,2.0775,2.0888,2.0974,2.1046,2.118,2.1277,2.1068,2.0709,2.0472,2.0334,2.0271,2.0321,2.0422,2.0573,2.0623,2.0723,2.0673,2.051,2.0169,1.9811,1.9408,1.8881,1.8344,1.7922,1.7467,1.7345,1.7402,1.7252,1.7266,1.7067,1.6763,1.6465,1.5547,1.4883,1.441,1.3941,1.3364,1.2923,1.2174,1.1293,1.0197,0.8787,0.7265,0.536,0.3015,0.0,-0.3465,-0.8085,-1.2112,-1.6198,-1.959,-2.2976,-2.3705,-2.4253,-2.5697,-2.754,-2.8929,-2.9908,-3.0496,-3.0937,-3.1194,-3.1376,-3.1249,-3.0835,-3.0625,-3.0609,-3.0975,-3.0858,-3.1,-3.0704,-3.0583,-3.0676,-3.0729,-3.0856]},{"header":{"parameterUnit":"m.s-1","parameterCategory":1,"la1":31.0,"la2":29.5877,"lo1":-88.7671,"lo2":-86.6584,"dx":0.0162,"dy":0.0185,"nx":115,"ny":88,"refTime":"2023-01-31T06:00:00:Z","depth":0,"parameterNumber":3,"parameterNumberName":"V-component_of_WINDS"},"data":[0.0,0.0,0.0,0.0,0.0,0.0,0.0,0.0,0.0,0.0,0.0,0.0,0.0,0.0,0.0,0.0,0.0,0.0,0.0,0.0,0.0,0.0,0.0,0.0,0.0,0.0,0.0,0.0,0.0,0.0,0.0,0.0,0.0,0.0,0.0,0.0,0.0,0.0,0.0,0.0,0.0,0.0,0.0,0.0,0.0,0.0,0.0,0.0,0.0,0.0,0.0,0.0,0.0,0.0,0.0,0.0,0.0,0.0,0.0,0.0,0.0,0.0,0.0,0.0,0.0,0.0,0.0,0.0,0.0,0.0,0.0,0.0,0.0,0.0,0.0,0.0,0.0,0.0,0.0,0.0,0.0,0.0,0.0,0.0,0.0,0.0,0.0,0.0,0.0,0.0,0.0,0.0,0.0,0.0,0.0,0.0,0.0,0.0,0.0,0.0,0.0,0.0,0.0,0.0,0.0,0.0,0.0,0.0,0.0,0.0,0.0,0.0,0.0,0.0,0.0,0.0,0.0,0.0,0.0,0.0,0.0,0.0,0.0,0.0,0.0,0.0,0.0,0.0,0.0,0.0,0.0,0.0,0.0,0.0,0.0,0.0,0.0,0.0,0.0,0.0,0.0,0.0,0.0,0.0,0.0,0.0,0.0,0.0,0.0,0.0,0.0,0.0,0.0,0.0,0.0,0.0,0.0,0.0,0.0,0.0,0.0,0.0,0.0,0.0,0.0,0.0,0.0,0.0,0.0,0.0,0.0,0.0,0.0,0.0,0.0,0.0,0.0,0.0,0.0,0.0,0.0,0.0,0.0,0.0,0.0,0.0,0.0,0.0,0.0,0.0,0.0,0.0,0.0,0.0,0.0,0.0,0.0,0.0,0.0,0.0,0.0,0.0,0.0,0.0,0.0,0.0,0.0,0.0,0.0,0.0,0.0,0.0,0.0,0.0,0.0,0.0,0.0,0.0,0.0,0.0,0.0,0.0,0.0,0.0,0.0,0.0,0.0,0.0,0.0,0.0,0.0,0.0,0.0,0.0,0.0,0.0,0.0,0.0,0.0,0.0,0.0,0.0,0.0,0.0,0.0,0.0,0.0,0.0,0.0,0.0,0.0,0.0,0.0,0.0,0.0,0.0,0.0,0.0,0.0,0.0,0.0,0.0,0.0,0.0,0.0,0.0,0.0,0.0,0.0,0.0,0.0,0.0,0.0,0.0,0.0,0.0,0.0,0.0,0.0,0.0,0.0,0.0,0.0,0.0,0.0,0.0,0.0,0.0,0.0,0.0,0.0,0.0,0.0,0.0,0.0,0.0,0.0,0.0,0.0,0.0,0.0,0.0,0.0,0.0,0.0,0.0,0.0,0.0,0.0,0.0,0.0,0.0,0.0,0.0,0.0,0.0,0.0,0.0,0.0,0.0,0.0,0.0,0.0,0.0,0.0,0.0,0.0,0.0,0.0,0.0,0.0,0.0,0.0,0.0,0.0,0.0,0.0,0.0,0.0,0.0,0.0,0.0,0.0,0.0,0.0,0.0,0.0,0.0,0.0,0.0,0.0,0.0,0.0,0.0,0.0,0.0,0.0,0.0,0.0,0.0,0.0,0.0,0.0,0.0,0.0,0.0,0.0,0.0,0.0,0.0,0.0,0.0,0.0,0.0,0.0,0.0,0.0,0.0,0.0,0.0,0.0,0.0,0.0,0.0,0.0,0.0,0.0,0.0,0.0,0.0,0.0,0.0,0.0,0.0,0.0,0.0,0.0,0.0,0.0,0.0,0.0,0.0,0.0,0.0,0.0,0.0,0.0,0.0,0.0,0.0,0.0,0.0,0.0,0.0,0.0,0.0,0.0,0.0,0.0,0.0,0.0,0.0,0.0,0.0,0.0,0.0,0.0,0.0,0.0,0.0,0.0,0.0,0.0,0.0,0.0,0.0,0.0,0.0,0.0,0.0,0.0,0.0,0.0,0.0,0.0,0.0,0.0,0.0,0.0,0.0,0.0,0.0,0.0,0.0,0.0,0.0,0.0,0.0,0.0,0.0,0.0,0.0,0.0,0.0,0.0,0.0,0.0,0.0,0.0,0.0,0.0,0.0,0.0,0.0,0.0,0.0,0.0,0.0,0.0,0.0,0.0,0.0,0.0,0.0,0.0,0.0,0.0,0.0,0.0,0.0,0.0,0.0,0.0,0.0,0.0,0.0,0.0,0.0,0.0,0.0,0.0,0.0,0.0,0.0,0.0,0.0,0.0,0.0,0.0,0.0,0.0,0.0,0.0,0.0,0.0,0.0,0.0,0.0,0.0,0.0,0.0,0.0,0.0,0.0,0.0,0.0,0.0,0.0,0.0,0.0,0.0,0.0,0.0,0.0,0.0,0.0,0.0,0.0,0.0,0.0,0.0,0.0,0.0,0.0,0.0,0.0,0.0,0.0,0.0,0.0,0.0,0.0,0.0,0.0,0.0,0.0,0.0,0.0,0.0,0.0,0.0,0.0,0.0,0.0,0.0,0.0,0.0,0.0,0.0,0.0,0.0,0.0,0.0,0.0,0.0,0.0,0.0,0.0,0.0,0.0,0.0,0.0,0.0,0.0,0.0,0.0,0.0,0.0,0.0,0.0,0.0,0.0,0.0,0.0,0.0,0.0,0.0,0.0,0.0,0.0,0.0,0.0,0.0,0.0,0.0,0.0,0.0,0.0,0.0,0.0,0.0,0.0,0.0,0.0,0.0,0.0,0.0,0.0,0.0,0.0,0.0,0.0,0.0,0.0,0.0,0.0,0.0,0.0,0.0,0.0,0.0,0.0,0.0,0.0,0.0,0.0,0.0,0.0,0.0,0.0,0.0,0.0,0.0,0.0,0.0,0.0,0.0,0.0,0.0,0.0,0.0,0.0,0.0,0.0,0.0,0.0,0.0,0.0,0.0,0.0,0.0,0.0,0.0,0.0,0.0,0.0,0.0,0.0,0.0,0.0,0.0,0.0,0.0,0.0,0.0,0.0,0.0,0.0,0.0,0.0,0.0,0.0,0.0,0.0,0.0,0.0,0.0,0.0,0.0,0.0,0.0,0.0,0.0,0.0,0.0,0.0,0.0,0.0,0.0,0.0,0.0,0.0,0.0,0.0,0.0,0.0,0.0,0.0,0.0,0.0,0.0,0.0,0.0,0.0,0.0,0.0,0.0,0.0,0.0,0.0,0.0,0.0,0.0,0.0,0.0,0.0,0.0,0.0,0.0,0.0,0.0,0.0,0.0,0.0,0.0,0.0,0.0,0.0,0.0,0.0,0.0,0.0,0.0,0.0,0.0,0.0,0.0,0.0,0.0,0.0,0.0,0.0,0.0,0.0,0.0,0.0,0.0,0.0,0.0,0.0,0.0,0.0,0.0,0.0,0.0,0.0,0.0,0.0,0.0,0.0,0.0,0.0,0.0,0.0,0.0,0.0,0.0,0.0,0.0,0.0,0.0,0.0,0.0,0.0,0.0,0.0,0.0,0.0,0.0,0.0,0.0,0.0,0.0,0.0,0.0,0.0,0.0,0.0,0.0,0.0,0.0,0.0,0.0,0.0,0.0,0.0,0.0,0.0,0.0,0.0,0.0,0.0,0.0,0.0,0.0,0.0,0.0,0.0,0.0,0.0,0.0,0.0,0.0,0.0,0.0,0.0,0.0,0.0,0.0,0.0,0.0,0.0,0.0,0.0,0.0,0.0,0.0,0.0,0.0,0.0,0.0,0.0,0.0,0.0,0.0,0.0,0.0,0.0,0.0,0.0,0.0,0.0,0.0,0.0,0.0,0.0,0.0,0.0,0.0,0.0,0.0,0.0,0.0,0.0,0.0,0.0,0.0,0.0,0.0,0.0,0.0,0.0,0.0,0.0,0.0,0.0,0.0,0.0,0.0,0.0,0.0,0.0,0.0,0.0,0.0,0.0,0.0,0.0,0.0,0.0,0.0,0.0,0.0,0.0,0.0,0.0,0.0,0.0,0.0,0.0,0.0,0.0,0.0,0.0,0.0,0.0,0.0,0.0,0.0,0.0,0.0,0.0,0.0,0.0,0.0,0.0,0.0,0.0,0.0,0.0,0.0,0.0,0.0,0.0,0.0,0.0,0.0,0.0,0.0,0.0,0.0,0.0,0.0,0.0,0.0,0.0,0.0,0.0,0.0,0.0,0.0,0.0,0.0,0.0,0.0,0.0,0.0,0.0,0.0,0.0,0.0,0.0,0.0,0.0,0.0,0.0,0.0,0.0,0.0,0.0,0.0,0.0,0.0,0.0,0.0,0.0,-1.9525,0.0,0.0,0.0,0.0,0.0,0.0,0.0,0.0,0.0,0.0,0.0,0.0,0.0,0.0,0.0,0.0,0.0,0.0,0.0,0.0,0.0,0.0,0.0,0.0,0.0,0.0,0.0,0.0,0.0,0.0,0.0,0.0,0.0,0.0,0.0,0.0,0.0,0.0,0.0,0.0,0.0,0.0,0.0,0.0,0.0,0.0,0.0,0.0,0.0,0.0,0.0,0.0,0.0,0.0,0.0,0.0,0.0,0.0,0.0,0.0,0.0,0.0,0.0,0.0,0.0,0.0,0.0,0.0,0.0,0.0,0.0,0.0,0.0,0.0,0.0,0.0,0.0,0.0,0.0,0.0,0.0,0.0,0.0,0.0,0.0,0.0,0.0,0.0,0.0,0.0,0.0,0.0,0.0,0.0,0.0,0.0,0.0,0.0,0.0,0.0,0.0,0.0,0.0,0.0,0.0,0.0,0.0,0.0,0.0,0.0,-0.199,-0.3535,-1.2272,-1.7907,-1.9706,0.0,0.0,0.0,0.0,0.0,0.0,0.0,0.0,0.0,0.0,0.0,0.0,0.0,0.0,0.0,0.0,0.0,0.0,0.0,0.0,0.0,0.0,0.0,0.0,0.0,0.0,0.0,0.0,0.0,0.0,0.0,0.0,0.0,0.0,0.0,0.0,0.0,0.0,0.0,0.0,0.0,0.0,0.0,0.0,0.0,0.0,0.0,0.0,0.0,0.0,0.0,0.0,0.0,0.0,0.0,0.0,0.0,0.0,0.0,0.0,0.0,0.0,0.0,0.0,0.0,0.0,0.0,0.0,0.0,0.0,0.0,0.0,0.0,0.0,0.0,0.0,0.0,0.0,0.0,0.0,0.0,0.0,0.0,0.0,0.0,0.0,0.0,0.0,0.0,0.0,0.0,0.0,0.0,0.0,0.0,0.0,0.0,0.0,0.0,0.0,0.0,0.0,0.0,0.0,0.0,0.0,0.0,0.0,0.0,0.0,0.0,0.0,-1.2256,-1.7779,-1.9365,0.0,0.0,0.0,0.0,0.0,0.0,0.0,0.0,0.0,0.0,0.0,0.0,0.0,0.0,0.0,0.0,0.0,0.0,0.0,0.0,0.0,0.0,0.0,0.0,0.0,0.0,0.0,0.0,0.0,0.0,0.0,0.0,0.0,0.0,0.0,0.0,0.0,0.0,0.0,0.0,0.0,0.0,0.0,0.0,0.0,0.0,0.0,0.0,0.0,0.0,0.0,0.0,0.0,0.0,0.0,0.0,0.0,0.0,0.0,0.0,0.0,0.0,0.0,0.0,0.0,0.0,0.0,0.0,0.0,0.0,0.0,0.0,0.0,0.0,0.0,0.0,0.0,0.0,0.0,0.0,0.0,0.0,0.0,0.0,0.0,0.0,0.0,0.0,0.0,0.0,0.0,0.0,0.0,0.0,0.0,0.0,0.0,0.0,0.0,0.0,0.0,0.0,0.0,0.0,0.0,0.0,0.0,0.0,0.0,0.0,-0.2616,-0.2495,-1.2909,0.0,-1.8722,0.0,0.0,0.0,0.0,0.0,0.0,0.0,0.0,0.0,0.0,0.0,0.0,0.0,0.0,0.0,0.0,0.0,0.0,0.0,0.0,0.0,0.0,0.0,0.0,0.0,0.0,0.0,0.0,0.0,0.0,0.0,0.0,0.0,0.0,0.0,0.0,0.0,0.0,0.0,0.0,0.0,0.0,0.0,0.0,0.0,0.0,0.0,0.0,0.0,0.0,0.0,0.0,0.0,0.0,0.0,0.0,0.0,0.0,0.0,0.0,0.0,0.0,0.0,0.0,0.0,0.0,0.0,0.0,0.0,0.0,0.0,0.0,0.0,0.0,0.0,0.0,0.0,0.0,0.0,0.0,0.0,0.0,0.0,0.0,0.0,0.0,0.0,0.0,0.0,0.0,0.0,0.0,0.0,0.0,0.0,0.0,0.0,0.0,0.0,0.0,0.0,0.0,0.0,0.0,0.0,0.0,0.0,0.0,0.0,0.0,-0.2836,-0.3954,-1.4497,-1.9384,0.0,0.0,0.0,0.0,0.0,0.0,0.0,0.0,0.0,0.0,0.0,0.0,0.0,0.0,0.0,0.0,0.0,0.0,0.0,0.0,0.0,0.0,0.0,0.0,0.0,0.0,0.0,0.0,0.0,0.0,0.0,0.0,0.0,0.0,0.0,0.0,0.0,0.0,0.0,0.0,0.0,0.0,0.0,0.0,0.0,0.0,0.0,0.0,0.0,0.0,0.0,0.0,0.0,0.0,0.0,0.0,0.0,0.0,0.0,0.0,0.0,0.0,0.0,0.0,0.0,0.0,0.0,0.0,0.0,0.0,0.0,0.0,0.0,0.0,0.0,0.0,0.0,0.0,0.0,0.0,0.0,0.0,0.0,0.0,0.0,0.0,0.0,0.0,0.0,0.0,0.0,0.0,0.0,0.0,0.0,0.0,0.0,0.0,0.0,0.0,0.0,0.0,0.0,0.0,0.0,0.0,0.0,0.0,0.0,0.0,0.2688,-0.4506,-0.9597,-1.6395,-1.9209,-1.7379,0.0,0.0,0.0,0.0,0.0,0.0,0.0,0.0,0.0,0.0,0.0,0.0,0.0,0.0,0.0,0.0,0.0,0.0,0.0,0.0,0.0,0.0,0.0,0.0,0.0,0.0,0.0,0.0,0.0,0.0,0.0,0.0,0.0,0.0,0.0,0.0,0.0,0.0,0.0,0.0,0.0,0.0,0.0,0.0,0.0,0.0,0.0,0.0,0.0,0.0,0.0,0.0,0.0,0.0,0.0,0.0,0.0,0.0,0.0,0.0,0.0,0.0,0.0,0.0,0.0,0.0,0.0,0.0,0.0,0.0,0.0,0.0,0.0,0.0,0.0,0.0,0.0,0.0,0.0,0.0,0.0,0.0,0.0,0.0,0.0,0.0,0.0,0.0,0.0,0.0,0.0,0.0,0.0,0.0,0.0,0.0,0.0,0.0,0.0,0.0,0.0,0.0,0.0,0.0,0.0,0.0,0.0,0.0,1.3167,0.283,-0.8464,-1.9701,-1.8631,-1.767,0.0,0.0,0.0,0.0,0.0,0.0,0.0,0.0,0.0,0.0,0.0,0.0,0.0,0.0,0.0,0.0,0.0,0.0,0.0,0.0,0.0,0.0,0.0,0.0,0.0,0.0,0.0,0.0,0.0,0.0,0.0,0.0,0.0,0.0,0.0,0.0,0.0,0.0,0.0,0.0,0.0,0.0,0.0,0.0,0.0,0.0,0.0,0.0,0.0,0.0,0.0,0.0,0.0,0.0,0.0,0.0,0.0,0.0,0.0,0.0,0.0,0.0,0.0,0.0,0.0,0.0,0.0,0.0,0.0,0.0,0.0,0.0,0.0,0.0,0.0,0.0,0.0,0.0,0.0,0.0,0.0,0.0,0.0,0.0,0.0,0.0,0.0,0.0,0.0,0.0,0.0,0.0,0.0,0.0,0.0,0.0,0.0,0.0,0.0,0.0,0.0,0.0,0.0,0.0,0.0,0.0,0.0,0.0,0.0,1.0165,0.0561,-0.8639,-1.6643,-1.7803,-1.7814,0.0,0.0,0.0,0.0,0.0,0.0,0.0,0.0,0.0,0.0,0.0,0.0,0.0,0.0,0.0,0.0,0.0,0.0,0.0,0.0,0.0,0.0,0.0,0.0,0.0,0.0,0.0,0.0,0.0,0.0,0.0,0.0,0.0,0.0,0.0,0.0,0.0,0.0,0.0,0.0,0.0,0.0,0.0,0.0,0.0,0.0,0.0,0.0,0.0,0.0,0.0,0.0,0.0,0.0,0.0,0.0,0.0,0.0,0.0,0.0,0.0,0.0,0.0,0.0,0.0,0.0,0.0,0.0,0.0,0.0,0.0,0.0,0.0,0.0,0.0,0.0,0.0,0.0,0.0,0.0,0.0,0.0,0.0,0.0,0.0,0.0,0.0,0.0,0.0,0.0,0.0,0.0,0.0,0.0,0.0,0.0,0.0,0.0,0.0,0.0,0.0,0.0,0.0,0.0,0.0,0.0,0.0,0.0,0.0,0.647,0.0,-0.7304,-1.2909,-1.5839,-1.6077,0.0,0.0,0.0,0.0,0.0,0.0,0.0,0.0,0.0,0.0,0.0,0.0,0.0,0.0,0.0,0.0,0.0,0.0,0.0,0.0,0.0,0.0,0.0,0.0,0.0,0.0,0.0,0.0,0.0,0.0,0.0,0.0,0.0,0.0,0.0,0.0,0.0,0.0,0.0,0.0,0.0,0.0,0.0,0.0,0.0,0.0,0.0,0.0,0.0,0.0,0.0,0.0,0.0,0.0,0.0,0.0,0.0,0.0,0.0,0.0,0.0,0.0,0.0,0.0,0.0,0.0,0.0,0.0,0.0,0.0,0.0,0.0,0.0,0.0,0.0,0.0,0.0,0.0,0.0,0.0,0.0,0.0,0.0,0.0,0.0,0.0,0.0,0.0,0.0,0.0,0.0,0.0,0.0,0.0,0.0,0.0,0.0,0.0,0.0,0.0,0.0,0.0,0.0,0.0,0.0,0.0,0.0,0.0,0.6228,0.2126,-0.0524,-0.4388,-0.9654,-1.2687,-1.2092,0.0,0.0,0.0,0.0,0.0,0.0,0.0,0.0,0.0,0.0,0.0,0.0,0.0,0.0,0.0,0.0,0.0,0.0,0.0,0.0,0.0,0.0,0.0,0.0,0.0,0.0,0.0,0.0,0.0,0.0,0.0,0.0,0.0,0.0,0.0,0.0,0.0,0.0,0.0,0.0,0.0,0.0,0.0,0.0,0.0,0.0,0.0,0.0,0.0,0.0,0.0,0.0,0.0,0.0,0.0,0.0,0.0,0.0,0.0,0.0,0.0,0.0,0.0,0.0,0.0,0.0,0.0,0.0,0.0,0.0,0.0,0.0,0.0,0.0,0.0,0.0,0.0,0.0,0.0,0.0,0.0,0.0,0.0,0.0,0.0,0.0,0.0,0.0,0.0,0.0,0.0,0.0,0.0,0.0,0.0,0.0,0.0,0.0,0.0,0.0,0.0,0.0,0.0,0.0,0.0,0.0,0.0,0.0,0.0,0.2588,0.2234,-0.0183,-0.4776,-0.7944,-0.9234,0.0,0.0,0.0,0.0,0.0,0.0,0.0,0.0,0.0,0.0,0.0,0.0,0.0,0.0,0.0,0.0,0.0,0.0,0.0,0.0,0.0,0.0,0.0,0.0,0.0,0.0,0.0,0.0,0.0,0.0,0.0,0.0,0.0,0.0,0.0,0.0,0.0,0.0,0.0,0.0,0.0,0.0,0.0,0.0,0.0,0.0,0.0,0.0,0.0,0.0,0.0,0.0,0.0,0.0,0.0,0.0,0.0,0.0,0.0,0.0,0.0,0.0,0.0,0.0,0.0,0.0,0.0,0.0,0.0,0.0,0.0,0.0,0.0,0.0,0.0,0.0,0.0,0.0,0.0,0.0,0.0,0.0,0.0,0.0,0.0,0.0,0.0,0.0,0.0,0.0,0.0,0.0,0.0,0.0,0.0,0.0,0.0,0.0,0.0,0.0,0.0,0.0,0.0,0.0,0.0,0.0,0.0,0.0,0.0,0.4375,0.4073,0.2924,0.0893,-0.3526,-0.617,-0.6771,0.0,0.0,0.0,0.0,0.0,0.0,0.0,0.0,0.0,0.0,0.0,0.0,0.0,0.0,0.0,0.0,0.0,0.0,0.0,0.0,0.0,0.0,0.0,0.0,0.0,0.0,0.0,0.0,0.0,0.0,0.0,0.0,0.0,0.0,0.0,0.0,0.0,0.0,0.0,0.0,0.0,0.0,0.0,0.0,0.0,0.0,0.0,0.0,0.0,0.0,0.0,0.0,0.0,0.0,0.0,0.0,0.0,0.0,0.0,0.0,0.0,0.0,0.0,0.0,0.0,0.0,0.0,0.0,0.0,0.0,0.0,0.0,0.0,0.0,0.0,0.0,0.0,0.0,0.0,0.0,0.0,0.0,0.0,0.0,0.0,0.0,0.0,0.0,0.0,0.0,0.0,0.0,0.0,0.0,0.0,0.0,0.0,0.0,0.0,0.0,0.0,0.0,0.0,0.0,0.0,0.0,0.0,0.0,0.7081,0.5211,0.5089,0.6665,0.028,-0.3058,0.0,0.0,0.0,0.0,0.0,0.0,0.0,0.0,0.0,0.0,0.0,0.0,0.0,0.0,0.0,0.0,0.0,0.0,0.0,0.0,0.0,0.0,0.0,0.0,0.0,0.0,0.0,0.0,0.0,0.0,0.0,0.0,0.0,0.0,0.0,0.0,0.0,0.0,0.0,0.0,0.0,0.0,0.0,0.0,0.0,0.0,0.0,0.0,0.0,0.0,0.0,0.0,0.0,0.0,0.0,0.0,0.0,0.0,0.0,0.0,0.0,0.0,0.0,0.0,0.0,0.0,0.0,0.0,0.0,0.0,0.0,0.0,0.0,0.0,0.0,0.0,0.0,0.0,0.0,0.0,0.0,0.0,0.0,0.0,0.0,0.0,0.0,0.0,0.0,0.0,0.0,0.0,0.0,0.0,0.0,0.0,0.0,0.0,0.0,0.0,0.0,0.0,0.0,0.0,0.0,0.0,0.0,0.0,0.0,0.7174,0.7836,0.8138,0.794,0.2096,-0.1276,0.0,0.0,0.0,0.0,0.0,0.0,0.0,0.0,0.0,0.0,0.0,0.0,0.0,0.0,0.0,0.0,0.0,0.0,0.0,0.0,0.0,0.0,0.0,0.0,0.0,0.0,0.0,0.0,0.0,0.0,0.0,0.0,0.0,0.0,0.0,0.0,0.0,0.0,0.0,0.0,0.0,0.0,0.0,0.0,0.0,0.0,0.0,0.0,0.0,0.0,0.0,0.0,0.0,0.0,0.0,0.0,0.0,0.0,0.0,0.0,0.0,0.0,0.0,0.0,0.0,0.0,0.0,0.0,0.0,0.0,0.0,0.0,0.0,0.0,0.0,0.0,0.0,0.0,0.0,0.0,0.0,0.0,0.0,0.0,0.0,0.0,0.0,0.0,0.0,0.0,0.0,0.0,0.0,0.0,0.0,0.0,0.0,0.0,0.0,0.0,0.0,0.0,0.0,0.0,0.0,0.0,0.0,0.0,0.5967,0.7917,0.8682,0.8746,0.8117,0.2908,-0.0484,0.0,0.0,0.0,0.0,0.0,0.0,0.0,0.0,0.0,0.0,0.0,0.0,0.0,0.0,0.0,0.0,0.0,0.0,0.0,0.0,0.0,0.0,0.0,0.0,0.0,0.0,0.0,0.0,0.0,0.0,0.0,0.0,0.0,0.0,0.0,0.0,0.0,0.0,0.0,0.0,0.0,0.0,0.0,0.0,0.0,0.0,0.0,0.0,0.0,0.0,0.0,0.0,0.0,0.0,0.0,0.0,0.0,0.0,0.0,0.0,0.0,0.0,0.0,0.0,0.0,0.0,0.0,0.0,0.0,0.0,0.0,0.0,0.0,0.0,0.0,0.0,0.0,0.0,0.0,0.0,0.0,0.0,0.0,0.0,0.0,0.0,0.0,0.0,0.0,0.0,0.0,0.0,0.0,0.0,0.0,0.0,0.0,0.0,0.0,0.0,0.0,0.0,0.0,0.0,0.0,0.0,0.0,0.0,0.4502,0.8744,0.8442,0.7984,0.7406,0.2998,-0.0327,0.0,0.0,0.0,0.0,0.0,0.0,0.0,0.0,0.0,0.0,0.0,0.0,0.0,0.0,0.0,0.0,0.0,0.0,0.0,0.0,0.0,0.0,0.0,0.0,0.0,0.0,0.0,0.0,0.0,0.0,0.0,0.0,0.0,0.0,0.0,0.0,0.0,0.0,0.0,0.0,0.0,0.0,0.0,0.0,0.0,0.0,0.0,0.0,0.0,0.0,0.0,0.0,0.0,0.0,0.0,0.0,0.0,0.0,0.0,0.0,0.0,0.0,0.0,0.0,0.0,0.0,0.0,0.0,0.0,0.0,0.0,0.0,0.0,0.0,0.0,0.0,0.0,0.0,0.0,0.0,0.0,0.0,0.0,0.0,0.0,0.0,0.0,0.0,0.0,0.0,0.0,0.0,0.0,0.0,0.0,0.0,0.0,0.0,0.0,0.0,0.0,0.0,0.0,0.0,0.0,0.0,0.0,0.0,0.6838,0.8075,0.8218,0.7878,0.6987,0.2671,-0.0342,0.0,0.0,0.0,0.0,0.0,0.0,0.0,0.0,0.0,0.0,0.0,0.0,0.0,0.0,0.0,0.0,0.0,0.0,0.0,0.0,0.0,0.0,0.0,0.0,0.0,0.0,0.0,0.0,0.0,0.0,0.0,0.0,0.0,0.0,0.0,0.0,0.0,0.0,0.0,0.0,0.0,0.0,0.0,0.0,0.0,0.0,0.0,0.0,-0.5107,0.0,0.0,0.0,0.0,0.0,0.0,0.0,0.0,0.0,0.0,0.0,0.0,0.0,0.0,0.0,0.0,0.0,0.0,0.0,0.0,0.0,0.0,0.0,0.0,0.0,0.0,0.0,0.0,0.0,0.0,0.0,0.0,0.0,0.0,0.0,0.0,0.0,0.0,0.0,0.0,0.0,0.0,0.0,0.0,0.0,0.0,0.0,0.0,0.0,0.0,0.0,0.0,0.0,0.0,0.0,0.0,0.0,0.0,0.0,0.8273,0.8976,0.8659,0.8021,0.6939,0.3709,0.0664,0.0,0.0,0.0,0.0,0.0,0.0,0.0,0.0,0.0,0.0,0.0,0.0,0.0,0.0,0.0,0.0,0.0,0.0,0.0,0.0,0.0,0.0,0.0,0.0,0.0,0.0,0.0,0.0,0.0,0.0,0.0,0.0,0.0,0.0,0.0,0.0,0.0,0.0,0.0,0.0,0.0,0.0,0.0,0.0,0.0,0.0,0.0,0.0,0.0,0.0,0.0,0.0,0.0,0.0,0.0,0.0,0.0,0.0,0.0,0.0,0.0,0.0,0.0,0.0,0.0,0.0,0.0,0.0,0.0,0.0,0.0,0.0,0.0,0.0,0.0,0.0,0.0,0.0,0.0,0.0,0.0,0.0,0.0,0.0,0.0,0.0,0.0,0.0,0.0,0.0,0.0,0.0,0.0,0.0,0.0,0.0,0.0,0.0,0.0,0.0,0.0,0.0,0.0,0.0,0.0,0.0,0.0,0.7559,0.9131,1.0008,0.9193,0.8187,0.7067,0.473,0.1507,-0.2617,0.0,0.0,0.0,0.0,0.0,0.0,0.0,0.0,0.0,0.0,0.0,0.0,0.0,0.0,0.0,0.0,0.0,0.0,0.0,0.0,0.0,0.0,0.0,0.0,0.0,0.0,0.0,0.0,0.0,0.0,0.0,0.0,0.0,0.0,0.0,0.0,0.0,0.0,-0.2889,-0.2741,0.0,0.0,0.0,0.0,0.0,0.0,0.0,0.0,-0.5353,0.0,0.0,0.0,0.0,0.0,0.0,0.0,0.0,0.0,0.0,0.0,0.0,0.0,0.0,0.0,0.0,0.0,0.0,0.0,0.0,0.0,0.0,0.0,0.0,0.0,0.0,0.0,0.0,0.0,0.0,0.0,0.0,0.0,0.0,0.0,0.0,0.0,0.0,0.0,0.0,0.0,0.0,0.0,0.0,0.0,0.0,0.0,0.0,0.0,0.0,0.0,0.0,0.0,0.0,0.0,0.0,0.7718,0.8924,0.9416,0.9194,0.8875,0.7992,0.6543,0.357,0.0192,-0.355,0.0,0.0,0.0,0.0,0.0,0.0,0.0,0.0,0.0,0.0,0.0,0.0,0.0,0.0,0.0,0.0,0.0,0.0,0.0,0.0,0.0,0.0,0.0,0.0,0.0,0.0,0.0,0.0,0.0,0.0,0.0,0.0,0.0,0.0,0.0,0.0,0.0,0.0,0.0,-0.219,-0.2099,0.0,0.0,0.0,0.0,0.0,0.0,0.0,0.0,-0.5403,0.0,0.0,0.0,0.0,0.0,0.0,0.0,0.0,0.0,0.0,0.0,0.0,0.0,0.0,0.0,0.0,0.0,0.0,0.0,0.0,0.0,0.0,0.0,0.0,0.0,0.0,0.0,0.0,0.0,0.0,0.0,0.0,0.0,0.0,0.0,0.0,0.0,0.0,0.0,0.0,0.0,0.0,0.0,0.0,0.0,0.0,0.0,0.0,0.0,0.0,0.0,0.0,0.0,0.0,0.0,0.7668,0.8761,0.9116,0.9,0.8768,0.8112,0.6975,0.4849,0.1251,0.0,0.0,0.0,0.0,0.0,0.0,0.0,0.0,0.0,0.0,0.0,0.0,0.0,0.0,0.0,0.0,0.0,0.0,0.0,0.0,0.0,0.0,0.0,0.0,0.0,0.0,0.0,0.0,0.0,0.0,0.0,0.0,0.0,0.0,0.0,0.0,0.0,0.0,0.0,0.0,-0.2873,-0.2783,-0.3875,0.0,0.0,0.0,0.0,0.0,0.0,-0.4668,-0.4943,0.0,0.0,0.0,0.0,0.0,0.0,0.0,0.0,0.0,0.0,0.0,0.0,0.0,0.0,0.0,0.0,0.0,0.0,0.0,0.0,0.0,0.0,0.0,0.0,0.0,0.0,0.0,0.0,0.0,0.0,0.0,0.0,0.0,0.0,0.0,0.0,0.0,0.0,0.0,0.0,0.0,0.0,0.0,0.0,0.0,0.0,0.0,0.0,0.0,0.0,0.0,0.0,0.0,0.0,0.0,0.7451,0.8376,0.8808,0.8943,0.8769,0.8236,0.7328,0.6182,0.2405,0.0,0.0,0.0,0.0,0.0,0.0,0.0,0.0,0.0,0.0,0.0,0.0,0.0,0.0,0.0,0.0,0.0,0.0,0.0,0.0,0.0,0.0,0.0,0.0,0.0,0.0,0.0,0.0,0.0,0.0,0.0,0.0,0.0,0.0,0.0,0.0,0.0,0.0,0.0,0.0,0.0,-0.3639,-0.4211,-0.4361,0.0,0.0,0.0,0.0,-0.4734,-0.4433,0.0,0.0,0.0,0.0,0.0,0.0,0.0,0.0,0.0,0.0,0.0,0.0,0.0,0.0,0.0,0.0,0.0,0.0,0.0,0.0,0.0,0.0,0.0,0.0,0.0,0.0,0.0,0.0,0.0,0.0,0.0,0.0,0.0,0.0,0.0,0.0,0.0,0.0,0.0,0.0,0.0,0.0,0.0,0.0,0.0,0.0,0.0,0.0,0.0,0.0,0.0,0.0,0.0,0.0,0.0,0.0,0.7609,0.8522,0.885,0.8829,0.8852,0.8182,0.6738,0.5711,0.1995,0.0,0.0,0.0,0.0,0.0,0.0,0.0,0.0,0.0,0.0,0.0,0.0,0.0,0.0,0.0,0.0,0.0,0.0,0.0,0.0,0.0,0.0,0.0,0.0,0.0,0.0,0.0,0.0,0.0,0.0,0.0,0.0,0.0,0.0,0.0,0.0,0.0,0.0,0.0,0.0,0.0,-0.3685,-0.4236,-0.3967,-0.4012,0.0,0.0,-0.6131,-0.5086,-0.4207,0.0,0.0,0.0,0.0,0.0,0.0,0.0,0.0,0.0,0.0,0.0,0.0,0.0,0.0,0.0,0.0,0.0,0.0,0.0,0.0,0.0,0.0,0.0,0.0,0.0,0.0,0.0,0.0,0.0,0.0,0.0,0.0,0.0,0.0,0.0,0.0,0.0,0.0,0.0,0.0,0.0,0.0,0.0,0.0,0.0,0.0,0.0,0.0,0.0,0.0,0.0,0.0,0.0,0.0,0.0,0.1277,0.695,0.7858,0.8363,0.8607,0.8778,0.8331,0.7232,0.6358,0.2668,0.0,0.0,0.0,0.0,0.0,0.0,0.0,0.0,0.0,0.0,0.0,0.0,0.0,0.0,0.0,0.0,0.0,0.0,0.0,0.0,0.0,0.0,0.0,0.0,0.0,0.0,0.0,0.0,0.0,0.0,0.0,0.0,0.0,0.0,0.0,0.0,0.0,0.0,0.0,0.0,0.0,0.0,-0.4823,-0.4554,0.0,0.0,0.0,-0.5709,-0.579,0.0,0.0,0.0,0.0,0.0,0.0,0.0,0.0,0.0,0.0,0.0,0.0,0.0,0.0,0.0,0.0,0.0,0.0,0.0,0.0,0.0,0.0,0.0,0.0,0.0,0.0,0.0,0.0,0.0,0.0,0.0,0.0,0.0,0.0,0.0,0.0,0.0,0.0,0.0,0.0,0.0,0.0,0.0,0.0,0.0,0.0,0.0,0.0,0.0,0.0,0.0,0.0,0.0,0.0,0.0,0.0,0.0,0.6174,0.7204,0.7972,0.8556,0.8616,0.8294,0.7589,0.6657,0.0,0.0,0.0,0.0,0.0,0.0,0.0,0.0,0.0,0.0,0.0,0.0,0.0,0.0,0.0,0.0,0.0,0.0,0.0,0.0,0.0,0.0,0.0,0.0,0.0,0.0,0.0,-0.9714,0.0,0.0,0.0,0.0,0.0,0.0,0.0,0.0,0.0,0.0,0.0,0.0,0.0,0.0,-0.5536,-0.5198,-0.4972,-0.5,0.0,0.0,-0.5415,-0.6059,-0.4891,-0.3894,0.0,0.0,0.0,0.0,0.0,0.0,0.0,0.0,0.0,0.0,0.0,0.0,0.0,0.0,0.0,0.0,0.0,0.0,0.0,0.0,0.0,0.0,0.0,0.0,0.0,0.0,0.0,0.0,0.0,0.0,0.0,0.0,0.0,0.0,0.0,0.0,0.0,0.0,0.0,0.0,0.0,0.0,0.0,0.0,0.0,0.0,0.0,0.0,0.0,0.0,0.0,0.0,0.0,0.0,0.0662,0.5336,0.6899,0.7986,0.8733,0.8354,0.7855,0.724,0.5916,0.3059,0.0,0.0,0.0,0.0,0.0,0.0,0.0,0.0,0.0,0.0,0.0,0.0,0.0,0.0,0.0,0.0,0.0,0.0,0.0,0.0,0.0,0.0,0.0,0.0,0.0,0.0,0.0,0.0,0.0,0.0,0.0,0.0,0.0,0.0,0.0,0.0,0.0,0.0,0.0,0.0,0.0,-0.5934,-0.4902,-0.4731,-0.4583,0.0,-0.4998,-0.5635,-0.5565,-0.3713,-0.2467,-0.308,0.0,0.0,0.0,0.0,0.0,0.0,0.0,0.0,0.0,0.0,0.0,0.0,0.0,0.0,0.0,0.0,0.0,0.0,0.0,0.0,0.0,0.0,0.0,0.0,0.0,0.0,0.0,0.0,0.0,0.0,0.0,0.0,0.0,0.0,0.0,0.0,0.0,0.0,0.0,0.0,0.0,0.0,0.0,0.0,0.0,0.0,0.0,0.0,0.0,0.0,0.0,0.0,0.0,-0.0398,0.2857,0.6037,0.8104,0.8984,0.8576,0.8004,0.7273,0.6113,0.3277,0.0,0.0,0.0,0.0,0.0,0.0,0.0,0.0,0.0,0.0,0.0,0.0,0.0,0.0,0.0,0.0,0.0,0.0,0.0,0.0,0.0,0.0,0.0,0.0,0.0,0.0,0.0,0.0,-0.8527,-0.8011,-0.7724,0.0,0.0,0.0,0.0,0.0,0.0,0.0,0.0,0.0,0.0,-0.5596,-0.5084,-0.4594,0.0,0.0,-0.4307,-0.4536,-0.4793,-0.4234,-0.3137,-0.1257,-0.1432,0.0,0.0,0.0,0.0,0.0,0.0,0.0,0.0,0.0,0.0,0.0,0.0,0.0,0.0,0.0,0.0,0.0,0.0,0.0,0.0,0.0,0.0,0.0,0.0,0.0,0.0,0.0,0.0,0.0,0.0,0.0,0.0,0.0,0.0,0.0,0.0,0.0,0.0,0.0,0.0,0.0,0.0,0.0,0.0,0.0,0.0,0.0,0.0,0.0,0.0,0.0,0.0,-0.1028,0.1344,0.557,0.8233,0.9274,0.8536,0.7839,0.7187,0.5849,0.3376,0.0,0.0,0.0,0.0,0.0,0.0,0.0,0.0,0.0,0.0,0.0,0.0,0.0,0.0,0.0,0.0,0.0,0.0,0.0,0.0,0.0,0.0,0.0,0.0,0.0,0.0,0.0,0.0,-0.9013,-0.8387,-0.7709,0.0,0.0,0.0,0.0,0.0,0.0,0.0,0.0,0.0,0.0,-0.5107,-0.4869,-0.4152,-0.3682,-0.3819,-0.3556,-0.3428,-0.3674,-0.3602,-0.2817,-0.0716,0.0,0.0,0.0,0.0,0.0,0.0,0.0,0.0,0.0,0.0,0.0,0.0,0.0,0.0,0.0,0.0,0.0,0.0,0.0,0.0,0.0,0.0,0.0,0.0,0.0,0.0,0.0,0.9389,0.0,0.0,0.737,0.0,0.0,0.0,0.0,0.0,0.0,0.0,0.0,0.0,0.0,0.0,0.0,0.0,0.0,0.0,0.0,0.0,0.0,0.0,0.0,0.0,0.0,-0.1007,0.1462,0.5688,0.8409,0.9423,0.8078,0.7239,0.6968,0.4955,0.3357,0.2263,0.0,0.0,0.0,0.0,0.0,0.0,0.0,0.0,0.0,0.0,0.0,0.0,0.0,0.0,0.0,0.0,0.0,0.0,0.0,0.0,0.0,0.0,0.0,0.0,0.0,0.0,-1.0527,-0.9938,-0.9004,0.0,0.0,0.0,0.0,0.0,0.0,0.0,0.0,0.0,-0.4715,-0.4683,-0.4538,-0.4096,-0.334,-0.2847,-0.2958,-0.2739,-0.2456,-0.2226,-0.133,-0.1014,0.0,0.0,0.0,0.0,0.0,0.0,0.0,0.0,0.0,0.0,0.0,0.0,0.0,0.0,0.0,0.0,0.0,0.0,0.0,0.0,0.0,0.0,0.0,0.0,0.0,0.0,0.0,0.9959,1.0186,0.0,0.0,0.0,0.0,0.0,0.0,0.0,0.0,0.0,0.0,0.0,0.5552,0.4989,0.0,0.0,0.0,0.0,0.0,0.0,0.0,0.0,0.0,0.0,0.0,0.0,-0.1571,-0.1068,0.5153,0.8845,0.9512,0.8414,0.7471,0.6748,0.5041,0.3437,0.1964,0.0,0.0,0.0,0.0,0.0,0.0,0.0,0.0,0.0,0.0,0.0,0.0,0.0,0.0,0.0,0.0,0.0,0.0,0.0,0.0,0.0,0.0,0.0,0.0,0.0,-0.9435,0.0,0.0,0.0,0.0,0.0,0.0,0.0,0.0,0.0,0.0,0.0,-0.5001,-0.2892,-0.3775,-0.4331,-0.3508,-0.2567,-0.1644,0.0,0.0,0.0,0.0,0.0,0.0,0.0,0.0,0.0,0.0,0.0,0.0,0.0,0.0,0.077,-0.1062,-0.152,-0.202,-0.3338,0.0,0.0,0.0,0.0,0.0,0.0,0.0,0.0,0.0,0.0,0.0,0.0,0.0,0.0,1.0335,0.0,0.9796,0.0,0.0,0.0,0.0,0.0,0.0,0.0,0.0,0.756,0.721,0.7081,0.6224,0.6276,0.0,0.5427,0.3811,0.0,0.0,0.0,0.0,0.0,0.0,0.0,0.0,-0.1126,-0.0698,0.5463,0.9019,0.9435,0.8471,0.7523,0.6637,0.4797,0.3144,0.1712,0.0227,-0.0569,0.0,0.0,0.0,0.0,0.0,0.0,0.0,0.0,0.0,0.0,0.0,0.0,0.0,0.0,0.0,0.0,0.0,0.0,0.0,0.0,0.0,0.0,0.0,-0.9003,0.0,0.0,0.0,0.0,0.0,0.0,0.0,0.0,0.0,-0.6133,-0.5672,-0.4121,-0.1112,-0.236,-0.3216,-0.2321,0.0,0.0,0.0,0.0,0.0,0.0,0.0,0.2876,0.1661,0.1952,0.2587,0.3357,0.4008,0.4334,0.3984,0.0,0.0,0.0999,0.0175,-0.0492,-0.1264,-0.0095,0.1028,0.1047,0.2818,0.4396,0.0,0.0,0.0,0.0,0.0,0.0,0.0,0.0,1.1212,1.096,0.0,1.0119,0.0,0.0,0.0,0.0,1.0089,1.0155,0.0,0.0,0.8071,0.7213,0.6442,0.5636,0.5642,0.6403,0.6463,0.7263,0.839,0.3113,0.0,0.0,0.0,0.0,0.0,0.0,0.0405,0.2489,0.6631,0.8968,0.9236,0.8192,0.7306,0.6607,0.4208,0.2508,0.1667,0.1304,0.0668,-0.0383,-0.2787,0.0,0.0,0.0,0.0,0.0,0.0,0.0,0.0,0.0,0.0,0.0,0.0,0.0,0.0,0.0,0.0,0.0,0.0,0.0,0.0,-0.9714,0.0,0.0,0.0,0.0,0.0,0.0,0.0,0.0,0.0,0.0,-0.5821,-0.4796,-0.266,0.0629,0.0,0.0,0.0,0.0,-0.0127,0.0364,0.1475,0.1758,0.0358,0.1514,0.2295,0.1443,0.0,0.0,0.4162,0.4087,0.4108,0.4765,0.3971,0.2992,0.2488,0.1149,0.0418,0.1319,0.1407,0.1614,0.2428,0.2817,0.3214,1.0355,0.0,0.0,0.0,0.0,1.0357,1.0476,1.062,1.0502,1.0421,1.0399,1.0174,0.0,0.0,0.0,0.0,0.0,0.0,0.9783,0.8953,0.8708,0.8143,0.7321,0.7084,0.7056,0.7271,0.7844,0.8353,0.8759,0.7658,0.6007,0.3988,0.0,0.0,0.0,0.0,0.2853,0.2968,0.679,0.8891,0.8945,0.8246,0.7124,0.5524,0.3722,0.2476,0.1897,0.1166,0.0495,-0.0104,-0.1873,0.0,0.0,0.0,0.0,0.0,0.0,0.0,0.0,0.0,0.0,0.0,0.0,0.0,0.0,0.0,0.0,0.0,0.0,0.0,-0.8423,-0.7444,-0.7325,0.0,0.0,0.0,0.0,0.0,0.0,0.0,0.0,0.0,-0.3181,-0.2308,-0.0109,0.0,0.0,0.0105,-0.0102,0.1931,0.3257,0.2619,0.2524,0.0,0.2638,0.3079,0.3329,0.3025,0.362,0.4173,0.4301,0.4461,0.4657,0.4874,0.4662,0.4405,0.4183,0.3094,0.2066,0.1825,0.2804,0.3589,0.3104,0.3561,0.4222,1.0237,1.0256,1.0253,1.0254,1.0239,1.0246,1.0242,1.0227,1.024,1.0228,1.0233,1.0234,1.0253,1.0307,1.0306,0.0,0.0,0.0,0.9958,0.939,0.9109,0.8683,0.817,0.7805,0.776,0.8071,0.8497,0.8875,0.9159,0.9228,0.8903,0.8095,0.0,0.0,0.1877,0.3499,0.4352,0.4478,0.722,0.863,0.8527,0.7736,0.6544,0.4926,0.3778,0.2818,0.2073,0.1178,0.0529,0.0124,-0.1256,-0.2286,0.0,0.0,0.0,0.0,0.0,0.0,0.0,0.0,0.0,0.0,0.0,-1.1035,-1.0208,0.0,0.0,0.0,-0.8694,-0.796,-0.5484,-0.5928,0.0,0.0,0.0,0.0,0.0,0.0,0.0,-0.1134,-0.0191,0.0137,-0.1113,-0.0408,0.0996,0.2997,0.3784,0.3191,0.0522,0.0,0.3165,0.3425,0.2802,0.2582,0.3411,0.389,0.4158,0.4113,0.4494,0.4749,0.4586,0.4749,0.49,0.4908,0.4941,0.4959,0.4971,0.4281,0.3629,0.3127,0.4036,0.4661,0.3934,0.4379,0.4859,1.0312,1.0312,1.0312,1.0312,1.0312,1.0312,1.0312,1.0311,1.0312,1.0312,1.0312,1.031,1.0287,1.0283,1.0278,0.0,1.0184,1.0185,1.0185,1.0171,0.9363,0.9002,0.8949,0.8098,0.8066,0.8779,0.8709,0.9009,0.959,0.88,0.9086,1.0403,0.6964,0.5268,0.5437,0.4917,0.533,0.6756,0.7788,0.8214,0.7986,0.6876,0.5763,0.4735,0.4173,0.3328,0.2164,0.1323,0.0711,0.0285,-0.084,-0.1508,-0.1584,0.0,0.0,0.0,0.0,0.0,0.0,0.0,0.0,0.0,0.0,0.0,0.0,0.0,0.0,0.0,-0.6161,0.0,-0.2393,-0.4833,0.0,0.0,0.0,-0.0612,-0.0218,0.2476,0.3383,0.1027,0.0,0.0,0.0443,0.1034,0.1206,0.0276,0.5053,0.6698,0.1419,0.0596,0.1087,0.328,0.2712,0.2361,0.3279,0.4021,0.4527,0.4551,0.4691,0.4753,0.4811,0.4839,0.4861,0.4841,0.4858,0.485,0.4858,0.4787,0.4903,0.4902,0.4978,0.4977,0.4895,0.4915,0.4932,1.0311,1.0308,1.0309,1.031,1.0309,1.0308,1.0308,1.031,1.0309,1.0308,1.0308,1.0323,1.0279,1.0229,1.0222,1.0215,1.0185,1.019,1.0169,1.0106,0.9924,0.9798,0.9723,0.9392,0.9333,0.9445,0.9349,0.9328,0.9384,0.9028,0.8955,0.9108,0.8143,0.7964,0.8557,0.7772,0.74,0.7461,0.7665,0.7591,0.7089,0.6379,0.5606,0.4801,0.4105,0.3254,0.2223,0.1353,0.0687,0.0235,-0.0259,-0.0659,-0.0997,-0.205,0.0,0.0,0.0,0.0,0.0,0.0,0.0,0.0,0.0,-0.8192,-1.1529,0.0,-0.2006,0.0,-0.1084,-0.1481,-0.2514,-0.2841,0.0,0.0,-0.2104,0.1064,0.2528,0.4136,0.437,0.2421,0.2715,0.2656,0.1554,0.2219,0.2447,0.1649,0.3302,0.4256,0.314,0.2889,0.2867,0.328,0.3561,0.3784,0.3608,0.3867,0.412,0.423,0.4301,0.4402,0.4498,0.4569,0.4587,0.4606,0.4603,0.4572,0.4519,0.4489,0.4518,0.468,0.4778,0.485,0.4835,0.4835,0.4842,1.0307,1.0322,1.0322,1.0322,1.0321,1.0322,1.0322,1.032,1.032,1.0319,1.0279,1.0251,1.024,1.0202,1.0193,1.0191,1.0164,1.0128,1.0075,1.0005,0.9982,0.9936,0.9861,0.9731,0.9603,0.9518,0.9359,0.9202,0.9071,0.8846,0.8648,0.8469,0.8297,0.8422,0.8743,0.833,0.8043,0.7885,0.7518,0.7139,0.6714,0.6153,0.5457,0.4593,0.4101,0.3285,0.2143,0.1281,0.0711,0.0466,0.0124,-0.0237,-0.0602,-0.1267,-0.1911,0.0,0.0,0.0,0.0,0.0,0.0,0.0,0.0,0.0,0.0,0.0,0.0568,0.2546,0.2358,0.1583,0.031,-0.0198,-0.0975,-0.2217,0.0148,0.2303,0.3497,0.4133,0.4188,0.3336,0.338,0.3405,0.3243,0.3141,0.2771,0.1903,0.2212,0.2695,0.3067,0.2968,0.2778,0.2764,0.3114,0.3377,0.3152,0.3281,0.3439,0.3587,0.37,0.3796,0.3937,0.4032,0.4107,0.4134,0.4115,0.4085,0.4046,0.3958,0.396,0.4129,0.4152,0.4248,0.4489,0.4537,0.4539,1.032,1.0298,1.0278,1.0293,1.0286,1.0293,1.0275,1.0292,1.0293,1.0289,1.0282,1.0228,1.0185,1.0199,1.0164,1.0148,1.0061,1.0006,0.9933,0.9874,0.9794,0.9722,0.9625,0.9512,0.9376,0.9221,0.9019,0.8863,0.8719,0.8497,0.829,0.8147,0.7955,0.7798,0.766,0.7768,0.7882,0.7975,0.7408,0.6975,0.6699,0.6199,0.5503,0.4604,0.4114,0.3295,0.2094,0.1289,0.0896,0.089,0.0417,-0.0014,-0.0285,-0.0612,-0.1247,0.0,-0.3826,0.0,0.0,0.0,0.0,0.0,0.0,0.0,0.0,0.0229,0.1504,0.5651,0.4291,0.3366,0.3802,0.2207,0.1692,0.2875,0.2934,0.2939,0.3224,0.3238,0.3354,0.3713,0.3393,0.3507,0.4055,0.345,0.2487,0.1679,0.1541,0.1742,0.2013,0.197,0.1891,0.1921,0.1988,0.2179,0.2246,0.2472,0.2691,0.2823,0.2958,0.3101,0.3246,0.3365,0.3483,0.354,0.352,0.3471,0.3478,0.3383,0.3382,0.3541,0.3399,0.3448,0.392,0.4086,0.413,1.031,1.0284,1.0242,1.0217,1.023,1.0232,1.0217,1.0219,1.0215,1.0222,1.0222,1.0205,1.0154,1.0137,1.0074,1.0001,0.993,0.9861,0.9769,0.9643,0.9596,0.9504,0.9359,0.9237,0.9071,0.8891,0.8686,0.8522,0.8396,0.8227,0.8066,0.7884,0.7739,0.7741,0.7893,0.0,0.0,0.0,0.7544,0.7525,0.7244,0.6887,0.6457,0.5895,0.4142,0.0,0.2192,0.1997,0.1764,0.1432,0.064,0.0,0.0,0.0,0.0,0.0,0.0,0.0,0.0,0.0,0.0,0.0,0.4007,0.2584,-0.0822,0.1873,0.4303,0.527,0.3405,0.2467,0.3292,0.2328,0.1633,0.1729,0.1868,0.196,0.1982,0.22,0.2489,0.287,0.2532,0.2001,0.1543,0.1658,0.1709,0.1158,0.1131,0.1185,0.1172,0.1488,0.1669,0.156,0.1536,0.1483,0.1361,0.167,0.1937,0.1968,0.2141,0.2358,0.2484,0.2671,0.2813,0.2873,0.2884,0.2856,0.2798,0.2781,0.2794,0.2957,0.2861,0.2874,0.3357,0.3564,0.3672,1.0259,1.0254,1.0232,1.0202,0.0,1.019,1.0185,1.0185,1.0188,1.0194,1.0141,1.0155,1.0116,1.0044,0.9986,0.9903,0.98,0.9727,0.9643,0.9497,0.9368,0.9239,0.9136,0.8996,0.8807,0.866,0.8467,0.8267,0.8147,0.8053,0.7913,0.7753,0.7665,0.7655,0.774,0.7529,0.7329,0.7203,0.7317,0.7288,0.706,0.6735,0.6155,0.531,0.3683,0.0,0.0,0.0,0.0,0.0,0.0,0.0,0.0,0.0278,0.0,-0.0155,-0.0601,-0.0589,0.005,0.0802,0.2175,0.4271,0.4452,0.3483,0.1147,0.3322,0.4612,0.4259,0.2682,0.1985,0.2602,0.2063,0.1578,0.1394,0.1373,0.1378,0.1326,0.1449,0.1613,0.1714,0.1584,0.1177,0.0542,0.0893,0.1065,0.0739,0.0731,0.077,0.0696,0.0969,0.1138,0.1041,0.1071,0.1038,0.0872,0.1118,0.1315,0.1274,0.1492,0.1714,0.1828,0.1998,0.2136,0.2232,0.2271,0.23,0.2309,0.2317,0.2335,0.2481,0.2501,0.2586,0.2913,0.3126,0.3321,1.0574,1.0431,1.0431,1.0341,1.0202,1.0199,1.0264,1.0394,0.0,0.0,0.0,1.0072,1.0039,0.9944,0.9887,0.9799,0.9673,0.9599,0.9492,0.9347,0.9139,0.9011,0.8947,0.8736,0.8596,0.8457,0.8272,0.8123,0.7997,0.7927,0.7856,0.7739,0.7679,0.7589,0.7542,0.7467,0.736,0.7251,0.7215,0.7086,0.6911,0.6611,0.5948,0.4909,0.3641,0.2912,0.2764,0.2989,0.2897,0.2414,0.2483,0.1977,0.0751,0.0546,0.0421,0.0298,0.0373,0.0724,0.1367,0.2035,0.2518,0.2763,0.3049,0.3414,0.3811,0.4124,0.3933,0.3057,0.2046,0.1569,0.1883,0.1657,0.1397,0.1202,0.1071,0.0951,0.0896,0.0896,0.0871,0.0762,0.0813,0.0715,0.045,0.0597,0.0659,0.0479,0.0478,0.049,0.0479,0.0624,0.069,0.0613,0.0737,0.077,0.0648,0.0797,0.0907,0.0846,0.1052,0.125,0.1352,0.1453,0.1586,0.1764,0.1827,0.1923,0.1992,0.2037,0.2068,0.2256,0.2395,0.2566,0.277,0.291,0.313,1.1987,1.1315,1.1318,1.0876,1.0192,1.0147,1.0509,1.1072,1.043,1.0072,1.0011,0.9949,0.9906,0.9825,0.9766,0.9655,0.953,0.9465,0.9303,0.9129,0.9001,0.8875,0.8741,0.8579,0.8457,0.8314,0.8178,0.8083,0.8013,0.7926,0.7884,0.787,0.7812,0.7753,0.7679,0.7605,0.7514,0.7467,0.7728,0.7793,0.7643,0.7538,0.7382,0.7093,0.5384,0.4612,0.4845,0.4314,0.3829,0.3396,0.2721,0.2134,0.1715,0.1156,0.0745,0.0565,0.0604,0.0869,0.1373,0.1827,0.2236,0.2588,0.2624,0.2797,0.3194,0.3429,0.3172,0.2255,0.1372,0.0937,0.119,0.1095,0.0962,0.0801,0.0624,0.0489,0.05,0.0489,0.05,0.0455,0.0422,0.0422,0.04,0.0435,0.0457,0.0413,0.0468,0.0479,0.0624,0.0581,0.0513,0.0468,0.0637,0.074,0.0737,0.0801,0.0915,0.0882,0.0973,0.1099,0.1162,0.1233,0.1362,0.1523,0.1681,0.1848,0.2051,0.2026,0.2197,0.2546,0.2845,0.3251,0.3669,0.3531,0.3336,1.2518,1.2158,1.215,1.1898,1.1479,1.1421,1.1576,1.187,1.1478,1.1295,1.1295,1.1201,1.0867,1.0402,1.0294,0.9922,0.9386,0.932,0.9204,0.905,0.8897,0.8776,0.8632,0.8524,0.8396,0.8247,0.8181,0.8126,0.8054,0.8025,0.7997,0.7941,0.7884,0.7841,0.7812,0.7753,0.7694,0.7665,0.7705,0.7648,0.754,0.7423,0.7183,0.6791,0.5828,0.524,0.5086,0.4686,0.4329,0.3999,0.326,0.2698,0.2348,0.1907,0.1427,0.0929,0.0903,0.1046,0.1318,0.1764,0.2106,0.2362,0.2285,0.2258,0.2339,0.2559,0.2371,0.1632,0.096,0.065,0.0748,0.069,0.0581,0.0446,0.0335,0.0289,0.03,0.03,0.0289,0.0289,0.0267,0.0256,0.03,0.0357,0.0435,0.0502,0.0626,0.0804,0.0998,0.103,0.09,0.0597,0.0794,0.1005,0.1005,0.1077,0.1179,0.1207,0.1179,0.1168,0.1173,0.1238,0.1389,0.1581,0.1792,0.207,0.2385,0.2339,0.2478,0.2942,0.4307,0.507,0.5293,0.5547,0.5858,1.3137,1.2974,1.2959,1.2809,1.2563,1.2496,1.2541,1.2621,1.2551,1.2665,1.2813,1.2371,1.1773,1.115,1.0994,1.0498,0.9857,0.9718,0.9513,0.9236,0.9114,0.8899,0.8616,0.8473,0.834,0.8261,0.8236,0.8193,0.8135,0.8149,0.8121,0.8066,0.7997,0.794,0.7925,0.7869,0.7841,0.7812,0.765,0.7498,0.7341,0.7217,0.6906,0.6382,0.6175,0.582,0.5333,0.5196,0.4937,0.455,0.398,0.3447,0.298,0.2671,0.2171,0.1495,0.135,0.1353,0.1437,0.1792,0.2076,0.2179,0.2079,0.191,0.1764,0.1858,0.1732,0.1213,0.0802,0.0551,0.0544,0.0457,0.0346,0.0233,0.0233,0.0256,0.0245,0.0245,0.0245,0.0267,0.0278,0.0267,0.0256,0.0379,0.0579,0.0789,0.098,0.1205,0.1437,0.1597,0.1465,0.1237,0.1279,0.1463,0.1452,0.1526,0.1622,0.1681,0.1563,0.1485,0.1437,0.149,0.1647,0.1877,0.2172,0.2624,0.2987,0.2883,0.307,0.3752,0.5463,0.6862,0.667,0.7227,0.7896,1.4505,1.3824,1.3783,1.3258,1.2501,1.2459,1.2823,1.3346,1.3337,1.3684,1.4073,1.2709,1.198,1.1804,1.1678,1.1464,1.1228,1.1162,1.0651,0.9949,0.9836,0.9375,0.8713,0.8569,0.846,0.8398,0.8343,0.833,0.8282,0.8311,0.8301,0.8261,0.8209,0.8171,0.8112,0.8057,0.7971,0.79,0.7812,0.7679,0.7483,0.7345,0.7223,0.7105,0.6962,0.6773,0.6467,0.6402,0.5997,0.5348,0.4937,0.4414,0.3751,0.3337,0.2866,0.2319,0.2118,0.1963,0.1883,0.201,0.2183,0.2193,0.2144,0.1999,0.1837,0.1603,0.1362,0.1082,0.0823,0.0682,0.0604,0.049,0.0401,0.0322,0.0357,0.0379,0.0379,0.0379,0.0413,0.0468,0.0457,0.0413,0.0401,0.0613,0.0944,0.1271,0.1463,0.169,0.1981,0.2279,0.25,0.2415,0.225,0.209,0.2169,0.2151,0.2199,0.2272,0.2096,0.1959,0.1918,0.2005,0.2148,0.2626,0.2887,0.3477,0.4006,0.3972,0.3942,0.5137,0.6497,0.7565,0.7342,0.7619,0.7791,1.4972,1.4628,1.461,1.4318,1.3893,1.3799,1.3887,1.4126,1.4051,1.4135,1.4259,1.3564,1.2998,1.2567,1.2418,1.2045,1.1524,1.1364,1.11,1.0709,1.0591,1.0316,0.9929,0.9841,0.9545,0.9087,0.9026,0.8802,0.8488,0.8788,0.9205,0.9557,0.9529,0.9468,0.9406,0.9311,0.9215,0.9134,0.9004,0.8886,0.8699,0.7883,0.7374,0.7298,0.7155,0.7009,0.6881,0.6693,0.6418,0.5945,0.5579,0.5085,0.4423,0.3994,0.3559,0.3048,0.2985,0.2988,0.2967,0.3121,0.3229,0.3257,0.3143,0.288,0.2434,0.218,0.1889,0.1459,0.1147,0.094,0.0762,0.0704,0.0648,0.057,0.057,0.057,0.0524,0.057,0.0593,0.0659,0.0601,0.0632,0.0808,0.1195,0.1571,0.1809,0.1984,0.228,0.2558,0.3104,0.3662,0.397,0.3873,0.3453,0.3049,0.2796,0.2856,0.295,0.2758,0.2509,0.2577,0.2948,0.3328,0.3615,0.425,0.4913,0.5726,0.5697,0.5692,0.6766,0.8045,0.9162,0.8972,0.9003,0.9003,1.5153,1.5107,1.5071,1.496,1.4841,1.4728,1.4619,1.4541,1.4428,1.432,1.425,1.4127,1.377,1.3285,1.3125,1.27,1.2147,1.1943,1.1753,1.1508,1.1362,1.1128,1.0841,1.0765,1.0411,0.9914,0.9835,0.9563,0.9131,0.9502,1.0031,1.0415,1.043,1.0332,1.0281,1.016,1.0055,0.9952,0.9794,0.9699,0.9497,0.8565,0.7974,0.7898,0.7604,0.7452,0.7473,0.734,0.7081,0.6758,0.6288,0.5778,0.5272,0.4762,0.4259,0.3774,0.3713,0.378,0.3871,0.4025,0.4106,0.4121,0.4035,0.3687,0.3125,0.292,0.2661,0.221,0.1952,0.1715,0.105,0.0991,0.0958,0.0878,0.0859,0.0826,0.0792,0.0804,0.087,0.0911,0.0893,0.0958,0.132,0.1823,0.2264,0.2573,0.2846,0.3201,0.3628,0.4355,0.4986,0.5413,0.5298,0.4674,0.3787,0.3814,0.3872,0.4151,0.4121,0.3874,0.3688,0.4278,0.4704,0.5103,0.5896,0.6421,0.6736,0.6933,0.7318,0.8094,0.9203,1.0191,0.9902,1.0077,1.0,1.5113,1.5117,1.499,1.4953,1.4737,1.4712,1.4596,1.4592,1.4423,1.4299,1.4235,1.4135,1.3984,1.3918,1.3891,1.3709,1.3548,1.3354,1.2916,1.2288,1.2118,1.1641,1.0915,1.0824,1.0764,1.0637,1.0622,1.0606,1.0526,1.0479,1.0479,1.0543,1.0491,1.0376,1.0388,1.0314,1.0084,1.0049,0.9969,0.9769,0.9575,0.9366,0.9213,0.9166,0.8632,0.8374,0.8551,0.8575,0.8368,0.7918,0.7173,0.6596,0.6304,0.5661,0.5072,0.4563,0.4281,0.4201,0.4355,0.4483,0.4529,0.4514,0.4515,0.4159,0.3693,0.3746,0.3636,0.3268,0.33,0.2879,0.1852,0.1587,0.1437,0.1387,0.1262,0.126,0.1222,0.1316,0.1236,0.135,0.1481,0.178,0.2033,0.2381,0.3043,0.36,0.4008,0.4469,0.5208,0.5791,0.6218,0.6361,0.6145,0.5441,0.4554,0.4939,0.5699,0.604,0.5992,0.5684,0.5872,0.602,0.6227,0.6476,0.6953,0.7353,0.764,0.8076,0.861,0.9223,0.9718,1.0293,1.0578,1.0323,1.0447,1.6685,1.6609,1.6498,1.638,1.6284,1.6181,1.6066,1.5936,1.5763,1.5666,1.5564,1.5453,1.5341,1.5244,1.5209,1.4654,1.3738,1.3544,1.3325,1.3053,1.289,1.264,1.239,1.2206,1.1858,1.145,1.1351,1.1334,1.1333,1.13,1.1471,1.1782,1.1756,1.1646,1.1517,1.1435,1.1298,1.1122,1.1029,1.0904,1.0741,1.057,1.0425,1.0325,0.9302,0.8752,0.8745,0.859,0.8399,0.8144,0.7667,0.7344,0.7091,0.6815,0.6532,0.6337,0.6405,0.6359,0.6141,0.62,0.6109,0.58,0.5627,0.532,0.4845,0.4718,0.4549,0.4219,0.4103,0.38,0.3454,0.2967,0.265,0.2543,0.2502,0.2427,0.2435,0.2442,0.2502,0.2618,0.2836,0.3334,0.3817,0.4126,0.4314,0.4797,0.5175,0.5621,0.6118,0.6772,0.7431,0.7638,0.7819,0.7873,0.7679,0.7083,0.718,0.7642,0.7685,0.6866,0.6649,0.7275,0.7568,0.7907,0.8243,0.8634,0.9038,0.9057,0.9705,1.1178,1.1601,1.1308,1.1248,1.1492,1.1794,1.7529,1.7453,1.7313,1.7225,1.7139,1.6995,1.6867,1.6726,1.654,1.6433,1.6354,1.6253,1.6133,1.6028,1.6028,1.5471,1.4449,1.4058,1.3734,1.3496,1.3312,1.3226,1.3173,1.2997,1.2644,1.22,1.2082,1.2045,1.2026,1.2008,1.2207,1.2542,1.2479,1.2379,1.22,1.2096,1.1949,1.1783,1.1645,1.1511,1.1421,1.1178,1.1038,1.0833,0.9963,0.9425,0.9311,0.9069,0.8866,0.8707,0.8353,0.799,0.7679,0.7576,0.7588,0.7621,0.781,0.7864,0.7617,0.7676,0.7552,0.7231,0.7032,0.6718,0.6242,0.6171,0.6057,0.5896,0.5695,0.559,0.5553,0.5277,0.4645,0.3829,0.3547,0.3493,0.3464,0.347,0.3549,0.3679,0.3964,0.4539,0.5137,0.5162,0.5433,0.5913,0.6299,0.669,0.7524,0.8209,0.8992,0.933,0.9248,0.9244,0.9065,0.8657,0.8591,0.8978,0.901,0.8171,0.7982,0.8562,0.9024,0.9357,0.9722,1.0119,1.0276,1.0219,1.1346,1.306,1.3299,1.2969,1.2958,1.3024,1.3043,1.7548,1.7514,1.7292,1.7306,1.7235,1.7119,1.6813,1.6799,1.6626,1.6635,1.6622,1.6377,1.6431,1.6221,1.6324,1.6061,1.5765,1.5087,1.4366,1.3769,1.348,1.3394,1.3392,1.3246,1.3153,1.3004,1.2878,1.2805,1.2813,1.2771,1.274,1.2573,1.2587,1.2541,1.2287,1.2225,1.1968,1.1881,1.1798,1.1589,1.1322,1.1277,1.1186,1.1049,1.077,1.0559,1.0385,1.0145,0.9893,0.9691,0.9206,0.8606,0.8127,0.8055,0.8061,0.8289,0.8349,0.8406,0.8482,0.8565,0.856,0.839,0.8441,0.8088,0.7719,0.7831,0.8077,0.8234,0.808,0.7939,0.7943,0.7852,0.6953,0.4885,0.4575,0.456,0.4431,0.4312,0.4364,0.4724,0.508,0.501,0.5289,0.594,0.6552,0.7169,0.7652,0.8347,0.953,1.0132,1.091,1.1315,1.0864,1.026,1.0131,1.0012,1.0118,1.0237,1.0062,0.9669,0.9869,1.032,1.0602,1.0921,1.123,1.1578,1.1444,1.1533,1.2561,1.3889,1.4093,1.4256,1.408,1.3907,1.3833,1.9047,1.8957,1.8851,1.873,1.8617,1.845,1.8324,1.8244,1.8056,1.795,1.7878,1.7804,1.7729,1.7671,1.7613,1.7259,1.6753,1.6379,1.5805,1.5098,1.4811,1.4682,1.4644,1.4519,1.4451,1.4337,1.427,1.417,1.4058,1.4015,1.3977,1.3876,1.3756,1.3659,1.3452,1.3349,1.3181,1.3011,1.2827,1.269,1.2599,1.2404,1.2273,1.2247,1.2114,1.183,1.1317,1.0686,1.0274,1.0148,0.9868,0.9604,0.9403,0.939,0.9463,0.9572,0.968,0.958,0.9307,0.9307,0.9191,0.8885,0.8703,0.8581,0.8459,0.8516,0.8649,0.8785,0.8659,0.8599,0.8599,0.8654,0.8146,0.6989,0.6832,0.6701,0.665,0.6858,0.7169,0.7372,0.7624,0.7676,0.7669,0.8092,0.8718,0.9051,0.9605,1.0416,1.1052,1.1409,1.1645,1.2048,1.1514,1.151,1.1671,1.2091,1.2547,1.2237,1.1806,1.1174,1.1413,1.1733,1.2049,1.2416,1.2741,1.2812,1.2672,1.3062,1.4012,1.4511,1.4798,1.4794,1.4687,1.4564,1.4469,1.9726,1.9649,1.9532,1.9402,1.9295,1.9134,1.9017,1.8931,1.8788,1.8678,1.8604,1.8563,1.8505,1.8463,1.8385,1.8046,1.7552,1.7469,1.7147,1.6465,1.5711,1.5476,1.5378,1.523,1.5103,1.5022,1.4935,1.4831,1.4703,1.4697,1.4629,1.4499,1.4429,1.4279,1.4117,1.397,1.3795,1.3576,1.342,1.3291,1.3199,1.3036,1.294,1.2885,1.2623,1.2402,1.2124,1.1501,1.0917,1.049,1.0286,1.0173,1.0161,1.016,1.0261,1.0323,1.0385,1.0299,1.0054,1.0023,0.9913,0.9586,0.9404,0.9373,0.9373,0.9364,0.9342,0.9409,0.9502,0.9519,0.9554,0.9627,0.9589,0.9568,0.8723,0.8423,0.8388,0.8519,0.8651,0.883,0.9242,0.9274,0.9175,0.9726,1.0526,1.0748,1.1134,1.1709,1.2095,1.2407,1.2724,1.3057,1.3247,1.3335,1.3499,1.4125,1.4928,1.4434,1.3761,1.2919,1.2497,1.2839,1.3176,1.3677,1.4057,1.4123,1.4016,1.4353,1.5027,1.5261,1.5354,1.5184,1.5027,1.5097,1.5017,1.9662,1.9569,1.945,1.9329,1.9184,1.9052,1.8967,1.8896,1.8752,1.8697,1.8678,1.8619,1.8579,1.8559,1.8463,1.8316,1.8273,1.8153,1.7992,1.7475,1.6605,1.5873,1.5762,1.5605,1.5479,1.5348,1.5227,1.5105,1.511,1.5071,1.4756,1.4806,1.4781,1.4481,1.4449,1.4146,1.41,1.3953,1.3721,1.3575,1.344,1.3275,1.322,1.3234,1.2802,1.2705,1.2911,1.2573,1.1843,1.0845,1.0618,1.053,1.0437,1.0424,1.0474,1.0583,1.0583,1.0594,1.0643,1.0514,1.0489,1.0409,1.0392,1.049,1.0474,1.0527,1.0566,1.0679,1.0751,1.0824,1.0897,1.1031,1.1366,1.1775,1.0577,0.9674,0.9412,0.9426,0.9751,1.0019,1.0286,1.0333,0.9751,1.0606,1.1525,1.2187,1.2402,1.2875,1.3389,1.3974,1.4153,1.4429,1.471,1.4367,1.4262,1.4453,1.5288,1.5854,1.528,1.4532,1.369,1.3884,1.4072,1.4613,1.5072,1.5178,1.5284,1.54,1.5521,1.5627,1.5579,1.544,1.5344,1.533,1.5299,1.9574,1.9518,1.939,1.9282,1.9168,1.9,1.8931,1.886,1.877,1.8787,1.8696,1.8622,1.8635,1.8579,1.8502,1.8426,1.836,1.8315,1.819,1.7971,1.7642,1.7214,1.6992,1.6848,1.6755,1.6708,1.6613,1.6532,1.641,1.6353,1.6244,1.6044,1.6009,1.5863,1.5656,1.5533,1.537,1.519,1.4949,1.479,1.4688,1.4542,1.4468,1.4454,1.4282,1.4069,1.3855,1.3353,1.2607,1.1684,1.1421,1.1114,1.0729,1.0675,1.0715,1.0753,1.0675,1.061,1.0648,1.0612,1.0574,1.0637,1.0937,1.1203,1.1322,1.1655,1.1843,1.1966,1.2062,1.2128,1.2195,1.2408,1.2742,1.2987,1.2483,1.2162,1.2158,1.2101,1.2123,1.2758,1.2154,1.1763,1.1823,1.266,1.3938,1.4826,1.5046,1.5006,1.5278,1.56,1.577,1.578,1.5824,1.5235,1.4907,1.4981,1.5571,1.6692,1.6581,1.6078,1.5273,1.4864,1.4934,1.5118,1.5509,1.5694,1.57,1.5757,1.5859,1.6141,1.5599,1.5373,1.5338,1.532,1.5288,2.0055,1.9956,1.9491,1.9232,1.915,1.9016,1.8966,1.8967,1.9146,1.9252,1.9233,1.9175,1.9135,1.9059,1.872,1.8656,1.8781,1.8791,1.8871,1.8944,1.8805,1.8478,1.8085,1.7897,1.7946,1.8201,1.8114,1.8026,1.792,1.7867,1.7743,1.7618,1.7492,1.7352,1.7226,1.7024,1.6848,1.6653,1.6409,1.612,1.5734,1.5566,1.5289,1.5174,1.5118,1.4963,1.466,1.4341,1.3625,1.2618,1.2126,1.1828,1.1543,1.1291,1.1279,1.1373,1.1374,1.1361,1.1256,1.1176,1.1123,1.1203,1.1479,1.1637,1.1781,1.2146,1.2352,1.2369,1.2608,1.2706,1.2899,1.3343,1.3811,1.4079,1.4423,1.4394,1.396,1.4145,1.4338,1.4382,1.427,1.3889,1.3653,1.4519,1.5772,1.6817,1.6821,1.6721,1.673,1.7062,1.7188,1.7025,1.6963,1.6509,1.6588,1.6779,1.6571,1.7538,1.751,1.7094,1.6709,1.6048,1.6039,1.6084,1.6168,1.6251,1.6406,1.6547,1.6746,1.6651,1.5892,1.557,1.5666,1.5511,1.5447,2.0822,2.0757,1.9913,1.9488,1.9459,1.9391,1.9451,1.9363,1.9901,2.0151,2.0113,2.0052,1.9992,1.9881,1.9394,1.9187,1.9617,1.9595,1.9786,1.9867,1.9765,1.9387,1.9052,1.8684,1.8821,1.919,1.935,1.9186,1.9,1.8998,1.9022,1.8792,1.8667,1.8629,1.8338,1.8268,1.8145,1.7772,1.7473,1.7025,1.6527,1.6265,1.6013,1.5698,1.5529,1.5414,1.5315,1.5154,1.4602,1.3276,1.2803,1.2582,1.254,1.2155,1.2084,1.2178,1.2136,1.2093,1.206,1.1856,1.1913,1.1871,1.1919,1.2075,1.2255,1.2535,1.2681,1.2783,1.2785,1.3122,1.3431,1.4149,1.4713,1.5022,1.5772,1.5568,1.5068,1.5711,1.6152,1.5252,1.6342,1.644,1.5929,1.5787,1.6527,1.7736,1.7875,1.7788,1.7705,1.7859,1.7911,1.7814,1.78,1.7847,1.8223,1.873,1.8403,1.8429,1.8162,1.7877,1.7859,1.7454,1.7356,1.7267,1.6933,1.7071,1.7531,1.7654,1.7643,1.7733,1.735,1.6832,1.641,1.6017,1.5838,2.1742,2.1708,2.1395,2.1236,2.1202,2.1115,2.0989,2.0879,2.1022,2.1035,2.0958,2.0918,2.0835,2.0746,2.0477,2.0477,2.0383,2.0373,2.0327,2.0157,1.9934,2.0123,2.012,1.9721,1.9442,1.9569,1.952,1.9454,1.9432,1.9463,1.9244,1.9224,1.9254,1.8917,1.8773,1.8717,1.8331,1.805,1.7824,1.7596,1.7283,1.703,1.6876,1.6615,1.6349,1.5868,1.5445,1.5313,1.5018,1.4479,1.3822,1.3217,1.2884,1.2828,1.2699,1.2401,1.2232,1.2082,1.1966,1.1991,1.198,1.2221,1.2414,1.2679,1.3214,1.3363,1.3549,1.3704,1.3929,1.417,1.4628,1.5081,1.5589,1.5976,1.634,1.6591,1.6371,1.6454,1.6522,1.6783,1.7266,1.7704,1.7025,1.7308,1.791,1.8551,1.8646,1.8604,1.8586,1.8603,1.8573,1.8469,1.8639,1.8646,1.8752,1.9157,1.9026,1.8901,1.8702,1.8609,1.8575,1.8391,1.8096,1.7795,1.7454,1.7832,1.8446,1.8185,1.804,1.8412,1.8712,1.8014,1.7345,1.6802,1.6264,2.2571,2.2518,2.2052,2.1837,2.1767,2.1715,2.1625,2.1588,2.1838,2.1904,2.1803,2.1801,2.1697,2.1525,2.1163,2.096,2.1214,2.1399,2.1404,2.1241,2.0985,2.1061,2.1234,2.0955,2.061,2.0548,2.0586,2.0525,2.0467,2.0393,2.045,2.031,2.0175,2.0138,1.9859,1.961,1.9434,1.9173,1.8763,1.8421,1.7998,1.7782,1.7481,1.7277,1.6979,1.6582,1.6271,1.6163,1.5784,1.5202,1.4515,1.3905,1.3509,1.3452,1.3256,1.2997,1.2784,1.2626,1.2561,1.2487,1.2513,1.2628,1.2799,1.3114,1.347,1.3775,1.3974,1.4124,1.4401,1.4864,1.5736,1.6471,1.6818,1.7204,1.7503,1.7791,1.7898,1.7352,1.691,1.7306,1.7745,1.7859,1.7924,1.8194,1.8447,1.8706,1.8842,1.8823,1.8901,1.8947,1.9092,1.9146,1.9378,1.9434,1.9308,1.9313,1.9261,1.922,1.9175,1.9175,1.9225,1.8945,1.8629,1.8488,1.8419,1.8792,1.9231,1.8857,1.8699,1.9143,1.9265,1.8828,1.8306,1.7673,1.7183,2.3401,2.3347,2.2597,2.2255,2.2187,2.2225,2.2154,2.2062,2.2529,2.2777,2.2689,2.259,2.2517,2.2238,2.1648,2.1581,2.1913,2.2185,2.2214,2.2122,2.1877,2.1809,2.1836,2.1687,2.1582,2.1794,2.1602,2.1589,2.1559,2.1648,2.1384,2.1521,2.1385,2.1051,2.1039,2.0844,2.0405,2.0039,1.9677,1.9209,1.8711,1.8425,1.8062,1.7582,1.7437,1.7229,1.6954,1.6795,1.6463,1.5756,1.5066,1.4688,1.44,1.4032,1.3815,1.3689,1.3385,1.3175,1.2977,1.3001,1.2995,1.3104,1.3138,1.3352,1.3621,1.3963,1.4185,1.4466,1.4831,1.5517,1.6551,1.7285,1.7992,1.8435,1.8808,1.9143,1.9159,1.8257,1.8044,1.7814,1.8391,1.8653,1.8325,1.8317,1.8558,1.8856,1.9034,1.9147,1.9287,1.9458,1.9703,1.9497,1.9588,1.9473,1.9314,1.9415,1.9366,1.9552,1.9549,1.9662,1.9721,1.947,1.9254,1.9545,1.9669,1.9808,1.984,1.9639,1.9662,1.9996,1.9812,1.939,1.8939,1.8496,1.8011,2.4323,2.429,2.4128,2.3986,2.3878,2.3805,2.362,2.3613,2.361,2.3653,2.3466,2.3396,2.3226,2.3012,2.2887,2.2673,2.2496,2.25,2.246,2.2349,2.2147,2.2027,2.2015,2.1899,2.184,2.1853,2.1869,2.1886,2.1869,2.184,2.1797,2.1754,2.1603,2.1435,2.1167,2.0909,2.0595,2.0254,1.9904,1.9462,1.9156,1.8899,1.8585,1.8035,1.7927,1.7605,1.7098,1.6831,1.6473,1.6094,1.5802,1.5459,1.4951,1.4176,1.377,1.3634,1.35,1.3386,1.3179,1.3039,1.3027,1.3084,1.3218,1.3607,1.4095,1.4436,1.4677,1.5184,1.5744,1.6475,1.7312,1.8047,1.8408,1.8801,1.9264,1.9574,1.9739,1.9824,1.9644,1.9295,1.9521,1.951,1.9073,1.9007,1.9581,2.0047,2.0359,2.0319,2.0293,2.0426,2.0626,2.0191,1.9648,1.9412,1.9157,1.9348,1.947,1.9816,1.9929,2.0048,2.0049,1.9888,1.9903,2.0202,2.0139,1.9991,2.005,2.0153,2.0188,2.0173,2.0055,1.9915,1.9488,1.9003,1.8474,2.4634,2.4547,2.4532,2.441,2.4303,2.421,2.4115,2.4016,2.3917,2.3831,2.37,2.3589,2.3471,2.3289,2.3102,2.2893,2.2632,2.2525,2.2449,2.2338,2.2163,2.2106,2.2106,2.1974,2.1911,2.194,2.2003,2.2053,2.194,2.1911,2.1949,2.1827,2.1694,2.1466,2.1183,2.0876,2.0543,2.0166,1.9812,1.9523,1.925,1.9064,1.8734,1.8567,1.8378,1.8124,1.7791,1.7427,1.7037,1.6531,1.6186,1.5685,1.512,1.4625,1.4121,1.4037,1.3902,1.3764,1.3674,1.3666,1.3753,1.3865,1.3865,1.4162,1.4561,1.4846,1.5254,1.6198,1.6853,1.7573,1.8275,1.8943,1.953,1.9985,2.0286,2.0574,2.0883,2.1267,2.109,2.0712,2.0671,2.0381,1.9699,1.9917,2.0668,2.1183,2.1609,2.1515,2.127,2.1307,2.1375,2.0997,2.0512,2.0735,2.039,2.0224,2.034,2.0544,2.0552,2.0639,2.0841,2.0906,2.0826,2.0871,2.0652,2.0327,2.0143,2.0208,2.0269,2.033,2.0227,2.0105,1.9898,1.9515,1.8936,2.4666,2.4599,2.453,2.4409,2.4284,2.4229,2.4096,2.3958,2.3855,2.375,2.3656,2.3522,2.3407,2.3265,2.307,2.2799,2.2515,2.2487,2.2405,2.231,2.2225,2.2197,2.2168,2.2274,2.23,2.2429,2.2664,2.2459,2.2333,2.2258,2.2262,2.2391,2.2174,2.1858,2.1681,2.1252,2.0705,2.0228,1.975,1.9391,1.9116,1.8912,1.8784,1.8798,1.8736,1.8577,1.8232,1.7917,1.7463,1.6904,1.6493,1.603,1.5316,1.5057,1.4977,1.486,1.4581,1.4437,1.4337,1.4299,1.4232,1.4397,1.4575,1.4901,1.5338,1.5619,1.6035,1.7405,1.8235,1.8628,1.9197,1.9986,2.0586,2.1007,2.1334,2.1718,2.1864,2.2035,2.2139,2.1898,2.1755,2.1362,2.0797,2.0891,2.1623,2.1816,2.2212,2.2201,2.196,2.1914,2.19,2.169,2.1649,2.218,2.2043,2.1571,2.1708,2.194,2.1755,2.1644,2.1952,2.225,2.2038,2.1709,2.1105,2.0788,2.0532,2.027,2.0327,2.0359,2.0375,2.0251,1.9997,1.9709,1.9258,2.4666,2.4599,2.4534,2.4393,2.421,2.419,2.4056,2.3837,2.3795,2.3703,2.3539,2.3448,2.3336,2.3168,2.302,2.2764,2.2569,2.2487,2.2432,2.231,2.2225,2.2247,2.2348,2.2862,2.3026,2.3143,2.3603,2.3522,2.3173,2.304,2.3181,2.3437,2.3211,2.3122,2.2505,2.1827,2.1321,2.078,1.9923,1.9272,1.8955,1.8827,1.8721,1.8697,1.8644,1.8475,1.8135,1.7801,1.7423,1.7177,1.6954,1.6701,1.6328,1.6071,1.5886,1.5496,1.4945,1.4371,1.445,1.4557,1.4651,1.4821,1.4927,1.532,1.5957,1.6678,1.7347,1.848,1.9273,1.9645,1.9867,2.04,2.0925,2.1293,2.1601,2.1915,2.2192,2.2276,2.2415,2.247,2.2148,2.2261,2.2055,2.2287,2.2502,2.2634,2.2686,2.2648,2.2601,2.2476,2.247,2.2304,2.226,2.2767,2.3212,2.2832,2.2895,2.3179,2.3051,2.2773,2.3076,2.3314,2.2978,2.259,2.1977,2.1265,2.0802,2.0574,2.0458,2.0343,2.0264,2.0161,2.0031,1.9717,1.9242,2.4566,2.4532,2.4482,2.4358,2.4172,2.4094,2.3937,2.3813,2.3682,2.3589,2.3494,2.3336,2.3193,2.3045,2.2944,2.279,2.2596,2.2515,2.2432,2.2383,2.2333,2.249,2.2878,2.3216,2.3469,2.3978,2.4202,2.4376,2.4094,2.3815,2.3768,2.3819,2.36,2.3138,2.2991,2.2232,2.1667,2.0959,2.0069,1.9369,1.9098,1.8739,1.8464,1.84,1.8372,1.8161,1.7841,1.7516,1.7269,1.7044,1.6859,1.6645,1.6448,1.6219,1.6076,1.6008,1.5709,1.5398,1.532,1.5271,1.5375,1.5581,1.5778,1.6189,1.6874,1.7437,1.8115,1.8984,1.9619,2.0044,2.0231,2.0613,2.0974,2.1324,2.1675,2.1974,2.2237,2.2349,2.2432,2.2504,2.2532,2.2504,2.2504,2.2453,2.2419,2.2466,2.2546,2.2617,2.266,2.271,2.2807,2.2952,2.298,2.3153,2.3666,2.3787,2.3841,2.4076,2.4353,2.417,2.4303,2.4312,2.3967,2.3757,2.3394,2.2535,2.1414,2.0719,2.0488,2.0287,2.0123,1.9819,1.9492,1.9012,1.8503,2.4479,2.4411,2.4339,2.4266,2.4094,2.3955,2.3813,2.3707,2.3549,2.3453,2.3383,2.3241,2.307,2.2927,2.2893,2.279,2.2605,2.2525,2.2487,2.2439,2.2604,2.2914,2.3405,2.371,2.4306,2.478,2.4992,2.5129,2.5112,2.4843,2.4375,2.4192,2.4068,2.3602,2.3101,2.2493,2.1894,2.0954,2.0157,1.9585,1.9238,1.8753,1.8396,1.8218,1.8083,1.7935,1.7598,1.7186,1.6905,1.6876,1.6675,1.6504,1.6405,1.6343,1.6244,1.6244,1.6127,1.6139,1.6083,1.6083,1.6256,1.6416,1.6769,1.6972,1.7572,1.7933,1.8313,1.9203,1.9789,2.0142,2.0369,2.0712,2.1071,2.1402,2.1691,2.1991,2.2237,2.2321,2.2394,2.2456,2.2439,2.2304,2.2287,2.2281,2.2265,2.2275,2.2375,2.2508,2.2659,2.279,2.2925,2.3069,2.3379,2.3497,2.3895,2.4337,2.4564,2.482,2.508,2.5196,2.5081,2.5102,2.4939,2.4766,2.4472,2.3571,2.231,2.1383,2.0464,2.0031,1.961,1.9188,1.8782,1.8269,1.7698,2.4373,2.421,2.4134,2.4054,2.3917,2.385,2.37,2.3549,2.3499,2.3383,2.3241,2.3144,2.3045,2.2927,2.2876,2.279,2.2623,2.2579,2.2593,2.2777,2.3096,2.343,2.3973,2.4692,2.534,2.5495,2.5665,2.5929,2.5966,2.5411,2.5297,2.5239,2.4598,2.4453,2.3871,2.2949,2.1951,2.1112,2.0386,1.9865,1.9461,1.899,1.8618,1.8139,1.807,1.7909,1.7282,1.6863,1.665,1.6718,1.659,1.6516,1.6504,1.6498,1.6498,1.6473,1.6461,1.6504,1.6516,1.6448,1.6454,1.6629,1.7021,1.7529,1.7989,1.8113,1.8589,1.9317,1.9891,2.0268,2.0522,2.0811,2.1151,2.1433,2.1708,2.1974,2.2163,2.2276,2.2338,2.2389,2.2316,2.2192,2.2101,2.2113,2.2124,2.2136,2.2298,2.2432,2.2632,2.2773,2.288,2.3071,2.3508,2.3812,2.4134,2.4454,2.4801,2.5045,2.528,2.5395,2.5401,2.5464,2.5444,2.5109,2.465,2.3954,2.3112,2.1731,2.0508,1.9658,1.9087,1.8682,1.7854,1.7094,1.6636,2.4284,2.4114,2.3974,2.3891,2.3816,2.3721,2.3629,2.358,2.3471,2.3336,2.3193,2.3126,2.3003,2.2927,2.2876,2.2816,2.2659,2.2605,2.2853,2.3157,2.3477,2.402,2.4686,2.5285,2.5746,2.6068,2.6265,2.6189,2.5937,2.56,2.5201,2.4934,2.4775,2.4492,2.3884,2.3154,2.2264,2.1591,2.0969,2.0429,2.0075,1.9148,1.8655,1.8395,1.7677,1.7487,1.7086,1.6735,1.6607,1.6565,1.6522,1.6577,1.6633,1.6713,1.6756,1.6731,1.6705,1.6774,1.6786,1.6731,1.6693,1.6976,1.7365,1.7801,1.8202,1.831,1.8731,1.9362,2.002,2.0424,2.0525,2.086,2.1183,2.1464,2.1708,2.1945,2.2089,2.2175,2.2282,2.2304,2.218,2.2027,2.1998,2.1924,2.1982,2.2039,2.222,2.2394,2.2596,2.2816,2.2919,2.3186,2.3629,2.4118,2.4444,2.4755,2.5053,2.5241,2.5434,2.5477,2.5525,2.5566,2.5492,2.5182,2.4648,2.3759,2.2749,2.1584,2.0535,1.9577,1.878,1.8144,1.719,1.6009,1.5439,2.421,2.4074,2.3889,2.3786,2.3768,2.3634,2.3562,2.3517,2.343,2.3354,2.3175,2.3126,2.3028,2.2927,2.2876,2.2816,2.2798,2.2934,2.3285,2.3693,2.4189,2.4798,2.545,2.5896,2.6135,2.6436,2.6277,2.601,2.5787,2.5394,2.5029,2.471,2.4482,2.4219,2.3754,2.3113,2.248,2.2044,2.1602,2.0974,2.0603,1.9777,1.8809,1.8508,1.7697,1.7225,1.7002,1.6748,1.662,1.6607,1.665,1.668,1.6833,1.6931,1.7002,1.7002,1.7015,1.6973,1.6999,1.6901,1.6973,1.7212,1.7543,1.7922,1.8214,1.8482,1.8873,1.9457,2.0091,2.0524,2.0577,2.0893,2.1214,2.1481,2.1648,2.1857,2.1986,2.2089,2.2168,2.2247,2.2077,2.1924,2.1911,2.1882,2.1969,2.2027,2.2147,2.2377,2.2632,2.2849,2.3064,2.3382,2.3798,2.4293,2.478,2.5031,2.5249,2.5354,2.5522,2.5522,2.5563,2.5548,2.531,2.4869,2.4214,2.3405,2.2206,2.0832,2.0044,1.942,1.8403,1.7252,1.6074,1.4916,1.4215,2.421,2.4092,2.3889,2.3765,2.37,2.3585,2.3471,2.3448,2.3407,2.3354,2.3223,2.3199,2.3095,2.2927,2.2902,2.2825,2.2893,2.334,2.3805,2.411,2.4953,2.5661,2.6009,2.6235,2.6319,2.6227,2.6063,2.586,2.5675,2.5392,2.5012,2.4741,2.4587,2.4091,2.3554,2.2933,2.2417,2.2016,2.1819,2.1374,2.0844,2.0373,1.9588,1.8782,1.781,1.7268,1.7127,1.6871,1.6761,1.6761,1.6863,1.6947,1.7002,1.7251,1.7334,1.7363,1.7253,1.7267,1.7348,1.7141,1.7183,1.7391,1.772,1.8069,1.845,1.8727,1.9022,1.9639,2.0187,2.0569,2.0775,2.0974,2.123,2.1481,2.1634,2.1768,2.1899,2.1957,2.2036,2.2099,2.1991,2.1899,2.1869,2.1869,2.1957,2.2044,2.2118,2.2343,2.2668,2.2982,2.3234,2.3567,2.397,2.4557,2.5015,2.5232,2.5426,2.5528,2.5527,2.549,2.5342,2.5173,2.4878,2.4458,2.3509,2.2438,2.1208,1.9957,1.8465,1.697,1.6962,1.5997,1.4845,1.3773,1.2934,2.4152,2.4016,2.385,2.3783,2.3761,2.3629,2.3539,2.3517,2.3494,2.3448,2.336,2.3265,2.3144,2.3045,2.2944,2.2885,2.2937,2.347,2.3926,2.466,2.5569,2.6024,2.6318,2.6387,2.6382,2.6187,2.5934,2.5945,2.6094,2.5686,2.5644,2.5503,2.497,2.4313,2.3466,2.2843,2.2537,2.2184,2.2063,2.1824,2.1274,2.0698,2.0107,1.9506,1.8346,1.7709,1.7544,1.7239,1.7042,1.7072,1.7242,1.7342,1.7426,1.762,1.7608,1.7555,1.7432,1.7406,1.7419,1.7323,1.7378,1.7678,1.7896,1.8282,1.863,1.8754,1.9229,1.9767,2.0246,2.0574,2.0827,2.099,2.1215,2.1497,2.1664,2.1738,2.184,2.184,2.1886,2.1978,2.1932,2.1919,2.189,2.2003,2.2118,2.2271,2.2381,2.2571,2.2876,2.323,2.352,2.3768,2.4166,2.4778,2.5244,2.5374,2.5347,2.533,2.5327,2.531,2.5114,2.474,2.4107,2.3529,2.2488,2.1395,1.9507,1.7543,1.5517,1.4248,1.4471,1.4506,1.3644,1.2406,1.1221,2.4094,2.3955,2.385,2.3804,2.3783,2.3674,2.3629,2.3629,2.3585,2.3544,2.3453,2.3336,2.3193,2.307,2.297,2.3102,2.3196,2.3857,2.4586,2.53,2.5917,2.6333,2.6506,2.6435,2.6206,2.6056,2.6005,2.6037,2.6165,2.6104,2.6001,2.5894,2.5631,2.4906,2.4053,2.3589,2.2904,2.2544,2.2217,2.2063,2.1641,2.1199,2.0617,2.0027,1.9265,1.8507,1.8202,1.7873,1.7614,1.7731,1.786,1.8073,1.8171,1.8311,1.8395,1.8382,1.8314,1.8271,1.8225,1.8331,1.8441,1.8628,1.8439,1.8414,1.8745,1.8962,1.9383,1.9854,2.0377,2.0655,2.0955,2.1118,2.1344,2.1627,2.1979,2.2054,2.2261,2.2325,2.259,2.2571,2.2388,2.2288,2.2049,2.2152,2.2276,2.248,2.2668,2.2927,2.3175,2.3486,2.3891,2.4197,2.4485,2.5034,2.5368,2.5427,2.5348,2.5184,2.5108,2.5069,2.4428,2.3973,2.3277,2.2411,2.1052,1.9449,1.7111,1.5065,1.3455,1.2609,1.251,1.2438,1.22,1.1032,0.9621,2.4016,2.3915,2.3847,2.3804,2.3804,2.3721,2.3682,2.3682,2.37,2.3629,2.3517,2.3448,2.3265,2.3045,2.2927,2.3206,2.3746,2.4465,2.5146,2.5808,2.6265,2.6522,2.6453,2.6258,2.6105,2.6005,2.606,2.6181,2.6125,2.6539,2.6504,2.6198,2.6036,2.5592,2.5106,2.4549,2.3699,2.3077,2.2505,2.2292,2.1974,2.1629,2.1057,2.053,1.99,1.9336,1.9028,1.8767,1.8831,1.898,1.9289,1.9507,1.968,1.9883,1.994,1.9858,1.9651,1.9391,1.9212,1.9279,1.9541,1.9513,1.9017,1.8784,1.9037,1.9616,2.0087,2.0548,2.1042,2.1085,2.1163,2.1391,2.1633,2.2037,2.2474,2.2732,2.2992,2.3255,2.3603,2.3603,2.3339,2.3088,2.2558,2.2495,2.2809,2.2903,2.3197,2.3723,2.3909,2.385,2.4261,2.4771,2.506,2.5324,2.5542,2.5703,2.5363,2.5177,2.4885,2.4725,2.4007,2.3106,2.2302,2.1194,1.95,1.7514,1.5084,1.3329,1.1861,1.1299,1.0905,1.0669,1.0512,0.9235,0.7992,2.4016,2.3896,2.3834,2.3792,2.3792,2.3771,2.3771,2.3771,2.3768,2.3739,2.3634,2.3471,2.3289,2.3126,2.2995,2.331,2.3884,2.454,2.5145,2.5788,2.637,2.6419,2.6258,2.6023,2.601,2.6115,2.6238,2.6504,2.7079,2.7396,2.7418,2.7297,2.6861,2.6549,2.6154,2.5804,2.474,2.376,2.3054,2.2594,2.2245,2.1841,2.1424,2.105,2.0462,2.0019,1.9813,1.9443,1.9474,1.9607,1.9642,1.9762,1.991,1.9954,1.9954,1.9853,1.974,1.9622,1.9646,1.97,1.9959,2.0426,2.0174,2.0419,2.0596,2.0739,2.1077,2.1418,2.1905,2.2093,2.2139,2.2274,2.2442,2.2753,2.3194,2.349,2.3753,2.405,2.4414,2.448,2.4214,2.3988,2.3435,2.3255,2.3553,2.3527,2.3804,2.4431,2.4801,2.481,2.4832,2.5365,2.5815,2.6125,2.6084,2.618,2.5621,2.515,2.4592,2.3986,2.3221,2.2311,2.1355,1.9695,1.7531,1.5277,1.2959,1.1639,1.0903,0.9736,0.9207,0.9023,0.8651,0.7672,0.7058,2.3955,2.3876,2.3816,2.3795,2.3795,2.3795,2.3795,2.381,2.3807,2.3761,2.3634,2.3476,2.3289,2.3102,2.2997,2.3361,2.4293,2.4564,2.5162,2.61,2.6285,2.6175,2.599,2.5782,2.5873,2.6062,2.6419,2.6701,2.7458,2.7789,2.7795,2.7715,2.769,2.7335,2.6877,2.644,2.5671,2.4608,2.3702,2.3008,2.2502,2.2077,2.1855,2.15,2.088,2.067,2.0555,2.0141,2.0213,2.0429,2.0489,2.073,2.0924,2.0924,2.0879,2.0844,2.0753,2.0722,2.0749,2.0753,2.0924,2.1237,2.1571,2.2012,2.1992,2.2003,2.2064,2.2229,2.2854,2.3287,2.3282,2.3291,2.3466,2.3636,2.3966,2.4315,2.4564,2.4846,2.5013,2.5179,2.5107,2.4941,2.4704,2.4507,2.4513,2.4859,2.5271,2.5794,2.6125,2.6167,2.6014,2.6139,2.6596,2.6985,2.6911,2.6435,2.5038,2.4124,2.3241,2.2661,2.2112,2.0646,1.892,1.7103,1.5196,1.3164,1.1431,1.1009,1.0343,0.9014,0.7816,0.764,0.749,0.7084,0.6687,2.3876,2.3795,2.3795,2.3795,2.3795,2.3795,2.381,2.3804,2.3783,2.37,2.3562,2.343,2.3241,2.3063,2.3041,2.3695,2.4401,2.4785,2.5407,2.6504,2.6243,2.6043,2.5717,2.5502,2.5743,2.6062,2.6436,2.6777,2.7317,2.7655,2.779,2.7806,2.7675,2.747,2.7365,2.6986,2.6183,2.5118,2.4309,2.3594,2.2772,2.2324,2.2091,2.1855,2.1561,2.1321,2.1272,2.1321,2.141,2.1636,2.1799,2.2011,2.2108,2.208,2.2016,2.1923,2.1671,2.1611,2.163,2.1722,2.2084,2.246,2.3024,2.3256,2.316,2.3025,2.3057,2.3226,2.3808,2.4063,2.4076,2.4172,2.4332,2.4556,2.4875,2.5161,2.5413,2.5681,2.5967,2.6083,2.6158,2.6,2.5819,2.5588,2.5679,2.6179,2.6709,2.7177,2.7296,2.7381,2.6989,2.6816,2.724,2.7662,2.8009,2.7059,2.4361,2.3041,2.1655,2.0715,1.9724,1.8066,1.6221,1.4633,1.3164,1.1858,1.0448,1.0299,0.9637,0.7838,0.6842,0.6402,0.6159,0.6134,0.6283,2.3876,2.3795,2.3795,2.3795,2.3813,2.3789,2.3807,2.3783,2.3629,2.3562,2.3517,2.336,2.3228,2.3135,2.3379,2.4024,2.4594,2.5084,2.5681,2.6044,2.6059,2.577,2.5524,2.5368,2.5693,2.6217,2.6592,2.6949,2.7522,2.7735,2.7725,2.7675,2.756,2.756,2.756,2.716,2.657,2.5324,2.4872,2.3981,2.2864,2.2523,2.2278,2.2091,2.1855,2.1712,2.1602,2.165,2.1841,2.2044,2.2091,2.2263,2.2449,2.2449,2.2324,2.2184,2.2077,2.2091,2.2184,2.2324,2.2586,2.2994,2.3392,2.3782,2.3983,2.4014,2.4115,2.4335,2.4535,2.4724,2.4895,2.5009,2.5154,2.5447,2.5706,2.5963,2.6202,2.6506,2.6809,2.6956,2.7112,2.7051,2.6823,2.6889,2.6969,2.7363,2.7923,2.8309,2.8307,2.8258,2.7423,2.7277,2.7777,2.8222,2.8478,2.6644,2.3407,2.0353,1.8455,1.7723,1.7136,1.53,1.3414,1.2522,1.1228,1.0207,0.9803,1.0179,0.9163,0.7072,0.6069,0.559,0.5431,0.5424,0.5681,2.3837,2.3795,2.3795,2.3813,2.381,2.3786,2.3761,2.3674,2.3539,2.343,2.3313,2.3259,2.3252,2.3337,2.3677,2.4338,2.4896,2.526,2.5647,2.5881,2.5787,2.5508,2.5304,2.5266,2.5822,2.6329,2.6903,2.7367,2.7715,2.774,2.7675,2.761,2.756,2.7545,2.7494,2.7318,2.6589,2.5276,2.514,2.4232,2.297,2.2675,2.2477,2.2292,2.2091,2.1949,2.1935,2.1983,2.2137,2.237,2.2449,2.2586,2.2678,2.2678,2.2555,2.2417,2.231,2.231,2.2449,2.2632,2.2844,2.3304,2.3739,2.4177,2.4642,2.4697,2.5021,2.5201,2.5109,2.5266,2.5399,2.553,2.5691,2.59,2.6182,2.6404,2.6673,2.6954,2.7152,2.7293,2.7512,2.772,2.7769,2.8356,2.8461,2.8677,2.9209,2.8848,2.892,2.7911,2.7384,2.6833,2.6734,2.7214,2.73,2.4926,2.1549,1.8547,1.4882,1.4141,1.3195,1.1913,1.0609,0.9939,0.9424,0.9111,0.8939,0.8805,0.8063,0.6082,0.5367,0.4923,0.4821,0.4821,0.5045,2.3795,2.3795,2.3813,2.381,2.3804,2.3761,2.3656,2.3517,2.3471,2.3313,2.3179,2.321,2.3502,2.3707,2.3927,2.4679,2.524,2.5447,2.5721,2.5697,2.553,2.5278,2.5258,2.5415,2.5895,2.6535,2.7215,2.7463,2.7725,2.7675,2.7625,2.761,2.75,2.739,2.7303,2.6965,2.6199,2.5184,2.4634,2.4087,2.3412,2.2826,2.2644,2.2491,2.2324,2.2217,2.2217,2.2263,2.2417,2.2646,2.2814,2.2904,2.2904,2.2904,2.2768,2.2632,2.2586,2.2586,2.2709,2.2934,2.329,2.3653,2.4094,2.4554,2.5012,2.5385,2.5709,2.6008,2.5929,2.5972,2.6143,2.6171,2.6333,2.6364,2.6607,2.6858,2.7135,2.7355,2.7491,2.7654,2.7956,2.8252,2.8764,2.9409,2.9739,2.9982,2.9769,2.9406,2.8608,2.6655,2.5326,2.4506,2.3916,2.4548,2.527,2.1568,1.764,1.3542,1.0005,0.9703,0.9364,0.8603,0.8052,0.7657,0.7245,0.7311,0.6815,0.6354,0.5484,0.4973,0.4553,0.4217,0.4356,0.4356,0.4422,2.3795,2.3795,2.3789,2.3786,2.3783,2.3611,2.3522,2.3471,2.3265,2.3126,2.3185,2.351,2.3774,2.3867,2.4279,2.4898,2.543,2.5642,2.5655,2.5621,2.5317,2.5045,2.5111,2.5509,2.5984,2.6699,2.7418,2.762,2.763,2.758,2.7545,2.75,2.6803,2.6619,2.648,2.6071,2.5345,2.459,2.4203,2.3778,2.3267,2.2872,2.2795,2.2689,2.2569,2.2417,2.2324,2.2495,2.2799,2.3038,2.3187,2.3216,2.3172,2.3083,2.2949,2.2904,2.2814,2.2859,2.2979,2.3304,2.361,2.3967,2.4385,2.4791,2.5242,2.5653,2.6205,2.7054,2.7081,2.7234,2.7313,2.7088,2.7133,2.6928,2.6989,2.7244,2.7509,2.7707,2.7872,2.8165,2.8488,2.8795,2.9195,2.969,3.0013,2.9946,2.9316,2.8737,2.6652,2.4971,2.292,2.1757,2.0688,2.1251,2.1457,1.6371,1.219,0.8091,0.5611,0.6066,0.6154,0.5852,0.5391,0.544,0.5645,0.5814,0.5122,0.456,0.4268,0.3944,0.3634,0.3485,0.3699,0.3909,0.3994]}]]